<?xml version="1.0" encoding="UTF-8" standalone="no" ?>
<gpx xmlns="http://www.topografix.com/GPX/1/1" xmlns:xsi="http://www.w3.org/2001/XMLSchema-instance" xsi:schemaLocation="http://www.topografix.com/GPX/1/1 http://www.topografix.com/GPX/1/1/gpx.xsd" version="1.1" creator="VisuGPX - https://www.visugpx.com">
  <metadata>
    <name>Les Passerelles 02</name>
  </metadata>
  <trk>
    <name><![CDATA[Les passerelles 02]]></name>
    <extensions>
      <line xmlns="http://www.topografix.com/GPX/gpx_style/0/2">
        <color>0000FF</color>
        <width>4</width>
      </line>
    </extensions>
    <trkseg>
      <trkpt lat="45.00942" lon="5.70024">
        <ele>512.8</ele>
        <time>2023-05-16T08:00:00.000Z</time>
      </trkpt>
      <trkpt lat="45.0086" lon="5.70029">
        <ele>515.6</ele>
        <time>2023-05-16T08:00:33.431Z</time>
      </trkpt>
      <trkpt lat="45.00845" lon="5.70026">
        <ele>515.9</ele>
        <time>2023-05-16T08:00:39.327Z</time>
      </trkpt>
      <trkpt lat="45.00726" lon="5.70045">
        <ele>524.5</ele>
        <time>2023-05-16T08:01:34.545Z</time>
      </trkpt>
      <trkpt lat="45.00678" lon="5.70066">
        <ele>531.3</ele>
        <time>2023-05-16T08:02:03.487Z</time>
      </trkpt>
      <trkpt lat="45.00621" lon="5.70076">
        <ele>537.8</ele>
        <time>2023-05-16T08:02:34.040Z</time>
      </trkpt>
      <trkpt lat="45.00538" lon="5.70073">
        <ele>538.1</ele>
        <time>2023-05-16T08:03:04.758Z</time>
      </trkpt>
      <trkpt lat="45.00511" lon="5.70085">
        <ele>541.9</ele>
        <time>2023-05-16T08:03:20.998Z</time>
      </trkpt>
      <trkpt lat="45.00457" lon="5.70126">
        <ele>554.1</ele>
        <time>2023-05-16T08:04:05.913Z</time>
      </trkpt>
      <trkpt lat="45.00425" lon="5.70144">
        <ele>559.9</ele>
        <time>2023-05-16T08:04:28.344Z</time>
      </trkpt>
      <trkpt lat="45.00383" lon="5.70146">
        <ele>570.1</ele>
        <time>2023-05-16T08:05:05.006Z</time>
      </trkpt>
      <trkpt lat="45.00352" lon="5.70127">
        <ele>571.8</ele>
        <time>2023-05-16T08:05:19.511Z</time>
      </trkpt>
      <trkpt lat="45.00328" lon="5.70051">
        <ele>559.3</ele>
        <time>2023-05-16T08:05:38.352Z</time>
      </trkpt>
      <trkpt lat="45.00295" lon="5.69987">
        <ele>557.7</ele>
        <time>2023-05-16T08:05:57.148Z</time>
      </trkpt>
      <trkpt lat="45.00279" lon="5.69962">
        <ele>556.6</ele>
        <time>2023-05-16T08:06:04.781Z</time>
      </trkpt>
      <trkpt lat="45.0026" lon="5.69945">
        <ele>556.9</ele>
        <time>2023-05-16T08:06:13.355Z</time>
      </trkpt>
      <trkpt lat="45.0024" lon="5.69933">
        <ele>557.5</ele>
        <time>2023-05-16T08:06:22.023Z</time>
      </trkpt>
      <trkpt lat="45.00193" lon="5.69916">
        <ele>559.7</ele>
        <time>2023-05-16T08:06:42.514Z</time>
      </trkpt>
      <trkpt lat="45.00115" lon="5.69923">
        <ele>577</ele>
        <time>2023-05-16T08:07:45.069Z</time>
      </trkpt>
      <trkpt lat="45.00032" lon="5.69911">
        <ele>573.8</ele>
        <time>2023-05-16T08:08:12.271Z</time>
      </trkpt>
      <trkpt lat="45.00007" lon="5.69915">
        <ele>575.2</ele>
        <time>2023-05-16T08:08:23.263Z</time>
      </trkpt>
      <trkpt lat="44.9996" lon="5.69943">
        <ele>598.4</ele>
        <time>2023-05-16T08:10:01.229Z</time>
      </trkpt>
      <trkpt lat="44.99908" lon="5.69949">
        <ele>606.4</ele>
        <time>2023-05-16T08:10:33.341Z</time>
      </trkpt>
      <trkpt lat="44.9986" lon="5.69936">
        <ele>605.5</ele>
        <time>2023-05-16T08:10:50.248Z</time>
      </trkpt>
      <trkpt lat="44.99834" lon="5.69937">
        <ele>611.6</ele>
        <time>2023-05-16T08:11:12.198Z</time>
      </trkpt>
      <trkpt lat="44.99812" lon="5.69926">
        <ele>614</ele>
        <time>2023-05-16T08:11:24.167Z</time>
      </trkpt>
      <trkpt lat="44.9977" lon="5.69884">
        <ele>607</ele>
        <time>2023-05-16T08:11:40.636Z</time>
      </trkpt>
      <trkpt lat="44.99749" lon="5.6987">
        <ele>609.5</ele>
        <time>2023-05-16T08:11:52.748Z</time>
      </trkpt>
      <trkpt lat="44.99729" lon="5.69849">
        <ele>604.8</ele>
        <time>2023-05-16T08:12:00.723Z</time>
      </trkpt>
      <trkpt lat="44.99692" lon="5.69822">
        <ele>604.2</ele>
        <time>2023-05-16T08:12:15.302Z</time>
      </trkpt>
      <trkpt lat="44.99673" lon="5.69813">
        <ele>607.4</ele>
        <time>2023-05-16T08:12:27.931Z</time>
      </trkpt>
      <trkpt lat="44.99561" lon="5.69783">
        <ele>622.1</ele>
        <time>2023-05-16T08:13:32.092Z</time>
      </trkpt>
      <trkpt lat="44.99542" lon="5.6977">
        <ele>621.1</ele>
        <time>2023-05-16T08:13:38.849Z</time>
      </trkpt>
      <trkpt lat="44.99324" lon="5.69757">
        <ele>647.2</ele>
        <time>2023-05-16T08:15:37.608Z</time>
      </trkpt>
      <trkpt lat="44.99264" lon="5.69744">
        <ele>645.7</ele>
        <time>2023-05-16T08:15:58.214Z</time>
      </trkpt>
      <trkpt lat="44.99186" lon="5.6975">
        <ele>640</ele>
        <time>2023-05-16T08:16:23.223Z</time>
      </trkpt>
      <trkpt lat="44.99166" lon="5.69762">
        <ele>642</ele>
        <time>2023-05-16T08:16:33.957Z</time>
      </trkpt>
      <trkpt lat="44.99153" lon="5.69787">
        <ele>648.6</ele>
        <time>2023-05-16T08:16:58.295Z</time>
      </trkpt>
      <trkpt lat="44.99136" lon="5.69811">
        <ele>652.6</ele>
        <time>2023-05-16T08:17:13.829Z</time>
      </trkpt>
      <trkpt lat="44.99119" lon="5.69826">
        <ele>652</ele>
        <time>2023-05-16T08:17:20.526Z</time>
      </trkpt>
      <trkpt lat="44.99097" lon="5.69875">
        <ele>661.3</ele>
        <time>2023-05-16T08:17:54.074Z</time>
      </trkpt>
      <trkpt lat="44.99068" lon="5.69919">
        <ele>670.7</ele>
        <time>2023-05-16T08:18:28.070Z</time>
      </trkpt>
      <trkpt lat="44.9905" lon="5.69939">
        <ele>678.1</ele>
        <time>2023-05-16T08:18:55.958Z</time>
      </trkpt>
      <trkpt lat="44.9903" lon="5.69955">
        <ele>682.1</ele>
        <time>2023-05-16T08:19:11.250Z</time>
      </trkpt>
      <trkpt lat="44.99011" lon="5.69964">
        <ele>682.6</ele>
        <time>2023-05-16T08:19:19.177Z</time>
      </trkpt>
      <trkpt lat="44.98989" lon="5.69952">
        <ele>680.4</ele>
        <time>2023-05-16T08:19:26.726Z</time>
      </trkpt>
      <trkpt lat="44.98974" lon="5.69896">
        <ele>670</ele>
        <time>2023-05-16T08:19:40.284Z</time>
      </trkpt>
      <trkpt lat="44.98963" lon="5.69869">
        <ele>665.8</ele>
        <time>2023-05-16T08:19:47.339Z</time>
      </trkpt>
      <trkpt lat="44.98945" lon="5.69851">
        <ele>665.1</ele>
        <time>2023-05-16T08:19:54.669Z</time>
      </trkpt>
      <trkpt lat="44.98919" lon="5.69847">
        <ele>669.6</ele>
        <time>2023-05-16T08:20:11.940Z</time>
      </trkpt>
      <trkpt lat="44.98869" lon="5.69856">
        <ele>672.8</ele>
        <time>2023-05-16T08:20:34.541Z</time>
      </trkpt>
      <trkpt lat="44.98819" lon="5.69878">
        <ele>677.9</ele>
        <time>2023-05-16T08:21:00.895Z</time>
      </trkpt>
      <trkpt lat="44.988" lon="5.69901">
        <ele>682.8</ele>
        <time>2023-05-16T08:21:19.001Z</time>
      </trkpt>
      <trkpt lat="44.98773" lon="5.69964">
        <ele>693.7</ele>
        <time>2023-05-16T08:21:58.737Z</time>
      </trkpt>
      <trkpt lat="44.98751" lon="5.69981">
        <ele>694.5</ele>
        <time>2023-05-16T08:22:08.877Z</time>
      </trkpt>
      <trkpt lat="44.98728" lon="5.69977">
        <ele>690</ele>
        <time>2023-05-16T08:22:16.296Z</time>
      </trkpt>
      <trkpt lat="44.98712" lon="5.6997">
        <ele>685.7</ele>
        <time>2023-05-16T08:22:21.658Z</time>
      </trkpt>
      <trkpt lat="44.98693" lon="5.69977">
        <ele>684.4</ele>
        <time>2023-05-16T08:22:27.944Z</time>
      </trkpt>
      <trkpt lat="44.9868" lon="5.69993">
        <ele>686.8</ele>
        <time>2023-05-16T08:22:38.015Z</time>
      </trkpt>
      <trkpt lat="44.98642" lon="5.70072">
        <ele>703.2</ele>
        <time>2023-05-16T08:23:36.963Z</time>
      </trkpt>
      <trkpt lat="44.98626" lon="5.70093">
        <ele>706.4</ele>
        <time>2023-05-16T08:23:50.067Z</time>
      </trkpt>
      <trkpt lat="44.98592" lon="5.70126">
        <ele>711.3</ele>
        <time>2023-05-16T08:24:12.450Z</time>
      </trkpt>
      <trkpt lat="44.98463" lon="5.70189">
        <ele>723.4</ele>
        <time>2023-05-16T08:25:19.092Z</time>
      </trkpt>
      <trkpt lat="44.98439" lon="5.70193">
        <ele>723.1</ele>
        <time>2023-05-16T08:25:27.605Z</time>
      </trkpt>
      <trkpt lat="44.98418" lon="5.70202">
        <ele>724</ele>
        <time>2023-05-16T08:25:36.744Z</time>
      </trkpt>
      <trkpt lat="44.98398" lon="5.7022">
        <ele>726.1</ele>
        <time>2023-05-16T08:25:48.317Z</time>
      </trkpt>
      <trkpt lat="44.98365" lon="5.70258">
        <ele>731.8</ele>
        <time>2023-05-16T08:26:12.708Z</time>
      </trkpt>
      <trkpt lat="44.98325" lon="5.70284">
        <ele>735.5</ele>
        <time>2023-05-16T08:26:33.868Z</time>
      </trkpt>
      <trkpt lat="44.98301" lon="5.70293">
        <ele>738.4</ele>
        <time>2023-05-16T08:26:47.247Z</time>
      </trkpt>
      <trkpt lat="44.98278" lon="5.70292">
        <ele>738.6</ele>
        <time>2023-05-16T08:26:55.896Z</time>
      </trkpt>
      <trkpt lat="44.98255" lon="5.70285">
        <ele>737.7</ele>
        <time>2023-05-16T08:27:03.569Z</time>
      </trkpt>
      <trkpt lat="44.9823" lon="5.70287">
        <ele>738.2</ele>
        <time>2023-05-16T08:27:13.319Z</time>
      </trkpt>
      <trkpt lat="44.98085" lon="5.70344">
        <ele>747.8</ele>
        <time>2023-05-16T08:28:20.872Z</time>
      </trkpt>
      <trkpt lat="44.98058" lon="5.70347">
        <ele>749.7</ele>
        <time>2023-05-16T08:28:33.290Z</time>
      </trkpt>
      <trkpt lat="44.98027" lon="5.70343">
        <ele>750.8</ele>
        <time>2023-05-16T08:28:46.019Z</time>
      </trkpt>
      <trkpt lat="44.97999" lon="5.70345">
        <ele>752.5</ele>
        <time>2023-05-16T08:28:58.472Z</time>
      </trkpt>
      <trkpt lat="44.97936" lon="5.70368">
        <ele>755.6</ele>
        <time>2023-05-16T08:29:26.162Z</time>
      </trkpt>
      <trkpt lat="44.97914" lon="5.70372">
        <ele>756.3</ele>
        <time>2023-05-16T08:29:35.123Z</time>
      </trkpt>
      <trkpt lat="44.9787" lon="5.70372">
        <ele>758.9</ele>
        <time>2023-05-16T08:29:54.567Z</time>
      </trkpt>
      <trkpt lat="44.9785" lon="5.70366">
        <ele>759.5</ele>
        <time>2023-05-16T08:30:02.769Z</time>
      </trkpt>
      <trkpt lat="44.9782" lon="5.70366">
        <ele>760.9</ele>
        <time>2023-05-16T08:30:15.495Z</time>
      </trkpt>
      <trkpt lat="44.97794" lon="5.70357">
        <ele>760.8</ele>
        <time>2023-05-16T08:30:25.177Z</time>
      </trkpt>
      <trkpt lat="44.97665" lon="5.70348">
        <ele>766</ele>
        <time>2023-05-16T08:31:18.838Z</time>
      </trkpt>
      <trkpt lat="44.97613" lon="5.70352">
        <ele>772.5</ele>
        <time>2023-05-16T08:31:47.716Z</time>
      </trkpt>
      <trkpt lat="44.97585" lon="5.70346">
        <ele>775.4</ele>
        <time>2023-05-16T08:32:02.219Z</time>
      </trkpt>
      <trkpt lat="44.97579" lon="5.70338">
        <ele>775.2</ele>
        <time>2023-05-16T08:32:05.023Z</time>
      </trkpt>
      <trkpt lat="44.97576" lon="5.70285">
        <ele>769.6</ele>
        <time>2023-05-16T08:32:17.065Z</time>
      </trkpt>
      <trkpt lat="44.9758" lon="5.70268">
        <ele>767.4</ele>
        <time>2023-05-16T08:32:21.122Z</time>
      </trkpt>
      <trkpt lat="44.97576" lon="5.7022">
        <ele>764.6</ele>
        <time>2023-05-16T08:32:32.068Z</time>
      </trkpt>
      <trkpt lat="44.97575" lon="5.70164">
        <ele>762.6</ele>
        <time>2023-05-16T08:32:44.755Z</time>
      </trkpt>
      <trkpt lat="44.97599" lon="5.69969">
        <ele>756.4</ele>
        <time>2023-05-16T08:33:29.620Z</time>
      </trkpt>
      <trkpt lat="44.97618" lon="5.69906">
        <ele>754</ele>
        <time>2023-05-16T08:33:45.130Z</time>
      </trkpt>
      <trkpt lat="44.97616" lon="5.69887">
        <ele>753.3</ele>
        <time>2023-05-16T08:33:49.481Z</time>
      </trkpt>
      <trkpt lat="44.97619" lon="5.69877">
        <ele>752.6</ele>
        <time>2023-05-16T08:33:51.941Z</time>
      </trkpt>
      <trkpt lat="44.97622" lon="5.6982">
        <ele>749.9</ele>
        <time>2023-05-16T08:34:04.885Z</time>
      </trkpt>
      <trkpt lat="44.97605" lon="5.69741">
        <ele>750.9</ele>
        <time>2023-05-16T08:34:27.427Z</time>
      </trkpt>
      <trkpt lat="44.976" lon="5.6973">
        <ele>753</ele>
        <time>2023-05-16T08:34:35.001Z</time>
      </trkpt>
      <trkpt lat="44.97599" lon="5.69719">
        <ele>754.7</ele>
        <time>2023-05-16T08:34:41.165Z</time>
      </trkpt>
      <trkpt lat="44.97607" lon="5.69707">
        <ele>755.5</ele>
        <time>2023-05-16T08:34:46.485Z</time>
      </trkpt>
      <trkpt lat="44.97659" lon="5.69668">
        <ele>754.7</ele>
        <time>2023-05-16T08:35:07.148Z</time>
      </trkpt>
      <trkpt lat="44.9771" lon="5.69597">
        <ele>765.4</ele>
        <time>2023-05-16T08:35:50.579Z</time>
      </trkpt>
      <trkpt lat="44.97717" lon="5.69577">
        <ele>770</ele>
        <time>2023-05-16T08:36:07.416Z</time>
      </trkpt>
      <trkpt lat="44.97736" lon="5.69546">
        <ele>776.4</ele>
        <time>2023-05-16T08:36:30.567Z</time>
      </trkpt>
      <trkpt lat="44.97751" lon="5.69528">
        <ele>778.7</ele>
        <time>2023-05-16T08:36:41.173Z</time>
      </trkpt>
      <trkpt lat="44.97759" lon="5.69511">
        <ele>782</ele>
        <time>2023-05-16T08:36:53.068Z</time>
      </trkpt>
      <trkpt lat="44.97819" lon="5.69432">
        <ele>790.1</ele>
        <time>2023-05-16T08:37:34.534Z</time>
      </trkpt>
      <trkpt lat="44.97838" lon="5.69402">
        <ele>794.8</ele>
        <time>2023-05-16T08:37:52.849Z</time>
      </trkpt>
      <trkpt lat="44.97862" lon="5.69379">
        <ele>797.5</ele>
        <time>2023-05-16T08:38:07.226Z</time>
      </trkpt>
      <trkpt lat="44.97813" lon="5.69416">
        <ele>796.6</ele>
        <time>2023-05-16T08:38:26.573Z</time>
      </trkpt>
      <trkpt lat="44.97709" lon="5.69514">
        <ele>793.5</ele>
        <time>2023-05-16T08:39:08.991Z</time>
      </trkpt>
      <trkpt lat="44.97657" lon="5.69542">
        <ele>795.2</ele>
        <time>2023-05-16T08:39:31.399Z</time>
      </trkpt>
      <trkpt lat="44.97596" lon="5.69586">
        <ele>789.2</ele>
        <time>2023-05-16T08:39:53.323Z</time>
      </trkpt>
      <trkpt lat="44.97522" lon="5.696">
        <ele>788.7</ele>
        <time>2023-05-16T08:40:20.085Z</time>
      </trkpt>
      <trkpt lat="44.97508" lon="5.69589">
        <ele>792.7</ele>
        <time>2023-05-16T08:40:34.464Z</time>
      </trkpt>
      <trkpt lat="44.97468" lon="5.69574">
        <ele>796.3</ele>
        <time>2023-05-16T08:40:54.556Z</time>
      </trkpt>
      <trkpt lat="44.97442" lon="5.6956">
        <ele>799.3</ele>
        <time>2023-05-16T08:41:09.079Z</time>
      </trkpt>
      <trkpt lat="44.97417" lon="5.69541">
        <ele>803.7</ele>
        <time>2023-05-16T08:41:26.659Z</time>
      </trkpt>
      <trkpt lat="44.97404" lon="5.69539">
        <ele>803.6</ele>
        <time>2023-05-16T08:41:31.332Z</time>
      </trkpt>
      <trkpt lat="44.97378" lon="5.69523">
        <ele>807</ele>
        <time>2023-05-16T08:41:46.782Z</time>
      </trkpt>
      <trkpt lat="44.97368" lon="5.69509">
        <ele>810.7</ele>
        <time>2023-05-16T08:42:00.119Z</time>
      </trkpt>
      <trkpt lat="44.97345" lon="5.69488">
        <ele>815.9</ele>
        <time>2023-05-16T08:42:19.483Z</time>
      </trkpt>
      <trkpt lat="44.97303" lon="5.69484">
        <ele>814.6</ele>
        <time>2023-05-16T08:42:33.513Z</time>
      </trkpt>
      <trkpt lat="44.9729" lon="5.69478">
        <ele>815.6</ele>
        <time>2023-05-16T08:42:39.847Z</time>
      </trkpt>
      <trkpt lat="44.97271" lon="5.69448">
        <ele>821.9</ele>
        <time>2023-05-16T08:43:02.629Z</time>
      </trkpt>
      <trkpt lat="44.97264" lon="5.69431">
        <ele>825.3</ele>
        <time>2023-05-16T08:43:14.849Z</time>
      </trkpt>
      <trkpt lat="44.9727" lon="5.69427">
        <ele>827.2</ele>
        <time>2023-05-16T08:43:21.779Z</time>
      </trkpt>
      <trkpt lat="44.9726" lon="5.69426">
        <ele>826.1</ele>
        <time>2023-05-16T08:43:24.989Z</time>
      </trkpt>
      <trkpt lat="44.97243" lon="5.69412">
        <ele>825.7</ele>
        <time>2023-05-16T08:43:31.756Z</time>
      </trkpt>
      <trkpt lat="44.97235" lon="5.69418">
        <ele>826.9</ele>
        <time>2023-05-16T08:43:36.919Z</time>
      </trkpt>
      <trkpt lat="44.97217" lon="5.6942">
        <ele>826.7</ele>
        <time>2023-05-16T08:43:43.306Z</time>
      </trkpt>
      <trkpt lat="44.97209" lon="5.69417">
        <ele>827.4</ele>
        <time>2023-05-16T08:43:47.291Z</time>
      </trkpt>
      <trkpt lat="44.97171" lon="5.69418">
        <ele>827.7</ele>
        <time>2023-05-16T08:44:01.541Z</time>
      </trkpt>
      <trkpt lat="44.97134" lon="5.69403">
        <ele>823.1</ele>
        <time>2023-05-16T08:44:13.864Z</time>
      </trkpt>
      <trkpt lat="44.97122" lon="5.69404">
        <ele>823.5</ele>
        <time>2023-05-16T08:44:18.747Z</time>
      </trkpt>
      <trkpt lat="44.97066" lon="5.69376">
        <ele>814.2</ele>
        <time>2023-05-16T08:44:37.764Z</time>
      </trkpt>
      <trkpt lat="44.97048" lon="5.69372">
        <ele>813.5</ele>
        <time>2023-05-16T08:44:43.703Z</time>
      </trkpt>
      <trkpt lat="44.97" lon="5.6938">
        <ele>816.5</ele>
        <time>2023-05-16T08:45:05.274Z</time>
      </trkpt>
      <trkpt lat="44.96884" lon="5.69345">
        <ele>826.5</ele>
        <time>2023-05-16T08:46:02.334Z</time>
      </trkpt>
      <trkpt lat="44.96858" lon="5.69348">
        <ele>828.6</ele>
        <time>2023-05-16T08:46:14.722Z</time>
      </trkpt>
      <trkpt lat="44.96749" lon="5.69331">
        <ele>824.2</ele>
        <time>2023-05-16T08:46:50.290Z</time>
      </trkpt>
      <trkpt lat="44.96682" lon="5.69329">
        <ele>835.3</ele>
        <time>2023-05-16T08:47:33.482Z</time>
      </trkpt>
      <trkpt lat="44.96632" lon="5.69323">
        <ele>831.5</ele>
        <time>2023-05-16T08:47:49.547Z</time>
      </trkpt>
      <trkpt lat="44.96568" lon="5.69327">
        <ele>823.2</ele>
        <time>2023-05-16T08:48:10.057Z</time>
      </trkpt>
      <trkpt lat="44.96563" lon="5.6933">
        <ele>822.4</ele>
        <time>2023-05-16T08:48:11.796Z</time>
      </trkpt>
      <trkpt lat="44.96567" lon="5.69341">
        <ele>823</ele>
        <time>2023-05-16T08:48:15.787Z</time>
      </trkpt>
      <trkpt lat="44.96603" lon="5.69393">
        <ele>824.2</ele>
        <time>2023-05-16T08:48:36.043Z</time>
      </trkpt>
      <trkpt lat="44.96614" lon="5.69433">
        <ele>823.1</ele>
        <time>2023-05-16T08:48:46.005Z</time>
      </trkpt>
      <trkpt lat="44.96626" lon="5.69456">
        <ele>825.5</ele>
        <time>2023-05-16T08:48:56.973Z</time>
      </trkpt>
      <trkpt lat="44.96628" lon="5.6947">
        <ele>825.8</ele>
        <time>2023-05-16T08:49:01.032Z</time>
      </trkpt>
      <trkpt lat="44.96627" lon="5.69497">
        <ele>825.1</ele>
        <time>2023-05-16T08:49:07.301Z</time>
      </trkpt>
      <trkpt lat="44.96633" lon="5.69541">
        <ele>828.3</ele>
        <time>2023-05-16T08:49:23.454Z</time>
      </trkpt>
      <trkpt lat="44.96642" lon="5.69556">
        <ele>831</ele>
        <time>2023-05-16T08:49:33.454Z</time>
      </trkpt>
      <trkpt lat="44.96618" lon="5.69697">
        <ele>834.5</ele>
        <time>2023-05-16T08:50:15.247Z</time>
      </trkpt>
      <trkpt lat="44.96605" lon="5.69747">
        <ele>835.2</ele>
        <time>2023-05-16T08:50:29.858Z</time>
      </trkpt>
      <trkpt lat="44.96587" lon="5.69798">
        <ele>836</ele>
        <time>2023-05-16T08:50:45.553Z</time>
      </trkpt>
      <trkpt lat="44.96576" lon="5.69819">
        <ele>835</ele>
        <time>2023-05-16T08:50:51.472Z</time>
      </trkpt>
      <trkpt lat="44.96575" lon="5.69734">
        <ele>830</ele>
        <time>2023-05-16T08:51:10.728Z</time>
      </trkpt>
      <trkpt lat="44.96565" lon="5.69645">
        <ele>822</ele>
        <time>2023-05-16T08:51:31.141Z</time>
      </trkpt>
      <trkpt lat="44.96554" lon="5.69601">
        <ele>814.1</ele>
        <time>2023-05-16T08:51:41.711Z</time>
      </trkpt>
      <trkpt lat="44.96551" lon="5.69536">
        <ele>806.2</ele>
        <time>2023-05-16T08:51:56.466Z</time>
      </trkpt>
      <trkpt lat="44.96546" lon="5.69525">
        <ele>803.6</ele>
        <time>2023-05-16T08:51:59.427Z</time>
      </trkpt>
      <trkpt lat="44.96535" lon="5.69527">
        <ele>800.7</ele>
        <time>2023-05-16T08:52:02.978Z</time>
      </trkpt>
      <trkpt lat="44.96524" lon="5.69538">
        <ele>799</ele>
        <time>2023-05-16T08:52:07.292Z</time>
      </trkpt>
      <trkpt lat="44.96505" lon="5.69549">
        <ele>795.4</ele>
        <time>2023-05-16T08:52:13.865Z</time>
      </trkpt>
      <trkpt lat="44.96473" lon="5.69578">
        <ele>792</ele>
        <time>2023-05-16T08:52:26.035Z</time>
      </trkpt>
      <trkpt lat="44.96443" lon="5.69641">
        <ele>790.1</ele>
        <time>2023-05-16T08:52:43.708Z</time>
      </trkpt>
      <trkpt lat="44.96442" lon="5.69679">
        <ele>791.6</ele>
        <time>2023-05-16T08:52:55.467Z</time>
      </trkpt>
      <trkpt lat="44.9645" lon="5.69701">
        <ele>794.2</ele>
        <time>2023-05-16T08:53:06.050Z</time>
      </trkpt>
      <trkpt lat="44.96455" lon="5.69775">
        <ele>796.5</ele>
        <time>2023-05-16T08:53:28.149Z</time>
      </trkpt>
      <trkpt lat="44.96462" lon="5.69802">
        <ele>799.5</ele>
        <time>2023-05-16T08:53:40.402Z</time>
      </trkpt>
      <trkpt lat="44.96463" lon="5.69834">
        <ele>800.7</ele>
        <time>2023-05-16T08:53:50.216Z</time>
      </trkpt>
      <trkpt lat="44.96455" lon="5.69872">
        <ele>799.9</ele>
        <time>2023-05-16T08:53:59.631Z</time>
      </trkpt>
      <trkpt lat="44.96443" lon="5.69904">
        <ele>797.5</ele>
        <time>2023-05-16T08:54:07.835Z</time>
      </trkpt>
      <trkpt lat="44.9643" lon="5.69952">
        <ele>799.1</ele>
        <time>2023-05-16T08:54:23.128Z</time>
      </trkpt>
      <trkpt lat="44.96421" lon="5.69969">
        <ele>798.6</ele>
        <time>2023-05-16T08:54:28.100Z</time>
      </trkpt>
      <trkpt lat="44.96413" lon="5.69997">
        <ele>800.6</ele>
        <time>2023-05-16T08:54:38.712Z</time>
      </trkpt>
      <trkpt lat="44.964" lon="5.70024">
        <ele>800.5</ele>
        <time>2023-05-16T08:54:47.055Z</time>
      </trkpt>
      <trkpt lat="44.96398" lon="5.70002">
        <ele>797.7</ele>
        <time>2023-05-16T08:54:52.080Z</time>
      </trkpt>
      <trkpt lat="44.96389" lon="5.69997">
        <ele>794.8</ele>
        <time>2023-05-16T08:54:55.176Z</time>
      </trkpt>
      <trkpt lat="44.96379" lon="5.69999">
        <ele>792.8</ele>
        <time>2023-05-16T08:54:58.409Z</time>
      </trkpt>
      <trkpt lat="44.96365" lon="5.70009">
        <ele>790.5</ele>
        <time>2023-05-16T08:55:03.431Z</time>
      </trkpt>
      <trkpt lat="44.96354" lon="5.70026">
        <ele>789.5</ele>
        <time>2023-05-16T08:55:08.649Z</time>
      </trkpt>
      <trkpt lat="44.96333" lon="5.70076">
        <ele>789.2</ele>
        <time>2023-05-16T08:55:23.370Z</time>
      </trkpt>
      <trkpt lat="44.96301" lon="5.7011">
        <ele>787.1</ele>
        <time>2023-05-16T08:55:36.186Z</time>
      </trkpt>
      <trkpt lat="44.96234" lon="5.70157">
        <ele>780.1</ele>
        <time>2023-05-16T08:56:00.133Z</time>
      </trkpt>
      <trkpt lat="44.96209" lon="5.70165">
        <ele>776.3</ele>
        <time>2023-05-16T08:56:08.340Z</time>
      </trkpt>
      <trkpt lat="44.96175" lon="5.70182">
        <ele>773.7</ele>
        <time>2023-05-16T08:56:19.886Z</time>
      </trkpt>
      <trkpt lat="44.96148" lon="5.70188">
        <ele>772.4</ele>
        <time>2023-05-16T08:56:28.636Z</time>
      </trkpt>
      <trkpt lat="44.96125" lon="5.70187">
        <ele>770.4</ele>
        <time>2023-05-16T08:56:36.003Z</time>
      </trkpt>
      <trkpt lat="44.96074" lon="5.70203">
        <ele>771.5</ele>
        <time>2023-05-16T08:56:56.415Z</time>
      </trkpt>
      <trkpt lat="44.96051" lon="5.70201">
        <ele>771.8</ele>
        <time>2023-05-16T08:57:05.194Z</time>
      </trkpt>
      <trkpt lat="44.96021" lon="5.7016">
        <ele>763.2</ele>
        <time>2023-05-16T08:57:18.554Z</time>
      </trkpt>
      <trkpt lat="44.96003" lon="5.70152">
        <ele>762.9</ele>
        <time>2023-05-16T08:57:25.132Z</time>
      </trkpt>
      <trkpt lat="44.95975" lon="5.70152">
        <ele>762.4</ele>
        <time>2023-05-16T08:57:34.834Z</time>
      </trkpt>
      <trkpt lat="44.95912" lon="5.70144">
        <ele>758.2</ele>
        <time>2023-05-16T08:57:55.085Z</time>
      </trkpt>
      <trkpt lat="44.95891" lon="5.70128">
        <ele>753</ele>
        <time>2023-05-16T08:58:02.723Z</time>
      </trkpt>
      <trkpt lat="44.95856" lon="5.70122">
        <ele>750.6</ele>
        <time>2023-05-16T08:58:14.010Z</time>
      </trkpt>
      <trkpt lat="44.95831" lon="5.70105">
        <ele>746.3</ele>
        <time>2023-05-16T08:58:22.892Z</time>
      </trkpt>
      <trkpt lat="44.95827" lon="5.70097">
        <ele>743.9</ele>
        <time>2023-05-16T08:58:25.111Z</time>
      </trkpt>
      <trkpt lat="44.95827" lon="5.70078">
        <ele>739.9</ele>
        <time>2023-05-16T08:58:29.416Z</time>
      </trkpt>
      <trkpt lat="44.95819" lon="5.70062">
        <ele>733.5</ele>
        <time>2023-05-16T08:58:33.854Z</time>
      </trkpt>
      <trkpt lat="44.95811" lon="5.70057">
        <ele>730.4</ele>
        <time>2023-05-16T08:58:36.655Z</time>
      </trkpt>
      <trkpt lat="44.95804" lon="5.7004">
        <ele>724.4</ele>
        <time>2023-05-16T08:58:41.110Z</time>
      </trkpt>
      <trkpt lat="44.95796" lon="5.70037">
        <ele>722.1</ele>
        <time>2023-05-16T08:58:43.760Z</time>
      </trkpt>
      <trkpt lat="44.95795" lon="5.70031">
        <ele>720.4</ele>
        <time>2023-05-16T08:58:45.157Z</time>
      </trkpt>
      <trkpt lat="44.95785" lon="5.7002">
        <ele>715.9</ele>
        <time>2023-05-16T08:58:49.214Z</time>
      </trkpt>
      <trkpt lat="44.95777" lon="5.70017">
        <ele>713.9</ele>
        <time>2023-05-16T08:58:51.863Z</time>
      </trkpt>
      <trkpt lat="44.95772" lon="5.70004">
        <ele>710.1</ele>
        <time>2023-05-16T08:58:55.216Z</time>
      </trkpt>
      <trkpt lat="44.95764" lon="5.70001">
        <ele>708.2</ele>
        <time>2023-05-16T08:58:57.865Z</time>
      </trkpt>
      <trkpt lat="44.95753" lon="5.6999">
        <ele>699.5</ele>
        <time>2023-05-16T08:59:02.180Z</time>
      </trkpt>
      <trkpt lat="44.95732" lon="5.69982">
        <ele>690.6</ele>
        <time>2023-05-16T08:59:09.143Z</time>
      </trkpt>
      <trkpt lat="44.95717" lon="5.69971">
        <ele>682</ele>
        <time>2023-05-16T08:59:14.553Z</time>
      </trkpt>
      <trkpt lat="44.95715" lon="5.69963">
        <ele>677.5</ele>
        <time>2023-05-16T08:59:16.475Z</time>
      </trkpt>
      <trkpt lat="44.95717" lon="5.6996">
        <ele>676</ele>
        <time>2023-05-16T08:59:17.409Z</time>
      </trkpt>
      <trkpt lat="44.95737" lon="5.69959">
        <ele>677</ele>
        <time>2023-05-16T08:59:25.991Z</time>
      </trkpt>
      <trkpt lat="44.95785" lon="5.69938">
        <ele>665.5</ele>
        <time>2023-05-16T08:59:42.077Z</time>
      </trkpt>
      <trkpt lat="44.95804" lon="5.69943">
        <ele>670.4</ele>
        <time>2023-05-16T08:59:59.700Z</time>
      </trkpt>
      <trkpt lat="44.95816" lon="5.69959">
        <ele>683.6</ele>
        <time>2023-05-16T09:00:31.391Z</time>
      </trkpt>
      <trkpt lat="44.95825" lon="5.69964">
        <ele>688.3</ele>
        <time>2023-05-16T09:00:49.967Z</time>
      </trkpt>
      <trkpt lat="44.95866" lon="5.69967">
        <ele>692.7</ele>
        <time>2023-05-16T09:01:11.347Z</time>
      </trkpt>
      <trkpt lat="44.95909" lon="5.69958">
        <ele>687.9</ele>
        <time>2023-05-16T09:01:25.264Z</time>
      </trkpt>
      <trkpt lat="44.95919" lon="5.69968">
        <ele>695.3</ele>
        <time>2023-05-16T09:01:48.796Z</time>
      </trkpt>
      <trkpt lat="44.95922" lon="5.69958">
        <ele>688.3</ele>
        <time>2023-05-16T09:01:51.256Z</time>
      </trkpt>
      <trkpt lat="44.95921" lon="5.69947">
        <ele>680.6</ele>
        <time>2023-05-16T09:01:53.769Z</time>
      </trkpt>
      <trkpt lat="44.95908" lon="5.69937">
        <ele>672.8</ele>
        <time>2023-05-16T09:01:58.507Z</time>
      </trkpt>
      <trkpt lat="44.95899" lon="5.6994">
        <ele>674.3</ele>
        <time>2023-05-16T09:02:04.391Z</time>
      </trkpt>
      <trkpt lat="44.95791" lon="5.69902">
        <ele>636.8</ele>
        <time>2023-05-16T09:02:40.022Z</time>
      </trkpt>
      <trkpt lat="44.95769" lon="5.69902">
        <ele>636.7</ele>
        <time>2023-05-16T09:02:47.960Z</time>
      </trkpt>
      <trkpt lat="44.95748" lon="5.69909">
        <ele>642.8</ele>
        <time>2023-05-16T09:03:10.156Z</time>
      </trkpt>
      <trkpt lat="44.95715" lon="5.69932">
        <ele>660.9</ele>
        <time>2023-05-16T09:04:20.836Z</time>
      </trkpt>
      <trkpt lat="44.9567" lon="5.69977">
        <ele>678.1</ele>
        <time>2023-05-16T09:05:24.917Z</time>
      </trkpt>
      <trkpt lat="44.95636" lon="5.69998">
        <ele>680</ele>
        <time>2023-05-16T09:05:40.893Z</time>
      </trkpt>
      <trkpt lat="44.95614" lon="5.70005">
        <ele>678.5</ele>
        <time>2023-05-16T09:05:48.113Z</time>
      </trkpt>
      <trkpt lat="44.95593" lon="5.70004">
        <ele>675.3</ele>
        <time>2023-05-16T09:05:54.840Z</time>
      </trkpt>
      <trkpt lat="44.95572" lon="5.69997">
        <ele>674.9</ele>
        <time>2023-05-16T09:06:02.301Z</time>
      </trkpt>
      <trkpt lat="44.95558" lon="5.69977">
        <ele>673.2</ele>
        <time>2023-05-16T09:06:08.674Z</time>
      </trkpt>
      <trkpt lat="44.95548" lon="5.69975">
        <ele>674.9</ele>
        <time>2023-05-16T09:06:15.250Z</time>
      </trkpt>
      <trkpt lat="44.95534" lon="5.69965">
        <ele>675.6</ele>
        <time>2023-05-16T09:06:21.861Z</time>
      </trkpt>
      <trkpt lat="44.95507" lon="5.6996">
        <ele>680.4</ele>
        <time>2023-05-16T09:06:40.134Z</time>
      </trkpt>
      <trkpt lat="44.95498" lon="5.69939">
        <ele>676.5</ele>
        <time>2023-05-16T09:06:45.696Z</time>
      </trkpt>
      <trkpt lat="44.95488" lon="5.69937">
        <ele>675.3</ele>
        <time>2023-05-16T09:06:48.930Z</time>
      </trkpt>
      <trkpt lat="44.9547" lon="5.69943">
        <ele>675.2</ele>
        <time>2023-05-16T09:06:55.585Z</time>
      </trkpt>
      <trkpt lat="44.95429" lon="5.6992">
        <ele>668.9</ele>
        <time>2023-05-16T09:07:09.708Z</time>
      </trkpt>
      <trkpt lat="44.95411" lon="5.69914">
        <ele>664.4</ele>
        <time>2023-05-16T09:07:15.628Z</time>
      </trkpt>
      <trkpt lat="44.95416" lon="5.69905">
        <ele>664.9</ele>
        <time>2023-05-16T09:07:19.238Z</time>
      </trkpt>
      <trkpt lat="44.95413" lon="5.69898">
        <ele>661.7</ele>
        <time>2023-05-16T09:07:21.092Z</time>
      </trkpt>
      <trkpt lat="44.95415" lon="5.69891">
        <ele>661</ele>
        <time>2023-05-16T09:07:22.803Z</time>
      </trkpt>
      <trkpt lat="44.95412" lon="5.6988">
        <ele>657</ele>
        <time>2023-05-16T09:07:25.474Z</time>
      </trkpt>
      <trkpt lat="44.95443" lon="5.69846">
        <ele>649.6</ele>
        <time>2023-05-16T09:07:38.037Z</time>
      </trkpt>
      <trkpt lat="44.95438" lon="5.69837">
        <ele>647.4</ele>
        <time>2023-05-16T09:07:40.629Z</time>
      </trkpt>
      <trkpt lat="44.9537" lon="5.69818">
        <ele>622</ele>
        <time>2023-05-16T09:08:02.821Z</time>
      </trkpt>
      <trkpt lat="44.95342" lon="5.69829">
        <ele>614.8</ele>
        <time>2023-05-16T09:08:12.125Z</time>
      </trkpt>
      <trkpt lat="44.95329" lon="5.6984">
        <ele>611.4</ele>
        <time>2023-05-16T09:08:16.976Z</time>
      </trkpt>
      <trkpt lat="44.95319" lon="5.69855">
        <ele>607.3</ele>
        <time>2023-05-16T09:08:21.645Z</time>
      </trkpt>
      <trkpt lat="44.95316" lon="5.69855">
        <ele>605.6</ele>
        <time>2023-05-16T09:08:22.605Z</time>
      </trkpt>
      <trkpt lat="44.95312" lon="5.69868">
        <ele>604.6</ele>
        <time>2023-05-16T09:08:25.817Z</time>
      </trkpt>
      <trkpt lat="44.95308" lon="5.6987">
        <ele>602.4</ele>
        <time>2023-05-16T09:08:27.175Z</time>
      </trkpt>
      <trkpt lat="44.953" lon="5.69843">
        <ele>594.8</ele>
        <time>2023-05-16T09:08:33.807Z</time>
      </trkpt>
      <trkpt lat="44.95293" lon="5.69842">
        <ele>590.6</ele>
        <time>2023-05-16T09:08:36.060Z</time>
      </trkpt>
      <trkpt lat="44.95296" lon="5.69805">
        <ele>582.9</ele>
        <time>2023-05-16T09:08:44.497Z</time>
      </trkpt>
      <trkpt lat="44.95293" lon="5.698">
        <ele>580</ele>
        <time>2023-05-16T09:08:45.982Z</time>
      </trkpt>
      <trkpt lat="44.95292" lon="5.6976">
        <ele>568</ele>
        <time>2023-05-16T09:08:55.051Z</time>
      </trkpt>
      <trkpt lat="44.95279" lon="5.69761">
        <ele>563.8</ele>
        <time>2023-05-16T09:08:59.219Z</time>
      </trkpt>
      <trkpt lat="44.95279" lon="5.69756">
        <ele>562.5</ele>
        <time>2023-05-16T09:09:00.352Z</time>
      </trkpt>
      <trkpt lat="44.95225" lon="5.69795">
        <ele>558.2</ele>
        <time>2023-05-16T09:09:19.767Z</time>
      </trkpt>
      <trkpt lat="44.95218" lon="5.69812">
        <ele>558.8</ele>
        <time>2023-05-16T09:09:25.603Z</time>
      </trkpt>
      <trkpt lat="44.95221" lon="5.698">
        <ele>558.3</ele>
        <time>2023-05-16T09:09:28.487Z</time>
      </trkpt>
      <trkpt lat="44.9522" lon="5.69805">
        <ele>558.6</ele>
        <time>2023-05-16T09:09:30.239Z</time>
      </trkpt>
      <trkpt lat="44.95217" lon="5.69803">
        <ele>558.3</ele>
        <time>2023-05-16T09:09:31.301Z</time>
      </trkpt>
      <trkpt lat="44.95212" lon="5.69814">
        <ele>558.4</ele>
        <time>2023-05-16T09:09:34.802Z</time>
      </trkpt>
      <trkpt lat="44.95213" lon="5.69834">
        <ele>559.3</ele>
        <time>2023-05-16T09:09:41.163Z</time>
      </trkpt>
      <trkpt lat="44.95217" lon="5.69849">
        <ele>560.6</ele>
        <time>2023-05-16T09:09:47.228Z</time>
      </trkpt>
      <trkpt lat="44.95215" lon="5.69866">
        <ele>561.2</ele>
        <time>2023-05-16T09:09:52.445Z</time>
      </trkpt>
      <trkpt lat="44.95219" lon="5.69884">
        <ele>562.8</ele>
        <time>2023-05-16T09:09:59.718Z</time>
      </trkpt>
      <trkpt lat="44.95217" lon="5.69908">
        <ele>563.6</ele>
        <time>2023-05-16T09:10:06.975Z</time>
      </trkpt>
      <trkpt lat="44.95219" lon="5.69918">
        <ele>564.5</ele>
        <time>2023-05-16T09:10:11.018Z</time>
      </trkpt>
      <trkpt lat="44.95216" lon="5.69926">
        <ele>564.5</ele>
        <time>2023-05-16T09:10:13.362Z</time>
      </trkpt>
      <trkpt lat="44.95218" lon="5.69966">
        <ele>567.5</ele>
        <time>2023-05-16T09:10:28.065Z</time>
      </trkpt>
      <trkpt lat="44.95233" lon="5.70005">
        <ele>571.2</ele>
        <time>2023-05-16T09:10:45.051Z</time>
      </trkpt>
      <trkpt lat="44.95248" lon="5.7002">
        <ele>573.3</ele>
        <time>2023-05-16T09:10:54.865Z</time>
      </trkpt>
      <trkpt lat="44.95249" lon="5.70052">
        <ele>575.7</ele>
        <time>2023-05-16T09:11:06.616Z</time>
      </trkpt>
      <trkpt lat="44.9524" lon="5.70084">
        <ele>578.1</ele>
        <time>2023-05-16T09:11:18.927Z</time>
      </trkpt>
      <trkpt lat="44.95234" lon="5.70096">
        <ele>579.1</ele>
        <time>2023-05-16T09:11:24.138Z</time>
      </trkpt>
      <trkpt lat="44.95228" lon="5.70126">
        <ele>581.7</ele>
        <time>2023-05-16T09:11:36.070Z</time>
      </trkpt>
      <trkpt lat="44.95229" lon="5.70176">
        <ele>585</ele>
        <time>2023-05-16T09:11:53.630Z</time>
      </trkpt>
      <trkpt lat="44.95227" lon="5.70184">
        <ele>584.9</ele>
        <time>2023-05-16T09:11:55.718Z</time>
      </trkpt>
      <trkpt lat="44.95232" lon="5.70208">
        <ele>584</ele>
        <time>2023-05-16T09:12:01.386Z</time>
      </trkpt>
      <trkpt lat="44.95234" lon="5.70236">
        <ele>582.9</ele>
        <time>2023-05-16T09:12:07.762Z</time>
      </trkpt>
      <trkpt lat="44.95241" lon="5.70267">
        <ele>580.7</ele>
        <time>2023-05-16T09:12:15.135Z</time>
      </trkpt>
      <trkpt lat="44.95241" lon="5.70277">
        <ele>580.2</ele>
        <time>2023-05-16T09:12:17.401Z</time>
      </trkpt>
      <trkpt lat="44.95255" lon="5.70335">
        <ele>577.5</ele>
        <time>2023-05-16T09:12:31.285Z</time>
      </trkpt>
      <trkpt lat="44.95251" lon="5.70347">
        <ele>574.4</ele>
        <time>2023-05-16T09:12:34.290Z</time>
      </trkpt>
      <trkpt lat="44.95247" lon="5.7035">
        <ele>574.6</ele>
        <time>2023-05-16T09:12:36.196Z</time>
      </trkpt>
      <trkpt lat="44.95239" lon="5.70348">
        <ele>577.5</ele>
        <time>2023-05-16T09:12:47.567Z</time>
      </trkpt>
      <trkpt lat="44.95233" lon="5.70351">
        <ele>579.3</ele>
        <time>2023-05-16T09:12:54.117Z</time>
      </trkpt>
      <trkpt lat="44.95231" lon="5.70356">
        <ele>579.8</ele>
        <time>2023-05-16T09:12:56.357Z</time>
      </trkpt>
      <trkpt lat="44.95234" lon="5.70365">
        <ele>578.2</ele>
        <time>2023-05-16T09:12:58.611Z</time>
      </trkpt>
      <trkpt lat="44.95235" lon="5.70388">
        <ele>576.5</ele>
        <time>2023-05-16T09:13:03.832Z</time>
      </trkpt>
      <trkpt lat="44.95242" lon="5.7041">
        <ele>572.1</ele>
        <time>2023-05-16T09:13:09.297Z</time>
      </trkpt>
      <trkpt lat="44.95241" lon="5.70438">
        <ele>572.6</ele>
        <time>2023-05-16T09:13:17.151Z</time>
      </trkpt>
      <trkpt lat="44.95235" lon="5.70455">
        <ele>575.9</ele>
        <time>2023-05-16T09:13:29.012Z</time>
      </trkpt>
      <trkpt lat="44.95229" lon="5.70493">
        <ele>580.1</ele>
        <time>2023-05-16T09:13:45.914Z</time>
      </trkpt>
      <trkpt lat="44.95228" lon="5.70524">
        <ele>582.6</ele>
        <time>2023-05-16T09:13:57.623Z</time>
      </trkpt>
      <trkpt lat="44.95235" lon="5.70552">
        <ele>580.7</ele>
        <time>2023-05-16T09:14:04.351Z</time>
      </trkpt>
      <trkpt lat="44.95233" lon="5.70553">
        <ele>581.9</ele>
        <time>2023-05-16T09:14:08.427Z</time>
      </trkpt>
      <trkpt lat="44.95228" lon="5.70543">
        <ele>584</ele>
        <time>2023-05-16T09:14:15.975Z</time>
      </trkpt>
      <trkpt lat="44.9522" lon="5.70541">
        <ele>588.4</ele>
        <time>2023-05-16T09:14:31.581Z</time>
      </trkpt>
      <trkpt lat="44.95229" lon="5.70582">
        <ele>586.3</ele>
        <time>2023-05-16T09:14:41.307Z</time>
      </trkpt>
      <trkpt lat="44.95225" lon="5.70583">
        <ele>588.7</ele>
        <time>2023-05-16T09:14:49.110Z</time>
      </trkpt>
      <trkpt lat="44.95248" lon="5.70652">
        <ele>580.8</ele>
        <time>2023-05-16T09:15:06.390Z</time>
      </trkpt>
      <trkpt lat="44.95247" lon="5.70694">
        <ele>584.3</ele>
        <time>2023-05-16T09:15:22.466Z</time>
      </trkpt>
      <trkpt lat="44.9526" lon="5.70737">
        <ele>585.9</ele>
        <time>2023-05-16T09:15:36.581Z</time>
      </trkpt>
      <trkpt lat="44.95259" lon="5.70751">
        <ele>586.8</ele>
        <time>2023-05-16T09:15:41.472Z</time>
      </trkpt>
      <trkpt lat="44.95254" lon="5.7076">
        <ele>587.5</ele>
        <time>2023-05-16T09:15:45.396Z</time>
      </trkpt>
      <trkpt lat="44.95225" lon="5.70782">
        <ele>596.5</ele>
        <time>2023-05-16T09:16:17.975Z</time>
      </trkpt>
      <trkpt lat="44.95202" lon="5.7081">
        <ele>603.8</ele>
        <time>2023-05-16T09:16:44.218Z</time>
      </trkpt>
      <trkpt lat="44.95196" lon="5.70826">
        <ele>605.6</ele>
        <time>2023-05-16T09:16:51.739Z</time>
      </trkpt>
      <trkpt lat="44.9519" lon="5.7087">
        <ele>608.3</ele>
        <time>2023-05-16T09:17:07.038Z</time>
      </trkpt>
      <trkpt lat="44.95191" lon="5.70882">
        <ele>608.5</ele>
        <time>2023-05-16T09:17:10.404Z</time>
      </trkpt>
      <trkpt lat="44.95188" lon="5.70905">
        <ele>609.8</ele>
        <time>2023-05-16T09:17:18.212Z</time>
      </trkpt>
      <trkpt lat="44.95191" lon="5.70915">
        <ele>609.6</ele>
        <time>2023-05-16T09:17:20.811Z</time>
      </trkpt>
      <trkpt lat="44.9519" lon="5.70935">
        <ele>610.5</ele>
        <time>2023-05-16T09:17:27.172Z</time>
      </trkpt>
      <trkpt lat="44.95184" lon="5.70958">
        <ele>612.3</ele>
        <time>2023-05-16T09:17:36.099Z</time>
      </trkpt>
      <trkpt lat="44.95185" lon="5.70965">
        <ele>612.4</ele>
        <time>2023-05-16T09:17:38.066Z</time>
      </trkpt>
      <trkpt lat="44.95178" lon="5.70988">
        <ele>614.1</ele>
        <time>2023-05-16T09:17:46.938Z</time>
      </trkpt>
      <trkpt lat="44.95173" lon="5.71036">
        <ele>614.4</ele>
        <time>2023-05-16T09:17:59.845Z</time>
      </trkpt>
      <trkpt lat="44.95151" lon="5.71061">
        <ele>617.3</ele>
        <time>2023-05-16T09:18:14.320Z</time>
      </trkpt>
      <trkpt lat="44.95133" lon="5.711">
        <ele>618.9</ele>
        <time>2023-05-16T09:18:28.385Z</time>
      </trkpt>
      <trkpt lat="44.95131" lon="5.71123">
        <ele>618.7</ele>
        <time>2023-05-16T09:18:34.166Z</time>
      </trkpt>
      <trkpt lat="44.95127" lon="5.71126">
        <ele>619.2</ele>
        <time>2023-05-16T09:18:36.551Z</time>
      </trkpt>
      <trkpt lat="44.95121" lon="5.71122">
        <ele>620.2</ele>
        <time>2023-05-16T09:18:40.595Z</time>
      </trkpt>
      <trkpt lat="44.95126" lon="5.71093">
        <ele>620.1</ele>
        <time>2023-05-16T09:18:48.213Z</time>
      </trkpt>
      <trkpt lat="44.95129" lon="5.71089">
        <ele>619.7</ele>
        <time>2023-05-16T09:18:49.533Z</time>
      </trkpt>
      <trkpt lat="44.9513" lon="5.71055">
        <ele>621.3</ele>
        <time>2023-05-16T09:19:00.439Z</time>
      </trkpt>
      <trkpt lat="44.95136" lon="5.71035">
        <ele>621.2</ele>
        <time>2023-05-16T09:19:05.953Z</time>
      </trkpt>
      <trkpt lat="44.95147" lon="5.71019">
        <ele>619.7</ele>
        <time>2023-05-16T09:19:11.007Z</time>
      </trkpt>
      <trkpt lat="44.95149" lon="5.71008">
        <ele>619.7</ele>
        <time>2023-05-16T09:19:13.948Z</time>
      </trkpt>
      <trkpt lat="44.95147" lon="5.71002">
        <ele>620.4</ele>
        <time>2023-05-16T09:19:16.792Z</time>
      </trkpt>
      <trkpt lat="44.95125" lon="5.70978">
        <ele>625.5</ele>
        <time>2023-05-16T09:19:35.967Z</time>
      </trkpt>
      <trkpt lat="44.95125" lon="5.70969">
        <ele>625.5</ele>
        <time>2023-05-16T09:19:38.297Z</time>
      </trkpt>
      <trkpt lat="44.95131" lon="5.70947">
        <ele>623.9</ele>
        <time>2023-05-16T09:19:43.639Z</time>
      </trkpt>
      <trkpt lat="44.95131" lon="5.70913">
        <ele>624</ele>
        <time>2023-05-16T09:19:52.557Z</time>
      </trkpt>
      <trkpt lat="44.95126" lon="5.70875">
        <ele>627.9</ele>
        <time>2023-05-16T09:20:08.736Z</time>
      </trkpt>
      <trkpt lat="44.95125" lon="5.708">
        <ele>635.2</ele>
        <time>2023-05-16T09:20:39.560Z</time>
      </trkpt>
      <trkpt lat="44.95128" lon="5.70729">
        <ele>642.1</ele>
        <time>2023-05-16T09:21:08.740Z</time>
      </trkpt>
      <trkpt lat="44.95122" lon="5.70696">
        <ele>649.9</ele>
        <time>2023-05-16T09:21:38.143Z</time>
      </trkpt>
      <trkpt lat="44.95122" lon="5.70661">
        <ele>653.7</ele>
        <time>2023-05-16T09:21:53.393Z</time>
      </trkpt>
      <trkpt lat="44.95118" lon="5.70643">
        <ele>657.3</ele>
        <time>2023-05-16T09:22:06.402Z</time>
      </trkpt>
      <trkpt lat="44.95118" lon="5.70606">
        <ele>659.2</ele>
        <time>2023-05-16T09:22:18.506Z</time>
      </trkpt>
      <trkpt lat="44.95115" lon="5.70596">
        <ele>662</ele>
        <time>2023-05-16T09:22:29.588Z</time>
      </trkpt>
      <trkpt lat="44.95116" lon="5.70537">
        <ele>660.6</ele>
        <time>2023-05-16T09:22:43.400Z</time>
      </trkpt>
      <trkpt lat="44.95108" lon="5.70511">
        <ele>667</ele>
        <time>2023-05-16T09:23:07.412Z</time>
      </trkpt>
      <trkpt lat="44.951" lon="5.70459">
        <ele>668.1</ele>
        <time>2023-05-16T09:23:22.512Z</time>
      </trkpt>
      <trkpt lat="44.95078" lon="5.70372">
        <ele>672.9</ele>
        <time>2023-05-16T09:23:52.823Z</time>
      </trkpt>
      <trkpt lat="44.95053" lon="5.70328">
        <ele>687.6</ele>
        <time>2023-05-16T09:24:51.286Z</time>
      </trkpt>
      <trkpt lat="44.9505" lon="5.70306">
        <ele>687.9</ele>
        <time>2023-05-16T09:24:57.440Z</time>
      </trkpt>
      <trkpt lat="44.95032" lon="5.70256">
        <ele>697.8</ele>
        <time>2023-05-16T09:25:33.027Z</time>
      </trkpt>
      <trkpt lat="44.95027" lon="5.70215">
        <ele>697.1</ele>
        <time>2023-05-16T09:25:43.051Z</time>
      </trkpt>
      <trkpt lat="44.95027" lon="5.70192">
        <ele>694.3</ele>
        <time>2023-05-16T09:25:48.262Z</time>
      </trkpt>
      <trkpt lat="44.95022" lon="5.70154">
        <ele>694.4</ele>
        <time>2023-05-16T09:25:58.384Z</time>
      </trkpt>
      <trkpt lat="44.95018" lon="5.70146">
        <ele>697</ele>
        <time>2023-05-16T09:26:08.816Z</time>
      </trkpt>
      <trkpt lat="44.95017" lon="5.70108">
        <ele>695.1</ele>
        <time>2023-05-16T09:26:17.432Z</time>
      </trkpt>
      <trkpt lat="44.95007" lon="5.70088">
        <ele>702.3</ele>
        <time>2023-05-16T09:26:47.764Z</time>
      </trkpt>
      <trkpt lat="44.94987" lon="5.70078">
        <ele>717.3</ele>
        <time>2023-05-16T09:27:28.516Z</time>
      </trkpt>
      <trkpt lat="44.94983" lon="5.70065">
        <ele>718.4</ele>
        <time>2023-05-16T09:27:33.786Z</time>
      </trkpt>
      <trkpt lat="44.94974" lon="5.70002">
        <ele>715.6</ele>
        <time>2023-05-16T09:27:48.348Z</time>
      </trkpt>
      <trkpt lat="44.9494" lon="5.6992">
        <ele>724.5</ele>
        <time>2023-05-16T09:28:26.670Z</time>
      </trkpt>
      <trkpt lat="44.94919" lon="5.69889">
        <ele>735</ele>
        <time>2023-05-16T09:29:07.277Z</time>
      </trkpt>
      <trkpt lat="44.94899" lon="5.69868">
        <ele>746.2</ele>
        <time>2023-05-16T09:29:55.141Z</time>
      </trkpt>
      <trkpt lat="44.94893" lon="5.69856">
        <ele>749.1</ele>
        <time>2023-05-16T09:30:05.669Z</time>
      </trkpt>
      <trkpt lat="44.9491" lon="5.69787">
        <ele>738.4</ele>
        <time>2023-05-16T09:30:22.224Z</time>
      </trkpt>
      <trkpt lat="44.94913" lon="5.69701">
        <ele>744.6</ele>
        <time>2023-05-16T09:30:53.361Z</time>
      </trkpt>
      <trkpt lat="44.94911" lon="5.69653">
        <ele>750.2</ele>
        <time>2023-05-16T09:31:15.205Z</time>
      </trkpt>
      <trkpt lat="44.94916" lon="5.69622">
        <ele>748.6</ele>
        <time>2023-05-16T09:31:22.409Z</time>
      </trkpt>
      <trkpt lat="44.94919" lon="5.6957">
        <ele>748.8</ele>
        <time>2023-05-16T09:31:36.147Z</time>
      </trkpt>
      <trkpt lat="44.94929" lon="5.69525">
        <ele>744.1</ele>
        <time>2023-05-16T09:31:46.834Z</time>
      </trkpt>
      <trkpt lat="44.94927" lon="5.69514">
        <ele>745.7</ele>
        <time>2023-05-16T09:31:52.724Z</time>
      </trkpt>
      <trkpt lat="44.94934" lon="5.69496">
        <ele>741.9</ele>
        <time>2023-05-16T09:31:57.378Z</time>
      </trkpt>
      <trkpt lat="44.94936" lon="5.69471">
        <ele>737.5</ele>
        <time>2023-05-16T09:32:03.078Z</time>
      </trkpt>
      <trkpt lat="44.94931" lon="5.69447">
        <ele>738.5</ele>
        <time>2023-05-16T09:32:10.836Z</time>
      </trkpt>
      <trkpt lat="44.94906" lon="5.69417">
        <ele>752</ele>
        <time>2023-05-16T09:33:07.466Z</time>
      </trkpt>
      <trkpt lat="44.94877" lon="5.69401">
        <ele>751.6</ele>
        <time>2023-05-16T09:33:18.419Z</time>
      </trkpt>
      <trkpt lat="44.94844" lon="5.69392">
        <ele>758.7</ele>
        <time>2023-05-16T09:33:44.260Z</time>
      </trkpt>
      <trkpt lat="44.94818" lon="5.69393">
        <ele>762.2</ele>
        <time>2023-05-16T09:33:59.201Z</time>
      </trkpt>
      <trkpt lat="44.94815" lon="5.6939">
        <ele>760.8</ele>
        <time>2023-05-16T09:34:00.377Z</time>
      </trkpt>
      <trkpt lat="44.94779" lon="5.69391">
        <ele>759.5</ele>
        <time>2023-05-16T09:34:12.195Z</time>
      </trkpt>
      <trkpt lat="44.94752" lon="5.69401">
        <ele>763.2</ele>
        <time>2023-05-16T09:34:28.112Z</time>
      </trkpt>
      <trkpt lat="44.94688" lon="5.69413">
        <ele>774.8</ele>
        <time>2023-05-16T09:35:12.004Z</time>
      </trkpt>
      <trkpt lat="44.94673" lon="5.69408">
        <ele>773.1</ele>
        <time>2023-05-16T09:35:16.938Z</time>
      </trkpt>
      <trkpt lat="44.94661" lon="5.69393">
        <ele>765.1</ele>
        <time>2023-05-16T09:35:22.068Z</time>
      </trkpt>
      <trkpt lat="44.94605" lon="5.69356">
        <ele>754.3</ele>
        <time>2023-05-16T09:35:41.859Z</time>
      </trkpt>
      <trkpt lat="44.94587" lon="5.69348">
        <ele>754.2</ele>
        <time>2023-05-16T09:35:48.652Z</time>
      </trkpt>
      <trkpt lat="44.9456" lon="5.69343">
        <ele>751.4</ele>
        <time>2023-05-16T09:35:57.370Z</time>
      </trkpt>
      <trkpt lat="44.94454" lon="5.69344">
        <ele>740.1</ele>
        <time>2023-05-16T09:36:31.306Z</time>
      </trkpt>
      <trkpt lat="44.94402" lon="5.6939">
        <ele>748.6</ele>
        <time>2023-05-16T09:37:07.063Z</time>
      </trkpt>
      <trkpt lat="44.94398" lon="5.6939">
        <ele>747.8</ele>
        <time>2023-05-16T09:37:08.344Z</time>
      </trkpt>
      <trkpt lat="44.94389" lon="5.69372">
        <ele>739.2</ele>
        <time>2023-05-16T09:37:13.338Z</time>
      </trkpt>
      <trkpt lat="44.94378" lon="5.69368">
        <ele>735.7</ele>
        <time>2023-05-16T09:37:16.974Z</time>
      </trkpt>
      <trkpt lat="44.94348" lon="5.69372">
        <ele>731.6</ele>
        <time>2023-05-16T09:37:26.621Z</time>
      </trkpt>
      <trkpt lat="44.94335" lon="5.69385">
        <ele>733.9</ele>
        <time>2023-05-16T09:37:36.106Z</time>
      </trkpt>
      <trkpt lat="44.94311" lon="5.69429">
        <ele>750.3</ele>
        <time>2023-05-16T09:38:45.317Z</time>
      </trkpt>
      <trkpt lat="44.94307" lon="5.69432">
        <ele>751.7</ele>
        <time>2023-05-16T09:38:50.519Z</time>
      </trkpt>
      <trkpt lat="44.94293" lon="5.69417">
        <ele>743.7</ele>
        <time>2023-05-16T09:38:56.144Z</time>
      </trkpt>
      <trkpt lat="44.9424" lon="5.69377">
        <ele>728.9</ele>
        <time>2023-05-16T09:39:15.381Z</time>
      </trkpt>
      <trkpt lat="44.94221" lon="5.69356">
        <ele>723.3</ele>
        <time>2023-05-16T09:39:23.104Z</time>
      </trkpt>
      <trkpt lat="44.94187" lon="5.69342">
        <ele>721.1</ele>
        <time>2023-05-16T09:39:34.442Z</time>
      </trkpt>
      <trkpt lat="44.94144" lon="5.69337">
        <ele>721.4</ele>
        <time>2023-05-16T09:39:50.572Z</time>
      </trkpt>
      <trkpt lat="44.94091" lon="5.69321">
        <ele>714.9</ele>
        <time>2023-05-16T09:40:07.923Z</time>
      </trkpt>
      <trkpt lat="44.94073" lon="5.69319">
        <ele>714.6</ele>
        <time>2023-05-16T09:40:14.203Z</time>
      </trkpt>
      <trkpt lat="44.94041" lon="5.69331">
        <ele>721.9</ele>
        <time>2023-05-16T09:40:40.611Z</time>
      </trkpt>
      <trkpt lat="44.94028" lon="5.69344">
        <ele>729.4</ele>
        <time>2023-05-16T09:41:11.205Z</time>
      </trkpt>
      <trkpt lat="44.94023" lon="5.69343">
        <ele>729.1</ele>
        <time>2023-05-16T09:41:12.822Z</time>
      </trkpt>
      <trkpt lat="44.94011" lon="5.69325">
        <ele>720.2</ele>
        <time>2023-05-16T09:41:18.426Z</time>
      </trkpt>
      <trkpt lat="44.93973" lon="5.69302">
        <ele>712.8</ele>
        <time>2023-05-16T09:41:31.661Z</time>
      </trkpt>
      <trkpt lat="44.93907" lon="5.69279">
        <ele>710.5</ele>
        <time>2023-05-16T09:41:54.121Z</time>
      </trkpt>
      <trkpt lat="44.9388" lon="5.69283">
        <ele>717.8</ele>
        <time>2023-05-16T09:42:20.492Z</time>
      </trkpt>
      <trkpt lat="44.93875" lon="5.69265">
        <ele>709.3</ele>
        <time>2023-05-16T09:42:24.874Z</time>
      </trkpt>
      <trkpt lat="44.93862" lon="5.69248">
        <ele>703.1</ele>
        <time>2023-05-16T09:42:30.545Z</time>
      </trkpt>
      <trkpt lat="44.93806" lon="5.69207">
        <ele>692.2</ele>
        <time>2023-05-16T09:42:50.738Z</time>
      </trkpt>
      <trkpt lat="44.93772" lon="5.69192">
        <ele>690.3</ele>
        <time>2023-05-16T09:43:02.142Z</time>
      </trkpt>
      <trkpt lat="44.93743" lon="5.69193">
        <ele>694.9</ele>
        <time>2023-05-16T09:43:20.348Z</time>
      </trkpt>
      <trkpt lat="44.93723" lon="5.69208">
        <ele>703.6</ele>
        <time>2023-05-16T09:43:55.664Z</time>
      </trkpt>
      <trkpt lat="44.93708" lon="5.69197">
        <ele>701.7</ele>
        <time>2023-05-16T09:44:01.074Z</time>
      </trkpt>
      <trkpt lat="44.93689" lon="5.69166">
        <ele>692.5</ele>
        <time>2023-05-16T09:44:10.367Z</time>
      </trkpt>
      <trkpt lat="44.93655" lon="5.69146">
        <ele>687.1</ele>
        <time>2023-05-16T09:44:22.158Z</time>
      </trkpt>
      <trkpt lat="44.93616" lon="5.69139">
        <ele>686.8</ele>
        <time>2023-05-16T09:44:36.210Z</time>
      </trkpt>
      <trkpt lat="44.9357" lon="5.69125">
        <ele>683.8</ele>
        <time>2023-05-16T09:44:51.275Z</time>
      </trkpt>
      <trkpt lat="44.93482" lon="5.69082">
        <ele>672</ele>
        <time>2023-05-16T09:45:21.086Z</time>
      </trkpt>
      <trkpt lat="44.93425" lon="5.69064">
        <ele>671.5</ele>
        <time>2023-05-16T09:45:41.903Z</time>
      </trkpt>
      <trkpt lat="44.93412" lon="5.69045">
        <ele>663.7</ele>
        <time>2023-05-16T09:45:47.892Z</time>
      </trkpt>
      <trkpt lat="44.93348" lon="5.69042">
        <ele>664.2</ele>
        <time>2023-05-16T09:46:11.894Z</time>
      </trkpt>
      <trkpt lat="44.9331" lon="5.6905">
        <ele>668.4</ele>
        <time>2023-05-16T09:46:32.054Z</time>
      </trkpt>
      <trkpt lat="44.93296" lon="5.69058">
        <ele>672.1</ele>
        <time>2023-05-16T09:46:45.353Z</time>
      </trkpt>
      <trkpt lat="44.93276" lon="5.69052">
        <ele>668.8</ele>
        <time>2023-05-16T09:46:51.898Z</time>
      </trkpt>
      <trkpt lat="44.93255" lon="5.69051">
        <ele>668</ele>
        <time>2023-05-16T09:46:58.755Z</time>
      </trkpt>
      <trkpt lat="44.93224" lon="5.69041">
        <ele>661.2</ele>
        <time>2023-05-16T09:47:08.935Z</time>
      </trkpt>
      <trkpt lat="44.93209" lon="5.69043">
        <ele>660.9</ele>
        <time>2023-05-16T09:47:14.123Z</time>
      </trkpt>
      <trkpt lat="44.93174" lon="5.69063">
        <ele>666.9</ele>
        <time>2023-05-16T09:47:37.851Z</time>
      </trkpt>
      <trkpt lat="44.93165" lon="5.69062">
        <ele>665.8</ele>
        <time>2023-05-16T09:47:40.741Z</time>
      </trkpt>
      <trkpt lat="44.93138" lon="5.69044">
        <ele>657.8</ele>
        <time>2023-05-16T09:47:50.299Z</time>
      </trkpt>
      <trkpt lat="44.93118" lon="5.69045">
        <ele>658.1</ele>
        <time>2023-05-16T09:47:57.971Z</time>
      </trkpt>
      <trkpt lat="44.93098" lon="5.69061">
        <ele>664.4</ele>
        <time>2023-05-16T09:48:20.783Z</time>
      </trkpt>
      <trkpt lat="44.93087" lon="5.69061">
        <ele>664.2</ele>
        <time>2023-05-16T09:48:24.591Z</time>
      </trkpt>
      <trkpt lat="44.93076" lon="5.69055">
        <ele>661.1</ele>
        <time>2023-05-16T09:48:28.366Z</time>
      </trkpt>
      <trkpt lat="44.93064" lon="5.69055">
        <ele>659.9</ele>
        <time>2023-05-16T09:48:32.208Z</time>
      </trkpt>
      <trkpt lat="44.93039" lon="5.69067">
        <ele>662.1</ele>
        <time>2023-05-16T09:48:44.867Z</time>
      </trkpt>
      <trkpt lat="44.93001" lon="5.69069">
        <ele>658.9</ele>
        <time>2023-05-16T09:48:57.041Z</time>
      </trkpt>
      <trkpt lat="44.92974" lon="5.69082">
        <ele>659.8</ele>
        <time>2023-05-16T09:49:08.565Z</time>
      </trkpt>
      <trkpt lat="44.92956" lon="5.69098">
        <ele>663.9</ele>
        <time>2023-05-16T09:49:23.774Z</time>
      </trkpt>
      <trkpt lat="44.92952" lon="5.69098">
        <ele>663.3</ele>
        <time>2023-05-16T09:49:25.055Z</time>
      </trkpt>
      <trkpt lat="44.92936" lon="5.69082">
        <ele>654.4</ele>
        <time>2023-05-16T09:49:31.331Z</time>
      </trkpt>
      <trkpt lat="44.92931" lon="5.69083">
        <ele>654</ele>
        <time>2023-05-16T09:49:32.948Z</time>
      </trkpt>
      <trkpt lat="44.92891" lon="5.69115">
        <ele>662.1</ele>
        <time>2023-05-16T09:50:03.789Z</time>
      </trkpt>
      <trkpt lat="44.92879" lon="5.69142">
        <ele>671.4</ele>
        <time>2023-05-16T09:50:42.821Z</time>
      </trkpt>
      <trkpt lat="44.92875" lon="5.69144">
        <ele>671.8</ele>
        <time>2023-05-16T09:50:44.933Z</time>
      </trkpt>
      <trkpt lat="44.92871" lon="5.69139">
        <ele>669.5</ele>
        <time>2023-05-16T09:50:46.644Z</time>
      </trkpt>
      <trkpt lat="44.92868" lon="5.69127">
        <ele>664.6</ele>
        <time>2023-05-16T09:50:49.528Z</time>
      </trkpt>
      <trkpt lat="44.9285" lon="5.69111">
        <ele>656.8</ele>
        <time>2023-05-16T09:50:56.337Z</time>
      </trkpt>
      <trkpt lat="44.92823" lon="5.69102">
        <ele>652.3</ele>
        <time>2023-05-16T09:51:05.218Z</time>
      </trkpt>
      <trkpt lat="44.92757" lon="5.69121">
        <ele>662.1</ele>
        <time>2023-05-16T09:51:45.489Z</time>
      </trkpt>
      <trkpt lat="44.9275" lon="5.69126">
        <ele>664.4</ele>
        <time>2023-05-16T09:51:53.919Z</time>
      </trkpt>
      <trkpt lat="44.92718" lon="5.69133">
        <ele>668.9</ele>
        <time>2023-05-16T09:52:12.821Z</time>
      </trkpt>
      <trkpt lat="44.92707" lon="5.69126">
        <ele>666.5</ele>
        <time>2023-05-16T09:52:16.684Z</time>
      </trkpt>
      <trkpt lat="44.92642" lon="5.69112">
        <ele>667.3</ele>
        <time>2023-05-16T09:52:41.666Z</time>
      </trkpt>
      <trkpt lat="44.92628" lon="5.69095">
        <ele>662.3</ele>
        <time>2023-05-16T09:52:47.577Z</time>
      </trkpt>
      <trkpt lat="44.92619" lon="5.6909">
        <ele>661.9</ele>
        <time>2023-05-16T09:52:50.703Z</time>
      </trkpt>
      <trkpt lat="44.92602" lon="5.69093">
        <ele>666.8</ele>
        <time>2023-05-16T09:53:08.570Z</time>
      </trkpt>
      <trkpt lat="44.92583" lon="5.69081">
        <ele>665.4</ele>
        <time>2023-05-16T09:53:15.233Z</time>
      </trkpt>
      <trkpt lat="44.92563" lon="5.69078">
        <ele>664.1</ele>
        <time>2023-05-16T09:53:21.672Z</time>
      </trkpt>
      <trkpt lat="44.92501" lon="5.69082">
        <ele>663.7</ele>
        <time>2023-05-16T09:53:43.936Z</time>
      </trkpt>
      <trkpt lat="44.92416" lon="5.69044">
        <ele>658.1</ele>
        <time>2023-05-16T09:54:12.480Z</time>
      </trkpt>
      <trkpt lat="44.92373" lon="5.69013">
        <ele>653.7</ele>
        <time>2023-05-16T09:54:27.936Z</time>
      </trkpt>
      <trkpt lat="44.92352" lon="5.69004">
        <ele>652.8</ele>
        <time>2023-05-16T09:54:35.035Z</time>
      </trkpt>
      <trkpt lat="44.92328" lon="5.69006">
        <ele>655.4</ele>
        <time>2023-05-16T09:54:47.599Z</time>
      </trkpt>
      <trkpt lat="44.92296" lon="5.69003">
        <ele>658.7</ele>
        <time>2023-05-16T09:55:04.052Z</time>
      </trkpt>
      <trkpt lat="44.92281" lon="5.68989">
        <ele>657.9</ele>
        <time>2023-05-16T09:55:09.808Z</time>
      </trkpt>
      <trkpt lat="44.92269" lon="5.68959">
        <ele>654.4</ele>
        <time>2023-05-16T09:55:17.618Z</time>
      </trkpt>
      <trkpt lat="44.92263" lon="5.68951">
        <ele>654.1</ele>
        <time>2023-05-16T09:55:20.325Z</time>
      </trkpt>
      <trkpt lat="44.922" lon="5.68904">
        <ele>654.3</ele>
        <time>2023-05-16T09:55:46.620Z</time>
      </trkpt>
      <trkpt lat="44.92184" lon="5.68899">
        <ele>655</ele>
        <time>2023-05-16T09:55:53.483Z</time>
      </trkpt>
      <trkpt lat="44.92164" lon="5.68899">
        <ele>656.7</ele>
        <time>2023-05-16T09:56:03.127Z</time>
      </trkpt>
      <trkpt lat="44.9208" lon="5.68956">
        <ele>661.1</ele>
        <time>2023-05-16T09:56:42.731Z</time>
      </trkpt>
      <trkpt lat="44.92045" lon="5.68971">
        <ele>665.2</ele>
        <time>2023-05-16T09:57:02.113Z</time>
      </trkpt>
      <trkpt lat="44.91991" lon="5.68968">
        <ele>666.8</ele>
        <time>2023-05-16T09:57:23.810Z</time>
      </trkpt>
      <trkpt lat="44.91974" lon="5.68961">
        <ele>666.4</ele>
        <time>2023-05-16T09:57:29.860Z</time>
      </trkpt>
      <trkpt lat="44.91909" lon="5.68921">
        <ele>656.1</ele>
        <time>2023-05-16T09:57:52.559Z</time>
      </trkpt>
      <trkpt lat="44.91824" lon="5.68909">
        <ele>654.8</ele>
        <time>2023-05-16T09:58:22.397Z</time>
      </trkpt>
      <trkpt lat="44.91753" lon="5.68879">
        <ele>647.2</ele>
        <time>2023-05-16T09:58:46.123Z</time>
      </trkpt>
      <trkpt lat="44.91718" lon="5.68872">
        <ele>645</ele>
        <time>2023-05-16T09:58:57.440Z</time>
      </trkpt>
      <trkpt lat="44.91453" lon="5.68898">
        <ele>636</ele>
        <time>2023-05-16T10:00:25.196Z</time>
      </trkpt>
      <trkpt lat="44.91301" lon="5.68891">
        <ele>632</ele>
        <time>2023-05-16T10:01:16.579Z</time>
      </trkpt>
      <trkpt lat="44.91272" lon="5.68893">
        <ele>631.6</ele>
        <time>2023-05-16T10:01:26.765Z</time>
      </trkpt>
      <trkpt lat="44.91191" lon="5.68923">
        <ele>633.6</ele>
        <time>2023-05-16T10:01:59.778Z</time>
      </trkpt>
      <trkpt lat="44.90877" lon="5.69075">
        <ele>647.5</ele>
        <time>2023-05-16T10:04:18.413Z</time>
      </trkpt>
      <trkpt lat="44.90839" lon="5.69086">
        <ele>649.2</ele>
        <time>2023-05-16T10:04:34.716Z</time>
      </trkpt>
      <trkpt lat="44.90754" lon="5.69096">
        <ele>653.1</ele>
        <time>2023-05-16T10:05:10.788Z</time>
      </trkpt>
      <trkpt lat="44.90551" lon="5.69089">
        <ele>658.1</ele>
        <time>2023-05-16T10:06:31.029Z</time>
      </trkpt>
      <trkpt lat="44.90464" lon="5.69103">
        <ele>663.2</ele>
        <time>2023-05-16T10:07:09.615Z</time>
      </trkpt>
      <trkpt lat="44.90376" lon="5.69122">
        <ele>665.6</ele>
        <time>2023-05-16T10:07:45.055Z</time>
      </trkpt>
      <trkpt lat="44.90285" lon="5.69165">
        <ele>669.8</ele>
        <time>2023-05-16T10:08:25.381Z</time>
      </trkpt>
      <trkpt lat="44.90166" lon="5.69229">
        <ele>673.2</ele>
        <time>2023-05-16T10:09:16.034Z</time>
      </trkpt>
      <trkpt lat="44.9009" lon="5.69251">
        <ele>674.3</ele>
        <time>2023-05-16T10:09:45.698Z</time>
      </trkpt>
      <trkpt lat="44.90056" lon="5.69255">
        <ele>674.7</ele>
        <time>2023-05-16T10:09:58.643Z</time>
      </trkpt>
      <trkpt lat="44.89946" lon="5.69281">
        <ele>677.4</ele>
        <time>2023-05-16T10:10:42.658Z</time>
      </trkpt>
      <trkpt lat="44.89859" lon="5.69317">
        <ele>681.3</ele>
        <time>2023-05-16T10:11:20.662Z</time>
      </trkpt>
      <trkpt lat="44.89837" lon="5.6933">
        <ele>682.6</ele>
        <time>2023-05-16T10:11:31.043Z</time>
      </trkpt>
      <trkpt lat="44.89737" lon="5.69437">
        <ele>688.3</ele>
        <time>2023-05-16T10:12:24.058Z</time>
      </trkpt>
      <trkpt lat="44.89727" lon="5.69444">
        <ele>688.9</ele>
        <time>2023-05-16T10:12:28.904Z</time>
      </trkpt>
      <trkpt lat="44.89705" lon="5.69476">
        <ele>692.6</ele>
        <time>2023-05-16T10:12:45.945Z</time>
      </trkpt>
      <trkpt lat="44.89653" lon="5.69536">
        <ele>698.9</ele>
        <time>2023-05-16T10:13:19.327Z</time>
      </trkpt>
      <trkpt lat="44.89633" lon="5.69567">
        <ele>701.5</ele>
        <time>2023-05-16T10:13:33.774Z</time>
      </trkpt>
      <trkpt lat="44.89617" lon="5.69584">
        <ele>702.5</ele>
        <time>2023-05-16T10:13:42.361Z</time>
      </trkpt>
      <trkpt lat="44.89575" lon="5.69648">
        <ele>710.4</ele>
        <time>2023-05-16T10:14:17.005Z</time>
      </trkpt>
      <trkpt lat="44.89526" lon="5.69698">
        <ele>716.7</ele>
        <time>2023-05-16T10:14:48.165Z</time>
      </trkpt>
      <trkpt lat="44.89505" lon="5.69709">
        <ele>717</ele>
        <time>2023-05-16T10:14:56.708Z</time>
      </trkpt>
      <trkpt lat="44.89461" lon="5.69713">
        <ele>717.8</ele>
        <time>2023-05-16T10:15:13.778Z</time>
      </trkpt>
      <trkpt lat="44.894" lon="5.69727">
        <ele>720.2</ele>
        <time>2023-05-16T10:15:39.336Z</time>
      </trkpt>
      <trkpt lat="44.89371" lon="5.69741">
        <ele>721.7</ele>
        <time>2023-05-16T10:15:52.435Z</time>
      </trkpt>
      <trkpt lat="44.89337" lon="5.69768">
        <ele>724.7</ele>
        <time>2023-05-16T10:16:10.734Z</time>
      </trkpt>
      <trkpt lat="44.89297" lon="5.69782">
        <ele>726.3</ele>
        <time>2023-05-16T10:16:27.777Z</time>
      </trkpt>
      <trkpt lat="44.89202" lon="5.69781">
        <ele>727.3</ele>
        <time>2023-05-16T10:17:03.689Z</time>
      </trkpt>
      <trkpt lat="44.8915" lon="5.69787">
        <ele>730</ele>
        <time>2023-05-16T10:17:26.193Z</time>
      </trkpt>
      <trkpt lat="44.89097" lon="5.69816">
        <ele>735</ele>
        <time>2023-05-16T10:17:53.883Z</time>
      </trkpt>
      <trkpt lat="44.89065" lon="5.69825">
        <ele>735.7</ele>
        <time>2023-05-16T10:18:06.648Z</time>
      </trkpt>
      <trkpt lat="44.89044" lon="5.69839">
        <ele>736</ele>
        <time>2023-05-16T10:18:15.493Z</time>
      </trkpt>
      <trkpt lat="44.89016" lon="5.6985">
        <ele>735.7</ele>
        <time>2023-05-16T10:18:25.796Z</time>
      </trkpt>
      <trkpt lat="44.88992" lon="5.69843">
        <ele>733.9</ele>
        <time>2023-05-16T10:18:33.642Z</time>
      </trkpt>
      <trkpt lat="44.88981" lon="5.69847">
        <ele>733.2</ele>
        <time>2023-05-16T10:18:37.279Z</time>
      </trkpt>
      <trkpt lat="44.88957" lon="5.69865">
        <ele>732.1</ele>
        <time>2023-05-16T10:18:46.085Z</time>
      </trkpt>
      <trkpt lat="44.88922" lon="5.69883">
        <ele>729.9</ele>
        <time>2023-05-16T10:18:58.011Z</time>
      </trkpt>
      <trkpt lat="44.88911" lon="5.69883">
        <ele>728.8</ele>
        <time>2023-05-16T10:19:01.532Z</time>
      </trkpt>
      <trkpt lat="44.88902" lon="5.69863">
        <ele>726.8</ele>
        <time>2023-05-16T10:19:06.906Z</time>
      </trkpt>
      <trkpt lat="44.88902" lon="5.69852">
        <ele>726.2</ele>
        <time>2023-05-16T10:19:09.401Z</time>
      </trkpt>
      <trkpt lat="44.88967" lon="5.69666">
        <ele>717.8</ele>
        <time>2023-05-16T10:19:56.442Z</time>
      </trkpt>
      <trkpt lat="44.88977" lon="5.69647">
        <ele>717.3</ele>
        <time>2023-05-16T10:20:02.049Z</time>
      </trkpt>
      <trkpt lat="44.88987" lon="5.69636">
        <ele>717.3</ele>
        <time>2023-05-16T10:20:06.688Z</time>
      </trkpt>
      <trkpt lat="44.88986" lon="5.69634">
        <ele>717.1</ele>
        <time>2023-05-16T10:20:07.243Z</time>
      </trkpt>
      <trkpt lat="44.88988" lon="5.69636">
        <ele>717.4</ele>
        <time>2023-05-16T10:20:08.590Z</time>
      </trkpt>
      <trkpt lat="44.88984" lon="5.69616">
        <ele>715.6</ele>
        <time>2023-05-16T10:20:13.304Z</time>
      </trkpt>
      <trkpt lat="44.88968" lon="5.69589">
        <ele>712.5</ele>
        <time>2023-05-16T10:20:21.288Z</time>
      </trkpt>
      <trkpt lat="44.88962" lon="5.69572">
        <ele>710.7</ele>
        <time>2023-05-16T10:20:25.595Z</time>
      </trkpt>
      <trkpt lat="44.8896" lon="5.69541">
        <ele>708</ele>
        <time>2023-05-16T10:20:32.656Z</time>
      </trkpt>
      <trkpt lat="44.88967" lon="5.69505">
        <ele>704.9</ele>
        <time>2023-05-16T10:20:41.123Z</time>
      </trkpt>
      <trkpt lat="44.88945" lon="5.69454">
        <ele>699.3</ele>
        <time>2023-05-16T10:20:54.666Z</time>
      </trkpt>
      <trkpt lat="44.88933" lon="5.69408">
        <ele>694.4</ele>
        <time>2023-05-16T10:21:05.785Z</time>
      </trkpt>
      <trkpt lat="44.88934" lon="5.69385">
        <ele>690.6</ele>
        <time>2023-05-16T10:21:11.011Z</time>
      </trkpt>
      <trkpt lat="44.88948" lon="5.69353">
        <ele>684.6</ele>
        <time>2023-05-16T10:21:19.542Z</time>
      </trkpt>
      <trkpt lat="44.88972" lon="5.69342">
        <ele>681.7</ele>
        <time>2023-05-16T10:21:27.620Z</time>
      </trkpt>
      <trkpt lat="44.88976" lon="5.69337">
        <ele>680.7</ele>
        <time>2023-05-16T10:21:29.331Z</time>
      </trkpt>
      <trkpt lat="44.88976" lon="5.69324">
        <ele>679</ele>
        <time>2023-05-16T10:21:32.279Z</time>
      </trkpt>
      <trkpt lat="44.88969" lon="5.69288">
        <ele>675</ele>
        <time>2023-05-16T10:21:40.747Z</time>
      </trkpt>
      <trkpt lat="44.88959" lon="5.69258">
        <ele>671.5</ele>
        <time>2023-05-16T10:21:48.266Z</time>
      </trkpt>
      <trkpt lat="44.88971" lon="5.69233">
        <ele>668.6</ele>
        <time>2023-05-16T10:21:55.116Z</time>
      </trkpt>
      <trkpt lat="44.88986" lon="5.69219">
        <ele>667.1</ele>
        <time>2023-05-16T10:22:00.873Z</time>
      </trkpt>
      <trkpt lat="44.88997" lon="5.69221">
        <ele>667.2</ele>
        <time>2023-05-16T10:22:05.046Z</time>
      </trkpt>
      <trkpt lat="44.89002" lon="5.69214">
        <ele>666.2</ele>
        <time>2023-05-16T10:22:07.300Z</time>
      </trkpt>
      <trkpt lat="44.88999" lon="5.692">
        <ele>665.2</ele>
        <time>2023-05-16T10:22:10.618Z</time>
      </trkpt>
      <trkpt lat="44.88989" lon="5.69194">
        <ele>664.6</ele>
        <time>2023-05-16T10:22:14.096Z</time>
      </trkpt>
      <trkpt lat="44.88962" lon="5.69189">
        <ele>663.9</ele>
        <time>2023-05-16T10:22:23.313Z</time>
      </trkpt>
      <trkpt lat="44.88937" lon="5.69174">
        <ele>662.1</ele>
        <time>2023-05-16T10:22:32.010Z</time>
      </trkpt>
      <trkpt lat="44.88939" lon="5.69164">
        <ele>661</ele>
        <time>2023-05-16T10:22:34.367Z</time>
      </trkpt>
      <trkpt lat="44.88932" lon="5.69157">
        <ele>660.2</ele>
        <time>2023-05-16T10:22:37.114Z</time>
      </trkpt>
      <trkpt lat="44.88916" lon="5.69155">
        <ele>659.7</ele>
        <time>2023-05-16T10:22:42.463Z</time>
      </trkpt>
      <trkpt lat="44.88901" lon="5.6916">
        <ele>658.7</ele>
        <time>2023-05-16T10:22:47.398Z</time>
      </trkpt>
      <trkpt lat="44.88902" lon="5.69151">
        <ele>657.8</ele>
        <time>2023-05-16T10:22:49.464Z</time>
      </trkpt>
      <trkpt lat="44.88921" lon="5.69131">
        <ele>657.2</ele>
        <time>2023-05-16T10:22:57.496Z</time>
      </trkpt>
      <trkpt lat="44.88929" lon="5.69114">
        <ele>655.6</ele>
        <time>2023-05-16T10:23:02.125Z</time>
      </trkpt>
      <trkpt lat="44.88926" lon="5.6907">
        <ele>650.5</ele>
        <time>2023-05-16T10:23:12.151Z</time>
      </trkpt>
      <trkpt lat="44.88908" lon="5.69019">
        <ele>643.8</ele>
        <time>2023-05-16T10:23:25.074Z</time>
      </trkpt>
      <trkpt lat="44.88904" lon="5.68994">
        <ele>641.1</ele>
        <time>2023-05-16T10:23:30.887Z</time>
      </trkpt>
      <trkpt lat="44.88893" lon="5.68976">
        <ele>639.8</ele>
        <time>2023-05-16T10:23:36.279Z</time>
      </trkpt>
      <trkpt lat="44.88886" lon="5.68971">
        <ele>639.5</ele>
        <time>2023-05-16T10:23:38.838Z</time>
      </trkpt>
      <trkpt lat="44.88816" lon="5.68964">
        <ele>636.7</ele>
        <time>2023-05-16T10:24:01.614Z</time>
      </trkpt>
      <trkpt lat="44.888" lon="5.68957">
        <ele>634.1</ele>
        <time>2023-05-16T10:24:06.977Z</time>
      </trkpt>
      <trkpt lat="44.88778" lon="5.68965">
        <ele>630.7</ele>
        <time>2023-05-16T10:24:14.250Z</time>
      </trkpt>
      <trkpt lat="44.88753" lon="5.68966">
        <ele>626.8</ele>
        <time>2023-05-16T10:24:22.257Z</time>
      </trkpt>
      <trkpt lat="44.88716" lon="5.68955">
        <ele>619.2</ele>
        <time>2023-05-16T10:24:34.362Z</time>
      </trkpt>
      <trkpt lat="44.88693" lon="5.68941">
        <ele>614.6</ele>
        <time>2023-05-16T10:24:42.381Z</time>
      </trkpt>
      <trkpt lat="44.88677" lon="5.68937">
        <ele>611.6</ele>
        <time>2023-05-16T10:24:47.583Z</time>
      </trkpt>
      <trkpt lat="44.88661" lon="5.68927">
        <ele>609.2</ele>
        <time>2023-05-16T10:24:53.186Z</time>
      </trkpt>
      <trkpt lat="44.88651" lon="5.68912">
        <ele>607.4</ele>
        <time>2023-05-16T10:24:57.857Z</time>
      </trkpt>
      <trkpt lat="44.88642" lon="5.68915">
        <ele>607</ele>
        <time>2023-05-16T10:25:00.829Z</time>
      </trkpt>
      <trkpt lat="44.88638" lon="5.68912">
        <ele>606</ele>
        <time>2023-05-16T10:25:02.280Z</time>
      </trkpt>
      <trkpt lat="44.8863" lon="5.68892">
        <ele>601.7</ele>
        <time>2023-05-16T10:25:07.489Z</time>
      </trkpt>
      <trkpt lat="44.88619" lon="5.68886">
        <ele>599.6</ele>
        <time>2023-05-16T10:25:11.265Z</time>
      </trkpt>
      <trkpt lat="44.8861" lon="5.68886">
        <ele>598.9</ele>
        <time>2023-05-16T10:25:14.146Z</time>
      </trkpt>
      <trkpt lat="44.88594" lon="5.68915">
        <ele>601.9</ele>
        <time>2023-05-16T10:25:28.099Z</time>
      </trkpt>
      <trkpt lat="44.88586" lon="5.68916">
        <ele>601.2</ele>
        <time>2023-05-16T10:25:30.670Z</time>
      </trkpt>
      <trkpt lat="44.8858" lon="5.68912">
        <ele>600</ele>
        <time>2023-05-16T10:25:32.794Z</time>
      </trkpt>
      <trkpt lat="44.88564" lon="5.68919">
        <ele>598.8</ele>
        <time>2023-05-16T10:25:38.157Z</time>
      </trkpt>
      <trkpt lat="44.88555" lon="5.68928">
        <ele>597.4</ele>
        <time>2023-05-16T10:25:41.688Z</time>
      </trkpt>
      <trkpt lat="44.8854" lon="5.68928">
        <ele>595.8</ele>
        <time>2023-05-16T10:25:46.491Z</time>
      </trkpt>
      <trkpt lat="44.88532" lon="5.68919">
        <ele>595.4</ele>
        <time>2023-05-16T10:25:49.819Z</time>
      </trkpt>
      <trkpt lat="44.8852" lon="5.68913">
        <ele>593.5</ele>
        <time>2023-05-16T10:25:53.894Z</time>
      </trkpt>
      <trkpt lat="44.88474" lon="5.68906">
        <ele>582.1</ele>
        <time>2023-05-16T10:26:08.707Z</time>
      </trkpt>
      <trkpt lat="44.88445" lon="5.68909">
        <ele>574.1</ele>
        <time>2023-05-16T10:26:18.016Z</time>
      </trkpt>
      <trkpt lat="44.8843" lon="5.68923">
        <ele>570.8</ele>
        <time>2023-05-16T10:26:23.773Z</time>
      </trkpt>
      <trkpt lat="44.88431" lon="5.68898">
        <ele>567.9</ele>
        <time>2023-05-16T10:26:29.453Z</time>
      </trkpt>
      <trkpt lat="44.88428" lon="5.68895">
        <ele>566.4</ele>
        <time>2023-05-16T10:26:30.630Z</time>
      </trkpt>
      <trkpt lat="44.88418" lon="5.68907">
        <ele>565.7</ele>
        <time>2023-05-16T10:26:34.832Z</time>
      </trkpt>
      <trkpt lat="44.88411" lon="5.68922">
        <ele>564.8</ele>
        <time>2023-05-16T10:26:38.907Z</time>
      </trkpt>
      <trkpt lat="44.8841" lon="5.68949">
        <ele>564.3</ele>
        <time>2023-05-16T10:26:45.383Z</time>
      </trkpt>
      <trkpt lat="44.88419" lon="5.68964">
        <ele>566.5</ele>
        <time>2023-05-16T10:26:54.104Z</time>
      </trkpt>
      <trkpt lat="44.88415" lon="5.69003">
        <ele>564.5</ele>
        <time>2023-05-16T10:27:03.043Z</time>
      </trkpt>
      <trkpt lat="44.88429" lon="5.69039">
        <ele>565.3</ele>
        <time>2023-05-16T10:27:14.646Z</time>
      </trkpt>
      <trkpt lat="44.88428" lon="5.69054">
        <ele>563.8</ele>
        <time>2023-05-16T10:27:18.064Z</time>
      </trkpt>
      <trkpt lat="44.88425" lon="5.69057">
        <ele>562.9</ele>
        <time>2023-05-16T10:27:19.241Z</time>
      </trkpt>
      <trkpt lat="44.88403" lon="5.69053">
        <ele>559.6</ele>
        <time>2023-05-16T10:27:26.342Z</time>
      </trkpt>
      <trkpt lat="44.8839" lon="5.69064">
        <ele>557.5</ele>
        <time>2023-05-16T10:27:31.195Z</time>
      </trkpt>
      <trkpt lat="44.8839" lon="5.6907">
        <ele>557.1</ele>
        <time>2023-05-16T10:27:32.556Z</time>
      </trkpt>
      <trkpt lat="44.88413" lon="5.69112">
        <ele>561.4</ele>
        <time>2023-05-16T10:27:52.645Z</time>
      </trkpt>
      <trkpt lat="44.88418" lon="5.69115">
        <ele>562.3</ele>
        <time>2023-05-16T10:27:56.147Z</time>
      </trkpt>
      <trkpt lat="44.88419" lon="5.69123">
        <ele>563.3</ele>
        <time>2023-05-16T10:27:59.972Z</time>
      </trkpt>
      <trkpt lat="44.88415" lon="5.69128">
        <ele>563.2</ele>
        <time>2023-05-16T10:28:01.819Z</time>
      </trkpt>
      <trkpt lat="44.88395" lon="5.69135">
        <ele>562.4</ele>
        <time>2023-05-16T10:28:08.528Z</time>
      </trkpt>
      <trkpt lat="44.88384" lon="5.6913">
        <ele>561</ele>
        <time>2023-05-16T10:28:12.228Z</time>
      </trkpt>
      <trkpt lat="44.88373" lon="5.69149">
        <ele>562.4</ele>
        <time>2023-05-16T10:28:20.484Z</time>
      </trkpt>
      <trkpt lat="44.88372" lon="5.6916">
        <ele>563.6</ele>
        <time>2023-05-16T10:28:25.309Z</time>
      </trkpt>
      <trkpt lat="44.88361" lon="5.69186">
        <ele>568.5</ele>
        <time>2023-05-16T10:28:42.972Z</time>
      </trkpt>
      <trkpt lat="44.88357" lon="5.69173">
        <ele>565</ele>
        <time>2023-05-16T10:28:46.187Z</time>
      </trkpt>
      <trkpt lat="44.88341" lon="5.69168">
        <ele>562.8</ele>
        <time>2023-05-16T10:28:51.434Z</time>
      </trkpt>
      <trkpt lat="44.88332" lon="5.6917">
        <ele>562.9</ele>
        <time>2023-05-16T10:28:54.883Z</time>
      </trkpt>
      <trkpt lat="44.88325" lon="5.69166">
        <ele>562.3</ele>
        <time>2023-05-16T10:28:57.300Z</time>
      </trkpt>
      <trkpt lat="44.8831" lon="5.69166">
        <ele>563</ele>
        <time>2023-05-16T10:29:03.664Z</time>
      </trkpt>
      <trkpt lat="44.88277" lon="5.69182">
        <ele>568.6</ele>
        <time>2023-05-16T10:29:25.722Z</time>
      </trkpt>
      <trkpt lat="44.88273" lon="5.69188">
        <ele>570.3</ele>
        <time>2023-05-16T10:29:31.943Z</time>
      </trkpt>
      <trkpt lat="44.8827" lon="5.6921">
        <ele>576</ele>
        <time>2023-05-16T10:29:54.354Z</time>
      </trkpt>
      <trkpt lat="44.88274" lon="5.69221">
        <ele>578.5</ele>
        <time>2023-05-16T10:30:03.466Z</time>
      </trkpt>
      <trkpt lat="44.8827" lon="5.6924">
        <ele>583.5</ele>
        <time>2023-05-16T10:30:23.050Z</time>
      </trkpt>
      <trkpt lat="44.88263" lon="5.69252">
        <ele>586.8</ele>
        <time>2023-05-16T10:30:35.208Z</time>
      </trkpt>
      <trkpt lat="44.88257" lon="5.69252">
        <ele>587.1</ele>
        <time>2023-05-16T10:30:37.781Z</time>
      </trkpt>
      <trkpt lat="44.88235" lon="5.69236">
        <ele>583.8</ele>
        <time>2023-05-16T10:30:45.704Z</time>
      </trkpt>
      <trkpt lat="44.88233" lon="5.69197">
        <ele>573.9</ele>
        <time>2023-05-16T10:30:54.574Z</time>
      </trkpt>
      <trkpt lat="44.8823" lon="5.69189">
        <ele>571.9</ele>
        <time>2023-05-16T10:30:56.628Z</time>
      </trkpt>
      <trkpt lat="44.88211" lon="5.69175">
        <ele>568.6</ele>
        <time>2023-05-16T10:31:03.489Z</time>
      </trkpt>
      <trkpt lat="44.8818" lon="5.69165">
        <ele>566.2</ele>
        <time>2023-05-16T10:31:13.670Z</time>
      </trkpt>
      <trkpt lat="44.88179" lon="5.6916">
        <ele>564.4</ele>
        <time>2023-05-16T10:31:14.849Z</time>
      </trkpt>
      <trkpt lat="44.88186" lon="5.69157">
        <ele>563.3</ele>
        <time>2023-05-16T10:31:17.191Z</time>
      </trkpt>
      <trkpt lat="44.88193" lon="5.69161">
        <ele>564.7</ele>
        <time>2023-05-16T10:31:22.439Z</time>
      </trkpt>
      <trkpt lat="44.88218" lon="5.69149">
        <ele>560.9</ele>
        <time>2023-05-16T10:31:30.893Z</time>
      </trkpt>
      <trkpt lat="44.88231" lon="5.6915">
        <ele>561.4</ele>
        <time>2023-05-16T10:31:36.270Z</time>
      </trkpt>
      <trkpt lat="44.88234" lon="5.69143">
        <ele>559.4</ele>
        <time>2023-05-16T10:31:38.125Z</time>
      </trkpt>
      <trkpt lat="44.88231" lon="5.69125">
        <ele>554.1</ele>
        <time>2023-05-16T10:31:42.320Z</time>
      </trkpt>
      <trkpt lat="44.88207" lon="5.69107">
        <ele>547.1</ele>
        <time>2023-05-16T10:31:51.021Z</time>
      </trkpt>
      <trkpt lat="44.88199" lon="5.69097">
        <ele>543.1</ele>
        <time>2023-05-16T10:31:54.442Z</time>
      </trkpt>
      <trkpt lat="44.88175" lon="5.6908">
        <ele>534.8</ele>
        <time>2023-05-16T10:32:03.039Z</time>
      </trkpt>
      <trkpt lat="44.88163" lon="5.69077">
        <ele>532.2</ele>
        <time>2023-05-16T10:32:06.941Z</time>
      </trkpt>
      <trkpt lat="44.88167" lon="5.69065">
        <ele>528.7</ele>
        <time>2023-05-16T10:32:09.949Z</time>
      </trkpt>
      <trkpt lat="44.88175" lon="5.69059">
        <ele>527.9</ele>
        <time>2023-05-16T10:32:12.850Z</time>
      </trkpt>
      <trkpt lat="44.88195" lon="5.69061">
        <ele>531.8</ele>
        <time>2023-05-16T10:32:27.285Z</time>
      </trkpt>
      <trkpt lat="44.88199" lon="5.69057">
        <ele>531.4</ele>
        <time>2023-05-16T10:32:28.855Z</time>
      </trkpt>
      <trkpt lat="44.88167" lon="5.69024">
        <ele>514.4</ele>
        <time>2023-05-16T10:32:41.543Z</time>
      </trkpt>
      <trkpt lat="44.88194" lon="5.6902">
        <ele>520.1</ele>
        <time>2023-05-16T10:33:02.310Z</time>
      </trkpt>
      <trkpt lat="44.88201" lon="5.69015">
        <ele>520.7</ele>
        <time>2023-05-16T10:33:05.985Z</time>
      </trkpt>
      <trkpt lat="44.88195" lon="5.68987">
        <ele>512.9</ele>
        <time>2023-05-16T10:33:12.621Z</time>
      </trkpt>
      <trkpt lat="44.88177" lon="5.68974">
        <ele>505.8</ele>
        <time>2023-05-16T10:33:19.094Z</time>
      </trkpt>
      <trkpt lat="44.88165" lon="5.68977">
        <ele>503.1</ele>
        <time>2023-05-16T10:33:22.996Z</time>
      </trkpt>
      <trkpt lat="44.88161" lon="5.68982">
        <ele>503.5</ele>
        <time>2023-05-16T10:33:25.485Z</time>
      </trkpt>
      <trkpt lat="44.88131" lon="5.68974">
        <ele>500.3</ele>
        <time>2023-05-16T10:33:35.259Z</time>
      </trkpt>
      <trkpt lat="44.8811" lon="5.68949">
        <ele>495.2</ele>
        <time>2023-05-16T10:33:44.055Z</time>
      </trkpt>
      <trkpt lat="44.88079" lon="5.68932">
        <ele>490.2</ele>
        <time>2023-05-16T10:33:54.702Z</time>
      </trkpt>
      <trkpt lat="44.88068" lon="5.68932">
        <ele>489.7</ele>
        <time>2023-05-16T10:33:58.224Z</time>
      </trkpt>
      <trkpt lat="44.88033" lon="5.68949">
        <ele>490.6</ele>
        <time>2023-05-16T10:34:12.836Z</time>
      </trkpt>
      <trkpt lat="44.88025" lon="5.68956">
        <ele>491.3</ele>
        <time>2023-05-16T10:34:17.214Z</time>
      </trkpt>
      <trkpt lat="44.87995" lon="5.68961">
        <ele>490.5</ele>
        <time>2023-05-16T10:34:27.415Z</time>
      </trkpt>
      <trkpt lat="44.87974" lon="5.68975">
        <ele>491</ele>
        <time>2023-05-16T10:34:36.503Z</time>
      </trkpt>
      <trkpt lat="44.8797" lon="5.68984">
        <ele>492.1</ele>
        <time>2023-05-16T10:34:41.014Z</time>
      </trkpt>
      <trkpt lat="44.87971" lon="5.68999">
        <ele>494.4</ele>
        <time>2023-05-16T10:34:49.360Z</time>
      </trkpt>
      <trkpt lat="44.87952" lon="5.69013">
        <ele>495.2</ele>
        <time>2023-05-16T10:34:58.181Z</time>
      </trkpt>
      <trkpt lat="44.87942" lon="5.69016">
        <ele>494.8</ele>
        <time>2023-05-16T10:35:01.507Z</time>
      </trkpt>
      <trkpt lat="44.87904" lon="5.69042">
        <ele>495.7</ele>
        <time>2023-05-16T10:35:18.021Z</time>
      </trkpt>
      <trkpt lat="44.87896" lon="5.69037">
        <ele>494.4</ele>
        <time>2023-05-16T10:35:20.822Z</time>
      </trkpt>
      <trkpt lat="44.87896" lon="5.69031">
        <ele>493.6</ele>
        <time>2023-05-16T10:35:22.183Z</time>
      </trkpt>
      <trkpt lat="44.87882" lon="5.6903">
        <ele>492.6</ele>
        <time>2023-05-16T10:35:26.671Z</time>
      </trkpt>
      <trkpt lat="44.87838" lon="5.69055">
        <ele>492.9</ele>
        <time>2023-05-16T10:35:44.368Z</time>
      </trkpt>
      <trkpt lat="44.87809" lon="5.69066">
        <ele>492.6</ele>
        <time>2023-05-16T10:35:55.024Z</time>
      </trkpt>
      <trkpt lat="44.87789" lon="5.69091">
        <ele>494.4</ele>
        <time>2023-05-16T10:36:07.161Z</time>
      </trkpt>
      <trkpt lat="44.87767" lon="5.69088">
        <ele>492.5</ele>
        <time>2023-05-16T10:36:14.237Z</time>
      </trkpt>
      <trkpt lat="44.87751" lon="5.69095">
        <ele>492.1</ele>
        <time>2023-05-16T10:36:19.938Z</time>
      </trkpt>
      <trkpt lat="44.87717" lon="5.69123">
        <ele>489.8</ele>
        <time>2023-05-16T10:36:32.541Z</time>
      </trkpt>
      <trkpt lat="44.87705" lon="5.6914">
        <ele>489.1</ele>
        <time>2023-05-16T10:36:38.039Z</time>
      </trkpt>
      <trkpt lat="44.87691" lon="5.69177">
        <ele>488.2</ele>
        <time>2023-05-16T10:36:47.964Z</time>
      </trkpt>
      <trkpt lat="44.87686" lon="5.69208">
        <ele>487.3</ele>
        <time>2023-05-16T10:36:55.275Z</time>
      </trkpt>
      <trkpt lat="44.87688" lon="5.69219">
        <ele>487.8</ele>
        <time>2023-05-16T10:36:58.867Z</time>
      </trkpt>
      <trkpt lat="44.87693" lon="5.69227">
        <ele>489</ele>
        <time>2023-05-16T10:37:03.614Z</time>
      </trkpt>
      <trkpt lat="44.87704" lon="5.69232">
        <ele>491.9</ele>
        <time>2023-05-16T10:37:14.040Z</time>
      </trkpt>
      <trkpt lat="44.87714" lon="5.69253">
        <ele>495.2</ele>
        <time>2023-05-16T10:37:26.437Z</time>
      </trkpt>
      <trkpt lat="44.87696" lon="5.69332">
        <ele>492.5</ele>
        <time>2023-05-16T10:37:45.263Z</time>
      </trkpt>
      <trkpt lat="44.87692" lon="5.69368">
        <ele>492</ele>
        <time>2023-05-16T10:37:54.170Z</time>
      </trkpt>
      <trkpt lat="44.87692" lon="5.69402">
        <ele>492.8</ele>
        <time>2023-05-16T10:38:03.955Z</time>
      </trkpt>
      <trkpt lat="44.87697" lon="5.69423">
        <ele>495.1</ele>
        <time>2023-05-16T10:38:13.376Z</time>
      </trkpt>
      <trkpt lat="44.87732" lon="5.69488">
        <ele>506.1</ele>
        <time>2023-05-16T10:38:54.326Z</time>
      </trkpt>
      <trkpt lat="44.87742" lon="5.69501">
        <ele>508.3</ele>
        <time>2023-05-16T10:39:02.963Z</time>
      </trkpt>
      <trkpt lat="44.87746" lon="5.69518">
        <ele>511.3</ele>
        <time>2023-05-16T10:39:13.754Z</time>
      </trkpt>
      <trkpt lat="44.87738" lon="5.69538">
        <ele>512.3</ele>
        <time>2023-05-16T10:39:21.003Z</time>
      </trkpt>
      <trkpt lat="44.87724" lon="5.69548">
        <ele>511.3</ele>
        <time>2023-05-16T10:39:26.026Z</time>
      </trkpt>
      <trkpt lat="44.87672" lon="5.69547">
        <ele>502.1</ele>
        <time>2023-05-16T10:39:42.675Z</time>
      </trkpt>
      <trkpt lat="44.87666" lon="5.6955">
        <ele>501.6</ele>
        <time>2023-05-16T10:39:44.713Z</time>
      </trkpt>
      <trkpt lat="44.87654" lon="5.69535">
        <ele>495.9</ele>
        <time>2023-05-16T10:39:49.846Z</time>
      </trkpt>
      <trkpt lat="44.87636" lon="5.69544">
        <ele>493.8</ele>
        <time>2023-05-16T10:39:55.959Z</time>
      </trkpt>
      <trkpt lat="44.87626" lon="5.69578">
        <ele>497.4</ele>
        <time>2023-05-16T10:40:11.133Z</time>
      </trkpt>
      <trkpt lat="44.87616" lon="5.69586">
        <ele>496.1</ele>
        <time>2023-05-16T10:40:14.813Z</time>
      </trkpt>
      <trkpt lat="44.87602" lon="5.6961">
        <ele>496.7</ele>
        <time>2023-05-16T10:40:23.590Z</time>
      </trkpt>
      <trkpt lat="44.87588" lon="5.69645">
        <ele>499.3</ele>
        <time>2023-05-16T10:40:37.624Z</time>
      </trkpt>
      <trkpt lat="44.87589" lon="5.69673">
        <ele>504.6</ele>
        <time>2023-05-16T10:40:56.753Z</time>
      </trkpt>
      <trkpt lat="44.87573" lon="5.69686">
        <ele>504.3</ele>
        <time>2023-05-16T10:41:03.182Z</time>
      </trkpt>
      <trkpt lat="44.8757" lon="5.69704">
        <ele>507.3</ele>
        <time>2023-05-16T10:41:13.994Z</time>
      </trkpt>
      <trkpt lat="44.87566" lon="5.69694">
        <ele>505.2</ele>
        <time>2023-05-16T10:41:16.600Z</time>
      </trkpt>
      <trkpt lat="44.87563" lon="5.69693">
        <ele>504.8</ele>
        <time>2023-05-16T10:41:17.587Z</time>
      </trkpt>
      <trkpt lat="44.87558" lon="5.69681">
        <ele>502</ele>
        <time>2023-05-16T10:41:20.745Z</time>
      </trkpt>
      <trkpt lat="44.87543" lon="5.6967">
        <ele>498.3</ele>
        <time>2023-05-16T10:41:26.157Z</time>
      </trkpt>
      <trkpt lat="44.87521" lon="5.69678">
        <ele>497.9</ele>
        <time>2023-05-16T10:41:34.035Z</time>
      </trkpt>
      <trkpt lat="44.87496" lon="5.6968">
        <ele>495.8</ele>
        <time>2023-05-16T10:41:42.052Z</time>
      </trkpt>
      <trkpt lat="44.8748" lon="5.69689">
        <ele>495.7</ele>
        <time>2023-05-16T10:41:48.243Z</time>
      </trkpt>
      <trkpt lat="44.87437" lon="5.69726">
        <ele>497.5</ele>
        <time>2023-05-16T10:42:08.864Z</time>
      </trkpt>
      <trkpt lat="44.8743" lon="5.69742">
        <ele>499.7</ele>
        <time>2023-05-16T10:42:17.435Z</time>
      </trkpt>
      <trkpt lat="44.87419" lon="5.69787">
        <ele>506.1</ele>
        <time>2023-05-16T10:42:41.274Z</time>
      </trkpt>
      <trkpt lat="44.87408" lon="5.6981">
        <ele>508.4</ele>
        <time>2023-05-16T10:42:51.876Z</time>
      </trkpt>
      <trkpt lat="44.8741" lon="5.69814">
        <ele>509.5</ele>
        <time>2023-05-16T10:42:55.995Z</time>
      </trkpt>
      <trkpt lat="44.87416" lon="5.69813">
        <ele>510.2</ele>
        <time>2023-05-16T10:42:59.240Z</time>
      </trkpt>
      <trkpt lat="44.87438" lon="5.69796">
        <ele>511.5</ele>
        <time>2023-05-16T10:43:10.061Z</time>
      </trkpt>
      <trkpt lat="44.87453" lon="5.69791">
        <ele>513.6</ele>
        <time>2023-05-16T10:43:18.969Z</time>
      </trkpt>
      <trkpt lat="44.87457" lon="5.69793">
        <ele>514.7</ele>
        <time>2023-05-16T10:43:22.930Z</time>
      </trkpt>
      <trkpt lat="44.87465" lon="5.69788">
        <ele>515.3</ele>
        <time>2023-05-16T10:43:26.921Z</time>
      </trkpt>
      <trkpt lat="44.87466" lon="5.69792">
        <ele>516.3</ele>
        <time>2023-05-16T10:43:30.729Z</time>
      </trkpt>
      <trkpt lat="44.87458" lon="5.69802">
        <ele>516.7</ele>
        <time>2023-05-16T10:43:35.129Z</time>
      </trkpt>
      <trkpt lat="44.8742" lon="5.69884">
        <ele>524.3</ele>
        <time>2023-05-16T10:44:11.580Z</time>
      </trkpt>
      <trkpt lat="44.87409" lon="5.69902">
        <ele>525.8</ele>
        <time>2023-05-16T10:44:19.816Z</time>
      </trkpt>
      <trkpt lat="44.87391" lon="5.69944">
        <ele>531.9</ele>
        <time>2023-05-16T10:44:43.078Z</time>
      </trkpt>
      <trkpt lat="44.87369" lon="5.69982">
        <ele>537.9</ele>
        <time>2023-05-16T10:45:06.084Z</time>
      </trkpt>
      <trkpt lat="44.87355" lon="5.69996">
        <ele>539.3</ele>
        <time>2023-05-16T10:45:14.263Z</time>
      </trkpt>
      <trkpt lat="44.87328" lon="5.7001">
        <ele>539.8</ele>
        <time>2023-05-16T10:45:25.372Z</time>
      </trkpt>
      <trkpt lat="44.87284" lon="5.70016">
        <ele>538</ele>
        <time>2023-05-16T10:45:39.685Z</time>
      </trkpt>
      <trkpt lat="44.87205" lon="5.70048">
        <ele>536.2</ele>
        <time>2023-05-16T10:46:07.822Z</time>
      </trkpt>
      <trkpt lat="44.87194" lon="5.7006">
        <ele>538</ele>
        <time>2023-05-16T10:46:15.662Z</time>
      </trkpt>
      <trkpt lat="44.87229" lon="5.70138">
        <ele>549.6</ele>
        <time>2023-05-16T10:46:59.740Z</time>
      </trkpt>
      <trkpt lat="44.87238" lon="5.70165">
        <ele>551.1</ele>
        <time>2023-05-16T10:47:09.461Z</time>
      </trkpt>
      <trkpt lat="44.87241" lon="5.70183">
        <ele>551.1</ele>
        <time>2023-05-16T10:47:14.256Z</time>
      </trkpt>
      <trkpt lat="44.87241" lon="5.70233">
        <ele>549.7</ele>
        <time>2023-05-16T10:47:25.770Z</time>
      </trkpt>
      <trkpt lat="44.87246" lon="5.70265">
        <ele>549.7</ele>
        <time>2023-05-16T10:47:34.266Z</time>
      </trkpt>
      <trkpt lat="44.87265" lon="5.70311">
        <ele>552.8</ele>
        <time>2023-05-16T10:47:52.285Z</time>
      </trkpt>
      <trkpt lat="44.87288" lon="5.7035">
        <ele>556</ele>
        <time>2023-05-16T10:48:09.863Z</time>
      </trkpt>
      <trkpt lat="44.873" lon="5.70387">
        <ele>556.3</ele>
        <time>2023-05-16T10:48:20.759Z</time>
      </trkpt>
      <trkpt lat="44.87313" lon="5.70411">
        <ele>557.3</ele>
        <time>2023-05-16T10:48:29.842Z</time>
      </trkpt>
      <trkpt lat="44.8731" lon="5.70421">
        <ele>556.4</ele>
        <time>2023-05-16T10:48:32.306Z</time>
      </trkpt>
      <trkpt lat="44.87265" lon="5.70424">
        <ele>547.2</ele>
        <time>2023-05-16T10:48:46.728Z</time>
      </trkpt>
      <trkpt lat="44.87244" lon="5.70433">
        <ele>542.6</ele>
        <time>2023-05-16T10:48:53.755Z</time>
      </trkpt>
      <trkpt lat="44.87232" lon="5.70443">
        <ele>539.4</ele>
        <time>2023-05-16T10:48:58.217Z</time>
      </trkpt>
      <trkpt lat="44.87215" lon="5.70468">
        <ele>534.5</ele>
        <time>2023-05-16T10:49:06.077Z</time>
      </trkpt>
      <trkpt lat="44.87215" lon="5.70483">
        <ele>534.3</ele>
        <time>2023-05-16T10:49:09.750Z</time>
      </trkpt>
      <trkpt lat="44.87227" lon="5.70514">
        <ele>539</ele>
        <time>2023-05-16T10:49:27.307Z</time>
      </trkpt>
      <trkpt lat="44.87201" lon="5.70587">
        <ele>536.4</ele>
        <time>2023-05-16T10:49:45.843Z</time>
      </trkpt>
      <trkpt lat="44.87182" lon="5.70626">
        <ele>534.2</ele>
        <time>2023-05-16T10:49:56.581Z</time>
      </trkpt>
      <trkpt lat="44.87165" lon="5.70653">
        <ele>530.8</ele>
        <time>2023-05-16T10:50:04.775Z</time>
      </trkpt>
      <trkpt lat="44.87139" lon="5.70682">
        <ele>521.2</ele>
        <time>2023-05-16T10:50:15.386Z</time>
      </trkpt>
      <trkpt lat="44.87132" lon="5.70697">
        <ele>518.7</ele>
        <time>2023-05-16T10:50:19.461Z</time>
      </trkpt>
      <trkpt lat="44.87132" lon="5.70703">
        <ele>518.9</ele>
        <time>2023-05-16T10:50:21.267Z</time>
      </trkpt>
      <trkpt lat="44.87156" lon="5.70726">
        <ele>527.3</ele>
        <time>2023-05-16T10:50:51.971Z</time>
      </trkpt>
      <trkpt lat="44.87166" lon="5.70742">
        <ele>530.1</ele>
        <time>2023-05-16T10:51:02.470Z</time>
      </trkpt>
      <trkpt lat="44.87168" lon="5.70755">
        <ele>531.2</ele>
        <time>2023-05-16T10:51:07.548Z</time>
      </trkpt>
      <trkpt lat="44.87166" lon="5.70787">
        <ele>534.7</ele>
        <time>2023-05-16T10:51:21.581Z</time>
      </trkpt>
      <trkpt lat="44.87163" lon="5.70796">
        <ele>535.2</ele>
        <time>2023-05-16T10:51:24.822Z</time>
      </trkpt>
      <trkpt lat="44.87159" lon="5.70797">
        <ele>534.5</ele>
        <time>2023-05-16T10:51:26.122Z</time>
      </trkpt>
      <trkpt lat="44.87146" lon="5.7079">
        <ele>530.4</ele>
        <time>2023-05-16T10:51:30.577Z</time>
      </trkpt>
      <trkpt lat="44.87126" lon="5.70794">
        <ele>526.4</ele>
        <time>2023-05-16T10:51:37.044Z</time>
      </trkpt>
      <trkpt lat="44.87106" lon="5.70805">
        <ele>524.1</ele>
        <time>2023-05-16T10:51:43.916Z</time>
      </trkpt>
      <trkpt lat="44.87103" lon="5.70819">
        <ele>526.5</ele>
        <time>2023-05-16T10:51:52.559Z</time>
      </trkpt>
      <trkpt lat="44.87105" lon="5.70832">
        <ele>529.6</ele>
        <time>2023-05-16T10:52:04.313Z</time>
      </trkpt>
      <trkpt lat="44.87101" lon="5.7085">
        <ele>535</ele>
        <time>2023-05-16T10:52:26.767Z</time>
      </trkpt>
      <trkpt lat="44.87091" lon="5.70854">
        <ele>534.6</ele>
        <time>2023-05-16T10:52:30.155Z</time>
      </trkpt>
      <trkpt lat="44.87072" lon="5.70849">
        <ele>528.5</ele>
        <time>2023-05-16T10:52:36.342Z</time>
      </trkpt>
      <trkpt lat="44.87053" lon="5.70823">
        <ele>515.3</ele>
        <time>2023-05-16T10:52:44.816Z</time>
      </trkpt>
      <trkpt lat="44.87044" lon="5.70826">
        <ele>513.7</ele>
        <time>2023-05-16T10:52:47.777Z</time>
      </trkpt>
      <trkpt lat="44.8703" lon="5.70841">
        <ele>514.7</ele>
        <time>2023-05-16T10:52:55.488Z</time>
      </trkpt>
      <trkpt lat="44.87027" lon="5.70849">
        <ele>516.8</ele>
        <time>2023-05-16T10:53:03.438Z</time>
      </trkpt>
      <trkpt lat="44.87028" lon="5.70879">
        <ele>528</ele>
        <time>2023-05-16T10:53:44.324Z</time>
      </trkpt>
      <trkpt lat="44.86999" lon="5.70941">
        <ele>541.5</ele>
        <time>2023-05-16T10:54:32.901Z</time>
      </trkpt>
      <trkpt lat="44.86978" lon="5.70944">
        <ele>531.9</ele>
        <time>2023-05-16T10:54:39.658Z</time>
      </trkpt>
      <trkpt lat="44.86955" lon="5.70927">
        <ele>515.4</ele>
        <time>2023-05-16T10:54:47.971Z</time>
      </trkpt>
      <trkpt lat="44.86952" lon="5.70928">
        <ele>514.2</ele>
        <time>2023-05-16T10:54:48.958Z</time>
      </trkpt>
      <trkpt lat="44.869" lon="5.70884">
        <ele>487.7</ele>
        <time>2023-05-16T10:55:08.369Z</time>
      </trkpt>
      <trkpt lat="44.86821" lon="5.70824">
        <ele>515.1</ele>
        <time>2023-05-16T10:56:49.823Z</time>
      </trkpt>
      <trkpt lat="44.86788" lon="5.70793">
        <ele>542.6</ele>
        <time>2023-05-16T10:58:05.976Z</time>
      </trkpt>
      <trkpt lat="44.86793" lon="5.70774">
        <ele>539.9</ele>
        <time>2023-05-16T10:58:10.575Z</time>
      </trkpt>
      <trkpt lat="44.86791" lon="5.70758">
        <ele>542.1</ele>
        <time>2023-05-16T10:58:18.755Z</time>
      </trkpt>
      <trkpt lat="44.86793" lon="5.70726">
        <ele>540.6</ele>
        <time>2023-05-16T10:58:26.044Z</time>
      </trkpt>
      <trkpt lat="44.86802" lon="5.70685">
        <ele>533.9</ele>
        <time>2023-05-16T10:58:35.783Z</time>
      </trkpt>
      <trkpt lat="44.86832" lon="5.70597">
        <ele>514.8</ele>
        <time>2023-05-16T10:58:57.940Z</time>
      </trkpt>
      <trkpt lat="44.86839" lon="5.70584">
        <ele>512</ele>
        <time>2023-05-16T10:59:01.644Z</time>
      </trkpt>
      <trkpt lat="44.86841" lon="5.70567">
        <ele>511.7</ele>
        <time>2023-05-16T10:59:05.792Z</time>
      </trkpt>
      <trkpt lat="44.86845" lon="5.7056">
        <ele>510.5</ele>
        <time>2023-05-16T10:59:07.832Z</time>
      </trkpt>
      <trkpt lat="44.8685" lon="5.70565">
        <ele>508.6</ele>
        <time>2023-05-16T10:59:09.794Z</time>
      </trkpt>
      <trkpt lat="44.86858" lon="5.70552">
        <ele>506.2</ele>
        <time>2023-05-16T10:59:13.701Z</time>
      </trkpt>
      <trkpt lat="44.8686" lon="5.70533">
        <ele>506.2</ele>
        <time>2023-05-16T10:59:18.682Z</time>
      </trkpt>
      <trkpt lat="44.86849" lon="5.70512">
        <ele>510.6</ele>
        <time>2023-05-16T10:59:34.505Z</time>
      </trkpt>
      <trkpt lat="44.86843" lon="5.70488">
        <ele>513.8</ele>
        <time>2023-05-16T10:59:46.662Z</time>
      </trkpt>
      <trkpt lat="44.86839" lon="5.70452">
        <ele>517.9</ele>
        <time>2023-05-16T11:00:02.882Z</time>
      </trkpt>
      <trkpt lat="44.86842" lon="5.70416">
        <ele>519.4</ele>
        <time>2023-05-16T11:00:14.208Z</time>
      </trkpt>
      <trkpt lat="44.86838" lon="5.70392">
        <ele>520.1</ele>
        <time>2023-05-16T11:00:21.463Z</time>
      </trkpt>
      <trkpt lat="44.86829" lon="5.70369">
        <ele>523.4</ele>
        <time>2023-05-16T11:00:34.004Z</time>
      </trkpt>
      <trkpt lat="44.86805" lon="5.7034">
        <ele>534.4</ele>
        <time>2023-05-16T11:01:16.669Z</time>
      </trkpt>
      <trkpt lat="44.86791" lon="5.70331">
        <ele>541.1</ele>
        <time>2023-05-16T11:01:45.452Z</time>
      </trkpt>
      <trkpt lat="44.86781" lon="5.70318">
        <ele>544.8</ele>
        <time>2023-05-16T11:01:58.837Z</time>
      </trkpt>
      <trkpt lat="44.86781" lon="5.70303">
        <ele>543.3</ele>
        <time>2023-05-16T11:02:02.240Z</time>
      </trkpt>
      <trkpt lat="44.86785" lon="5.70288">
        <ele>539.6</ele>
        <time>2023-05-16T11:02:05.877Z</time>
      </trkpt>
      <trkpt lat="44.86784" lon="5.70279">
        <ele>539.2</ele>
        <time>2023-05-16T11:02:07.944Z</time>
      </trkpt>
      <trkpt lat="44.86774" lon="5.70265">
        <ele>543.2</ele>
        <time>2023-05-16T11:02:22.509Z</time>
      </trkpt>
      <trkpt lat="44.86764" lon="5.70257">
        <ele>547.9</ele>
        <time>2023-05-16T11:02:42.165Z</time>
      </trkpt>
      <trkpt lat="44.86735" lon="5.70181">
        <ele>563.3</ele>
        <time>2023-05-16T11:03:37.536Z</time>
      </trkpt>
      <trkpt lat="44.86735" lon="5.7016">
        <ele>563.4</ele>
        <time>2023-05-16T11:03:43.096Z</time>
      </trkpt>
      <trkpt lat="44.86729" lon="5.70139">
        <ele>567.6</ele>
        <time>2023-05-16T11:03:58.229Z</time>
      </trkpt>
      <trkpt lat="44.8673" lon="5.70075">
        <ele>568.5</ele>
        <time>2023-05-16T11:04:15.888Z</time>
      </trkpt>
      <trkpt lat="44.86719" lon="5.70052">
        <ele>573</ele>
        <time>2023-05-16T11:04:32.107Z</time>
      </trkpt>
      <trkpt lat="44.86717" lon="5.7004">
        <ele>573.6</ele>
        <time>2023-05-16T11:04:36.093Z</time>
      </trkpt>
      <trkpt lat="44.86714" lon="5.70044">
        <ele>575.1</ele>
        <time>2023-05-16T11:04:42.023Z</time>
      </trkpt>
      <trkpt lat="44.86722" lon="5.70034">
        <ele>571.2</ele>
        <time>2023-05-16T11:04:45.445Z</time>
      </trkpt>
      <trkpt lat="44.86722" lon="5.70016">
        <ele>570.8</ele>
        <time>2023-05-16T11:04:49.691Z</time>
      </trkpt>
      <trkpt lat="44.86717" lon="5.70003">
        <ele>572.5</ele>
        <time>2023-05-16T11:04:56.360Z</time>
      </trkpt>
      <trkpt lat="44.86715" lon="5.70015">
        <ele>573.7</ele>
        <time>2023-05-16T11:05:01.430Z</time>
      </trkpt>
      <trkpt lat="44.86709" lon="5.70025">
        <ele>576.6</ele>
        <time>2023-05-16T11:05:12.237Z</time>
      </trkpt>
      <trkpt lat="44.8671" lon="5.70019">
        <ele>576</ele>
        <time>2023-05-16T11:05:13.636Z</time>
      </trkpt>
      <trkpt lat="44.86702" lon="5.70009">
        <ele>579</ele>
        <time>2023-05-16T11:05:24.538Z</time>
      </trkpt>
      <trkpt lat="44.86696" lon="5.70009">
        <ele>581.5</ele>
        <time>2023-05-16T11:05:35.084Z</time>
      </trkpt>
      <trkpt lat="44.86694" lon="5.70022">
        <ele>582.9</ele>
        <time>2023-05-16T11:05:40.783Z</time>
      </trkpt>
      <trkpt lat="44.8669" lon="5.70027">
        <ele>584.9</ele>
        <time>2023-05-16T11:05:48.800Z</time>
      </trkpt>
      <trkpt lat="44.86678" lon="5.70031">
        <ele>590.3</ele>
        <time>2023-05-16T11:06:12.045Z</time>
      </trkpt>
      <trkpt lat="44.86674" lon="5.70039">
        <ele>592.6</ele>
        <time>2023-05-16T11:06:20.792Z</time>
      </trkpt>
      <trkpt lat="44.86663" lon="5.70036">
        <ele>596.5</ele>
        <time>2023-05-16T11:06:35.918Z</time>
      </trkpt>
      <trkpt lat="44.86646" lon="5.70012">
        <ele>598.9</ele>
        <time>2023-05-16T11:06:48.123Z</time>
      </trkpt>
      <trkpt lat="44.86649" lon="5.69986">
        <ele>594.9</ele>
        <time>2023-05-16T11:06:54.100Z</time>
      </trkpt>
      <trkpt lat="44.86648" lon="5.69971">
        <ele>592.6</ele>
        <time>2023-05-16T11:06:57.519Z</time>
      </trkpt>
      <trkpt lat="44.86641" lon="5.69952">
        <ele>591.1</ele>
        <time>2023-05-16T11:07:02.378Z</time>
      </trkpt>
      <trkpt lat="44.86624" lon="5.69928">
        <ele>591.1</ele>
        <time>2023-05-16T11:07:11.177Z</time>
      </trkpt>
      <trkpt lat="44.86619" lon="5.69913">
        <ele>589.9</ele>
        <time>2023-05-16T11:07:14.938Z</time>
      </trkpt>
      <trkpt lat="44.86598" lon="5.69893">
        <ele>592</ele>
        <time>2023-05-16T11:07:27.067Z</time>
      </trkpt>
      <trkpt lat="44.86586" lon="5.69875">
        <ele>592.3</ele>
        <time>2023-05-16T11:07:33.826Z</time>
      </trkpt>
      <trkpt lat="44.86562" lon="5.69852">
        <ele>595.5</ele>
        <time>2023-05-16T11:07:49.103Z</time>
      </trkpt>
      <trkpt lat="44.86555" lon="5.69822">
        <ele>595.5</ele>
        <time>2023-05-16T11:07:57.294Z</time>
      </trkpt>
      <trkpt lat="44.8655" lon="5.69815">
        <ele>597.1</ele>
        <time>2023-05-16T11:08:03.064Z</time>
      </trkpt>
      <trkpt lat="44.86537" lon="5.69818">
        <ele>600.7</ele>
        <time>2023-05-16T11:08:16.095Z</time>
      </trkpt>
      <trkpt lat="44.86534" lon="5.69815">
        <ele>601.6</ele>
        <time>2023-05-16T11:08:19.329Z</time>
      </trkpt>
      <trkpt lat="44.86537" lon="5.69791">
        <ele>601.2</ele>
        <time>2023-05-16T11:08:25.220Z</time>
      </trkpt>
      <trkpt lat="44.86527" lon="5.69774">
        <ele>604.1</ele>
        <time>2023-05-16T11:08:36.094Z</time>
      </trkpt>
      <trkpt lat="44.86531" lon="5.69742">
        <ele>604.5</ele>
        <time>2023-05-16T11:08:44.989Z</time>
      </trkpt>
      <trkpt lat="44.86523" lon="5.69715">
        <ele>609.2</ele>
        <time>2023-05-16T11:09:01.943Z</time>
      </trkpt>
      <trkpt lat="44.86526" lon="5.69702">
        <ele>610</ele>
        <time>2023-05-16T11:09:06.577Z</time>
      </trkpt>
      <trkpt lat="44.86531" lon="5.69696">
        <ele>609.8</ele>
        <time>2023-05-16T11:09:08.767Z</time>
      </trkpt>
      <trkpt lat="44.86549" lon="5.69698">
        <ele>606.2</ele>
        <time>2023-05-16T11:09:14.548Z</time>
      </trkpt>
      <trkpt lat="44.86558" lon="5.69695">
        <ele>604.9</ele>
        <time>2023-05-16T11:09:17.508Z</time>
      </trkpt>
      <trkpt lat="44.86586" lon="5.69671">
        <ele>604.1</ele>
        <time>2023-05-16T11:09:28.640Z</time>
      </trkpt>
      <trkpt lat="44.86605" lon="5.69665">
        <ele>603.7</ele>
        <time>2023-05-16T11:09:35.332Z</time>
      </trkpt>
      <trkpt lat="44.86612" lon="5.69653">
        <ele>604.7</ele>
        <time>2023-05-16T11:09:40.751Z</time>
      </trkpt>
      <trkpt lat="44.86612" lon="5.69647">
        <ele>605.5</ele>
        <time>2023-05-16T11:09:43.737Z</time>
      </trkpt>
      <trkpt lat="44.86619" lon="5.6965">
        <ele>604.5</ele>
        <time>2023-05-16T11:09:46.079Z</time>
      </trkpt>
      <trkpt lat="44.86625" lon="5.69645">
        <ele>604.6</ele>
        <time>2023-05-16T11:09:48.745Z</time>
      </trkpt>
      <trkpt lat="44.86629" lon="5.69634">
        <ele>605.5</ele>
        <time>2023-05-16T11:09:53.238Z</time>
      </trkpt>
      <trkpt lat="44.86629" lon="5.69614">
        <ele>607.8</ele>
        <time>2023-05-16T11:10:02.258Z</time>
      </trkpt>
      <trkpt lat="44.86607" lon="5.69592">
        <ele>613.4</ele>
        <time>2023-05-16T11:10:22.700Z</time>
      </trkpt>
      <trkpt lat="44.86605" lon="5.69586">
        <ele>614.5</ele>
        <time>2023-05-16T11:10:26.659Z</time>
      </trkpt>
      <trkpt lat="44.8661" lon="5.69571">
        <ele>615.3</ele>
        <time>2023-05-16T11:10:32.009Z</time>
      </trkpt>
      <trkpt lat="44.86621" lon="5.69553">
        <ele>615.5</ele>
        <time>2023-05-16T11:10:38.403Z</time>
      </trkpt>
      <trkpt lat="44.86632" lon="5.69511">
        <ele>617.9</ele>
        <time>2023-05-16T11:10:53.225Z</time>
      </trkpt>
      <trkpt lat="44.86634" lon="5.69486">
        <ele>619.7</ele>
        <time>2023-05-16T11:11:02.311Z</time>
      </trkpt>
      <trkpt lat="44.8663" lon="5.69479">
        <ele>620.8</ele>
        <time>2023-05-16T11:11:06.528Z</time>
      </trkpt>
      <trkpt lat="44.86619" lon="5.69485">
        <ele>621.9</ele>
        <time>2023-05-16T11:11:12.379Z</time>
      </trkpt>
      <trkpt lat="44.86594" lon="5.69524">
        <ele>622.2</ele>
        <time>2023-05-16T11:11:26.360Z</time>
      </trkpt>
      <trkpt lat="44.86576" lon="5.69531">
        <ele>623.7</ele>
        <time>2023-05-16T11:11:35.221Z</time>
      </trkpt>
      <trkpt lat="44.86548" lon="5.69526">
        <ele>626.6</ele>
        <time>2023-05-16T11:11:49.693Z</time>
      </trkpt>
      <trkpt lat="44.86532" lon="5.69514">
        <ele>629.4</ele>
        <time>2023-05-16T11:12:00.895Z</time>
      </trkpt>
      <trkpt lat="44.8647" lon="5.69444">
        <ele>644.1</ele>
        <time>2023-05-16T11:12:56.023Z</time>
      </trkpt>
      <trkpt lat="44.86442" lon="5.69418">
        <ele>649.9</ele>
        <time>2023-05-16T11:13:18.241Z</time>
      </trkpt>
      <trkpt lat="44.86409" lon="5.69406">
        <ele>655.2</ele>
        <time>2023-05-16T11:13:39.388Z</time>
      </trkpt>
      <trkpt lat="44.86367" lon="5.69407">
        <ele>663.6</ele>
        <time>2023-05-16T11:14:10.282Z</time>
      </trkpt>
      <trkpt lat="44.86348" lon="5.69382">
        <ele>668.4</ele>
        <time>2023-05-16T11:14:28.293Z</time>
      </trkpt>
      <trkpt lat="44.86346" lon="5.69374">
        <ele>669.1</ele>
        <time>2023-05-16T11:14:31.529Z</time>
      </trkpt>
      <trkpt lat="44.86349" lon="5.6935">
        <ele>669.5</ele>
        <time>2023-05-16T11:14:38.323Z</time>
      </trkpt>
      <trkpt lat="44.86346" lon="5.6934">
        <ele>670.5</ele>
        <time>2023-05-16T11:14:42.670Z</time>
      </trkpt>
      <trkpt lat="44.86356" lon="5.6929">
        <ele>669.2</ele>
        <time>2023-05-16T11:14:54.784Z</time>
      </trkpt>
      <trkpt lat="44.86365" lon="5.69266">
        <ele>667.9</ele>
        <time>2023-05-16T11:15:00.945Z</time>
      </trkpt>
      <trkpt lat="44.86386" lon="5.69236">
        <ele>665.4</ele>
        <time>2023-05-16T11:15:10.513Z</time>
      </trkpt>
      <trkpt lat="44.86456" lon="5.69174">
        <ele>657.1</ele>
        <time>2023-05-16T11:15:36.973Z</time>
      </trkpt>
      <trkpt lat="44.86487" lon="5.69151">
        <ele>652.9</ele>
        <time>2023-05-16T11:15:48.187Z</time>
      </trkpt>
      <trkpt lat="44.865" lon="5.69135">
        <ele>651.5</ele>
        <time>2023-05-16T11:15:53.710Z</time>
      </trkpt>
      <trkpt lat="44.86538" lon="5.69063">
        <ele>650.5</ele>
        <time>2023-05-16T11:16:15.900Z</time>
      </trkpt>
      <trkpt lat="44.86537" lon="5.69056">
        <ele>650.9</ele>
        <time>2023-05-16T11:16:18.291Z</time>
      </trkpt>
      <trkpt lat="44.86518" lon="5.69037">
        <ele>653.6</ele>
        <time>2023-05-16T11:16:30.802Z</time>
      </trkpt>
      <trkpt lat="44.86512" lon="5.69038">
        <ele>654</ele>
        <time>2023-05-16T11:16:33.535Z</time>
      </trkpt>
      <trkpt lat="44.86491" lon="5.69026">
        <ele>656.4</ele>
        <time>2023-05-16T11:16:45.283Z</time>
      </trkpt>
      <trkpt lat="44.86457" lon="5.68993">
        <ele>661.4</ele>
        <time>2023-05-16T11:17:07.869Z</time>
      </trkpt>
      <trkpt lat="44.86421" lon="5.68945">
        <ele>671.6</ele>
        <time>2023-05-16T11:17:45.160Z</time>
      </trkpt>
      <trkpt lat="44.86413" lon="5.68928">
        <ele>674.9</ele>
        <time>2023-05-16T11:17:57.057Z</time>
      </trkpt>
      <trkpt lat="44.86411" lon="5.6893">
        <ele>674.9</ele>
        <time>2023-05-16T11:17:57.954Z</time>
      </trkpt>
      <trkpt lat="44.86406" lon="5.6892">
        <ele>676.7</ele>
        <time>2023-05-16T11:18:04.525Z</time>
      </trkpt>
      <trkpt lat="44.86386" lon="5.68908">
        <ele>679.7</ele>
        <time>2023-05-16T11:18:17.169Z</time>
      </trkpt>
      <trkpt lat="44.86385" lon="5.68896">
        <ele>680.2</ele>
        <time>2023-05-16T11:18:20.944Z</time>
      </trkpt>
      <trkpt lat="44.86378" lon="5.68889">
        <ele>681</ele>
        <time>2023-05-16T11:18:25.200Z</time>
      </trkpt>
      <trkpt lat="44.86371" lon="5.68894">
        <ele>681.3</ele>
        <time>2023-05-16T11:18:28.439Z</time>
      </trkpt>
      <trkpt lat="44.86367" lon="5.68892">
        <ele>681.7</ele>
        <time>2023-05-16T11:18:30.552Z</time>
      </trkpt>
      <trkpt lat="44.86362" lon="5.68881">
        <ele>682.1</ele>
        <time>2023-05-16T11:18:34.436Z</time>
      </trkpt>
      <trkpt lat="44.86359" lon="5.6888">
        <ele>682.3</ele>
        <time>2023-05-16T11:18:35.825Z</time>
      </trkpt>
      <trkpt lat="44.86298" lon="5.68929">
        <ele>687.4</ele>
        <time>2023-05-16T11:19:08.283Z</time>
      </trkpt>
      <trkpt lat="44.86271" lon="5.6893">
        <ele>690</ele>
        <time>2023-05-16T11:19:21.823Z</time>
      </trkpt>
      <trkpt lat="44.86265" lon="5.68927">
        <ele>690.4</ele>
        <time>2023-05-16T11:19:24.671Z</time>
      </trkpt>
      <trkpt lat="44.86292" lon="5.6893">
        <ele>688</ele>
        <time>2023-05-16T11:19:33.342Z</time>
      </trkpt>
      <trkpt lat="44.863" lon="5.68934">
        <ele>687.2</ele>
        <time>2023-05-16T11:19:36.059Z</time>
      </trkpt>
      <trkpt lat="44.86303" lon="5.68931">
        <ele>686.9</ele>
        <time>2023-05-16T11:19:37.236Z</time>
      </trkpt>
      <trkpt lat="44.86268" lon="5.68931">
        <ele>690.3</ele>
        <time>2023-05-16T11:19:54.835Z</time>
      </trkpt>
      <trkpt lat="44.86238" lon="5.68925">
        <ele>691.6</ele>
        <time>2023-05-16T11:20:07.532Z</time>
      </trkpt>
      <trkpt lat="44.86247" lon="5.68917">
        <ele>691</ele>
        <time>2023-05-16T11:20:10.938Z</time>
      </trkpt>
      <trkpt lat="44.8625" lon="5.68902">
        <ele>689.2</ele>
        <time>2023-05-16T11:20:14.475Z</time>
      </trkpt>
      <trkpt lat="44.86255" lon="5.68901">
        <ele>688.8</ele>
        <time>2023-05-16T11:20:16.091Z</time>
      </trkpt>
      <trkpt lat="44.86241" lon="5.68883">
        <ele>686.8</ele>
        <time>2023-05-16T11:20:22.155Z</time>
      </trkpt>
      <trkpt lat="44.86242" lon="5.68879">
        <ele>686.3</ele>
        <time>2023-05-16T11:20:23.118Z</time>
      </trkpt>
      <trkpt lat="44.86261" lon="5.68883">
        <ele>686.5</ele>
        <time>2023-05-16T11:20:30.377Z</time>
      </trkpt>
      <trkpt lat="44.86267" lon="5.68875">
        <ele>685.5</ele>
        <time>2023-05-16T11:20:33.020Z</time>
      </trkpt>
      <trkpt lat="44.86289" lon="5.68866">
        <ele>684.1</ele>
        <time>2023-05-16T11:20:40.354Z</time>
      </trkpt>
      <trkpt lat="44.86354" lon="5.68812">
        <ele>679.9</ele>
        <time>2023-05-16T11:21:04.503Z</time>
      </trkpt>
      <trkpt lat="44.8636" lon="5.68786">
        <ele>677.4</ele>
        <time>2023-05-16T11:21:10.708Z</time>
      </trkpt>
      <trkpt lat="44.86366" lon="5.68776">
        <ele>676.6</ele>
        <time>2023-05-16T11:21:13.681Z</time>
      </trkpt>
      <trkpt lat="44.86383" lon="5.68766">
        <ele>676.4</ele>
        <time>2023-05-16T11:21:20.200Z</time>
      </trkpt>
      <trkpt lat="44.86387" lon="5.68748">
        <ele>674.9</ele>
        <time>2023-05-16T11:21:24.480Z</time>
      </trkpt>
      <trkpt lat="44.86402" lon="5.68737">
        <ele>674.2</ele>
        <time>2023-05-16T11:21:29.943Z</time>
      </trkpt>
      <trkpt lat="44.8642" lon="5.68713">
        <ele>672.1</ele>
        <time>2023-05-16T11:21:37.872Z</time>
      </trkpt>
      <trkpt lat="44.86441" lon="5.68675">
        <ele>670.4</ele>
        <time>2023-05-16T11:21:48.806Z</time>
      </trkpt>
      <trkpt lat="44.86454" lon="5.68644">
        <ele>668.7</ele>
        <time>2023-05-16T11:21:56.979Z</time>
      </trkpt>
      <trkpt lat="44.86454" lon="5.68633">
        <ele>667.2</ele>
        <time>2023-05-16T11:21:59.475Z</time>
      </trkpt>
      <trkpt lat="44.86462" lon="5.68613">
        <ele>665.6</ele>
        <time>2023-05-16T11:22:04.686Z</time>
      </trkpt>
      <trkpt lat="44.86462" lon="5.68603">
        <ele>664.2</ele>
        <time>2023-05-16T11:22:06.955Z</time>
      </trkpt>
      <trkpt lat="44.86456" lon="5.68582">
        <ele>660.5</ele>
        <time>2023-05-16T11:22:12.093Z</time>
      </trkpt>
      <trkpt lat="44.86456" lon="5.68564">
        <ele>658.2</ele>
        <time>2023-05-16T11:22:16.177Z</time>
      </trkpt>
      <trkpt lat="44.86463" lon="5.6853">
        <ele>654.6</ele>
        <time>2023-05-16T11:22:24.211Z</time>
      </trkpt>
      <trkpt lat="44.86462" lon="5.68523">
        <ele>653.5</ele>
        <time>2023-05-16T11:22:25.832Z</time>
      </trkpt>
      <trkpt lat="44.86477" lon="5.68506">
        <ele>653.4</ele>
        <time>2023-05-16T11:22:32.760Z</time>
      </trkpt>
      <trkpt lat="44.865" lon="5.68466">
        <ele>651.1</ele>
        <time>2023-05-16T11:22:44.448Z</time>
      </trkpt>
      <trkpt lat="44.86512" lon="5.68437">
        <ele>649.7</ele>
        <time>2023-05-16T11:22:52.067Z</time>
      </trkpt>
      <trkpt lat="44.86518" lon="5.68408">
        <ele>646.3</ele>
        <time>2023-05-16T11:22:58.923Z</time>
      </trkpt>
      <trkpt lat="44.86527" lon="5.68397">
        <ele>646.1</ele>
        <time>2023-05-16T11:23:03.062Z</time>
      </trkpt>
      <trkpt lat="44.86532" lon="5.68397">
        <ele>647.4</ele>
        <time>2023-05-16T11:23:07.744Z</time>
      </trkpt>
      <trkpt lat="44.86545" lon="5.68383">
        <ele>647.9</ele>
        <time>2023-05-16T11:23:14.330Z</time>
      </trkpt>
      <trkpt lat="44.86547" lon="5.68376">
        <ele>647.1</ele>
        <time>2023-05-16T11:23:16.042Z</time>
      </trkpt>
      <trkpt lat="44.86561" lon="5.68361">
        <ele>648.1</ele>
        <time>2023-05-16T11:23:23.754Z</time>
      </trkpt>
      <trkpt lat="44.86568" lon="5.68348">
        <ele>647.9</ele>
        <time>2023-05-16T11:23:27.771Z</time>
      </trkpt>
      <trkpt lat="44.86574" lon="5.68319">
        <ele>644.1</ele>
        <time>2023-05-16T11:23:34.626Z</time>
      </trkpt>
      <trkpt lat="44.86584" lon="5.68313">
        <ele>645.7</ele>
        <time>2023-05-16T11:23:41.165Z</time>
      </trkpt>
      <trkpt lat="44.86601" lon="5.68315">
        <ele>647.3</ele>
        <time>2023-05-16T11:23:49.643Z</time>
      </trkpt>
      <trkpt lat="44.86643" lon="5.68282">
        <ele>645.7</ele>
        <time>2023-05-16T11:24:05.553Z</time>
      </trkpt>
      <trkpt lat="44.86648" lon="5.68275">
        <ele>645.4</ele>
        <time>2023-05-16T11:24:07.821Z</time>
      </trkpt>
      <trkpt lat="44.86662" lon="5.68234">
        <ele>641.1</ele>
        <time>2023-05-16T11:24:18.148Z</time>
      </trkpt>
      <trkpt lat="44.86671" lon="5.68235">
        <ele>640.9</ele>
        <time>2023-05-16T11:24:21.236Z</time>
      </trkpt>
      <trkpt lat="44.86689" lon="5.68187">
        <ele>628.7</ele>
        <time>2023-05-16T11:24:33.558Z</time>
      </trkpt>
      <trkpt lat="44.8669" lon="5.68145">
        <ele>621.7</ele>
        <time>2023-05-16T11:24:43.093Z</time>
      </trkpt>
      <trkpt lat="44.86714" lon="5.6812">
        <ele>617.8</ele>
        <time>2023-05-16T11:24:52.644Z</time>
      </trkpt>
      <trkpt lat="44.86728" lon="5.68073">
        <ele>615.4</ele>
        <time>2023-05-16T11:25:04.212Z</time>
      </trkpt>
      <trkpt lat="44.86726" lon="5.68064">
        <ele>614</ele>
        <time>2023-05-16T11:25:06.352Z</time>
      </trkpt>
      <trkpt lat="44.86729" lon="5.68054">
        <ele>613.5</ele>
        <time>2023-05-16T11:25:08.816Z</time>
      </trkpt>
      <trkpt lat="44.86806" lon="5.6792">
        <ele>604.9</ele>
        <time>2023-05-16T11:25:47.959Z</time>
      </trkpt>
      <trkpt lat="44.86818" lon="5.67893">
        <ele>606</ele>
        <time>2023-05-16T11:25:57.604Z</time>
      </trkpt>
      <trkpt lat="44.86851" lon="5.67836">
        <ele>602.7</ele>
        <time>2023-05-16T11:26:14.304Z</time>
      </trkpt>
      <trkpt lat="44.86866" lon="5.67792">
        <ele>598.8</ele>
        <time>2023-05-16T11:26:25.383Z</time>
      </trkpt>
      <trkpt lat="44.86915" lon="5.67683">
        <ele>595.2</ele>
        <time>2023-05-16T11:26:55.121Z</time>
      </trkpt>
      <trkpt lat="44.86923" lon="5.67675">
        <ele>594.1</ele>
        <time>2023-05-16T11:26:58.260Z</time>
      </trkpt>
      <trkpt lat="44.86944" lon="5.67623">
        <ele>590.9</ele>
        <time>2023-05-16T11:27:11.840Z</time>
      </trkpt>
      <trkpt lat="44.86957" lon="5.67609">
        <ele>589.5</ele>
        <time>2023-05-16T11:27:17.076Z</time>
      </trkpt>
      <trkpt lat="44.8696" lon="5.67592">
        <ele>589.3</ele>
        <time>2023-05-16T11:27:21.401Z</time>
      </trkpt>
      <trkpt lat="44.8696" lon="5.67565">
        <ele>589.4</ele>
        <time>2023-05-16T11:27:28.516Z</time>
      </trkpt>
      <trkpt lat="44.86955" lon="5.67538">
        <ele>589.8</ele>
        <time>2023-05-16T11:27:36.223Z</time>
      </trkpt>
      <trkpt lat="44.86966" lon="5.67514">
        <ele>588.9</ele>
        <time>2023-05-16T11:27:42.711Z</time>
      </trkpt>
      <trkpt lat="44.8699" lon="5.67477">
        <ele>584.6</ele>
        <time>2023-05-16T11:27:54.092Z</time>
      </trkpt>
      <trkpt lat="44.87006" lon="5.67446">
        <ele>577.3</ele>
        <time>2023-05-16T11:28:02.793Z</time>
      </trkpt>
      <trkpt lat="44.8702" lon="5.67407">
        <ele>560.9</ele>
        <time>2023-05-16T11:28:12.712Z</time>
      </trkpt>
      <trkpt lat="44.87021" lon="5.67397">
        <ele>555.6</ele>
        <time>2023-05-16T11:28:15.003Z</time>
      </trkpt>
      <trkpt lat="44.87042" lon="5.67423">
        <ele>552.7</ele>
        <time>2023-05-16T11:28:23.948Z</time>
      </trkpt>
      <trkpt lat="44.87042" lon="5.67427">
        <ele>553.3</ele>
        <time>2023-05-16T11:28:26.131Z</time>
      </trkpt>
      <trkpt lat="44.87023" lon="5.6746">
        <ele>569.1</ele>
        <time>2023-05-16T11:29:24.012Z</time>
      </trkpt>
      <trkpt lat="44.87026" lon="5.67493">
        <ele>571.7</ele>
        <time>2023-05-16T11:29:36.426Z</time>
      </trkpt>
      <trkpt lat="44.8704" lon="5.67532">
        <ele>565.5</ele>
        <time>2023-05-16T11:29:46.345Z</time>
      </trkpt>
      <trkpt lat="44.87034" lon="5.67561">
        <ele>568.8</ele>
        <time>2023-05-16T11:29:59.562Z</time>
      </trkpt>
      <trkpt lat="44.87041" lon="5.67584">
        <ele>565.3</ele>
        <time>2023-05-16T11:30:05.241Z</time>
      </trkpt>
      <trkpt lat="44.87046" lon="5.67591">
        <ele>562.7</ele>
        <time>2023-05-16T11:30:07.496Z</time>
      </trkpt>
      <trkpt lat="44.87052" lon="5.6759">
        <ele>559.7</ele>
        <time>2023-05-16T11:30:09.431Z</time>
      </trkpt>
      <trkpt lat="44.87077" lon="5.67609">
        <ele>547.1</ele>
        <time>2023-05-16T11:30:18.521Z</time>
      </trkpt>
      <trkpt lat="44.87081" lon="5.67617">
        <ele>545.1</ele>
        <time>2023-05-16T11:30:20.743Z</time>
      </trkpt>
      <trkpt lat="44.87085" lon="5.6764">
        <ele>543</ele>
        <time>2023-05-16T11:30:26.116Z</time>
      </trkpt>
      <trkpt lat="44.87088" lon="5.67638">
        <ele>541.3</ele>
        <time>2023-05-16T11:30:27.178Z</time>
      </trkpt>
      <trkpt lat="44.87088" lon="5.67644">
        <ele>541.3</ele>
        <time>2023-05-16T11:30:28.734Z</time>
      </trkpt>
      <trkpt lat="44.87091" lon="5.67643">
        <ele>539.6</ele>
        <time>2023-05-16T11:30:29.721Z</time>
      </trkpt>
      <trkpt lat="44.87079" lon="5.67656">
        <ele>546</ele>
        <time>2023-05-16T11:30:56.897Z</time>
      </trkpt>
      <trkpt lat="44.87085" lon="5.67661">
        <ele>543.1</ele>
        <time>2023-05-16T11:30:59.128Z</time>
      </trkpt>
      <trkpt lat="44.87098" lon="5.67661">
        <ele>536</ele>
        <time>2023-05-16T11:31:03.290Z</time>
      </trkpt>
      <trkpt lat="44.87111" lon="5.67649">
        <ele>528.4</ele>
        <time>2023-05-16T11:31:08.263Z</time>
      </trkpt>
      <trkpt lat="44.87165" lon="5.6767">
        <ele>499.8</ele>
        <time>2023-05-16T11:31:26.196Z</time>
      </trkpt>
      <trkpt lat="44.87171" lon="5.67676">
        <ele>498.9</ele>
        <time>2023-05-16T11:31:28.550Z</time>
      </trkpt>
      <trkpt lat="44.87182" lon="5.67679">
        <ele>499.3</ele>
        <time>2023-05-16T11:31:33.137Z</time>
      </trkpt>
      <trkpt lat="44.87195" lon="5.67689">
        <ele>499.1</ele>
        <time>2023-05-16T11:31:38.335Z</time>
      </trkpt>
      <trkpt lat="44.87285" lon="5.67726">
        <ele>513.3</ele>
        <time>2023-05-16T11:32:35.636Z</time>
      </trkpt>
      <trkpt lat="44.87286" lon="5.67732">
        <ele>512.6</ele>
        <time>2023-05-16T11:32:37.034Z</time>
      </trkpt>
      <trkpt lat="44.87294" lon="5.67733">
        <ele>516.9</ele>
        <time>2023-05-16T11:32:52.462Z</time>
      </trkpt>
      <trkpt lat="44.87297" lon="5.67738">
        <ele>517.5</ele>
        <time>2023-05-16T11:32:55.078Z</time>
      </trkpt>
      <trkpt lat="44.87309" lon="5.67738">
        <ele>524.2</ele>
        <time>2023-05-16T11:33:18.128Z</time>
      </trkpt>
      <trkpt lat="44.87324" lon="5.67749">
        <ele>530.1</ele>
        <time>2023-05-16T11:33:41.037Z</time>
      </trkpt>
      <trkpt lat="44.87338" lon="5.67751">
        <ele>534.7</ele>
        <time>2023-05-16T11:33:58.442Z</time>
      </trkpt>
      <trkpt lat="44.87345" lon="5.67747">
        <ele>537</ele>
        <time>2023-05-16T11:34:06.952Z</time>
      </trkpt>
      <trkpt lat="44.87345" lon="5.67743">
        <ele>538</ele>
        <time>2023-05-16T11:34:10.853Z</time>
      </trkpt>
      <trkpt lat="44.87351" lon="5.67744">
        <ele>538.4</ele>
        <time>2023-05-16T11:34:13.586Z</time>
      </trkpt>
      <trkpt lat="44.87361" lon="5.67737">
        <ele>541.4</ele>
        <time>2023-05-16T11:34:24.423Z</time>
      </trkpt>
      <trkpt lat="44.87372" lon="5.67739">
        <ele>542.2</ele>
        <time>2023-05-16T11:34:29.542Z</time>
      </trkpt>
      <trkpt lat="44.87385" lon="5.67747">
        <ele>541.5</ele>
        <time>2023-05-16T11:34:34.083Z</time>
      </trkpt>
      <trkpt lat="44.874" lon="5.67745">
        <ele>543.8</ele>
        <time>2023-05-16T11:34:43.333Z</time>
      </trkpt>
      <trkpt lat="44.87408" lon="5.67735">
        <ele>547.9</ele>
        <time>2023-05-16T11:34:59.964Z</time>
      </trkpt>
      <trkpt lat="44.87411" lon="5.67736">
        <ele>548</ele>
        <time>2023-05-16T11:35:01.212Z</time>
      </trkpt>
      <trkpt lat="44.87421" lon="5.67727">
        <ele>552.1</ele>
        <time>2023-05-16T11:35:17.067Z</time>
      </trkpt>
      <trkpt lat="44.87436" lon="5.6772">
        <ele>555.6</ele>
        <time>2023-05-16T11:35:29.722Z</time>
      </trkpt>
      <trkpt lat="44.87458" lon="5.67719">
        <ele>557.7</ele>
        <time>2023-05-16T11:35:40.723Z</time>
      </trkpt>
      <trkpt lat="44.87467" lon="5.67709">
        <ele>561.7</ele>
        <time>2023-05-16T11:35:56.258Z</time>
      </trkpt>
      <trkpt lat="44.87504" lon="5.67702">
        <ele>566.6</ele>
        <time>2023-05-16T11:36:17.446Z</time>
      </trkpt>
      <trkpt lat="44.8762" lon="5.67727">
        <ele>559.6</ele>
        <time>2023-05-16T11:36:55.014Z</time>
      </trkpt>
      <trkpt lat="44.87696" lon="5.67729">
        <ele>561.2</ele>
        <time>2023-05-16T11:37:24.713Z</time>
      </trkpt>
      <trkpt lat="44.87754" lon="5.67717">
        <ele>565.5</ele>
        <time>2023-05-16T11:37:51.883Z</time>
      </trkpt>
      <trkpt lat="44.87761" lon="5.67719">
        <ele>563.9</ele>
        <time>2023-05-16T11:37:54.169Z</time>
      </trkpt>
      <trkpt lat="44.87844" lon="5.67708">
        <ele>557.1</ele>
        <time>2023-05-16T11:38:20.858Z</time>
      </trkpt>
      <trkpt lat="44.879" lon="5.67695">
        <ele>557.8</ele>
        <time>2023-05-16T11:38:42.433Z</time>
      </trkpt>
      <trkpt lat="44.87956" lon="5.67674">
        <ele>561.2</ele>
        <time>2023-05-16T11:39:08.003Z</time>
      </trkpt>
      <trkpt lat="44.87992" lon="5.67646">
        <ele>567.5</ele>
        <time>2023-05-16T11:39:33.297Z</time>
      </trkpt>
      <trkpt lat="44.88003" lon="5.67641">
        <ele>567.4</ele>
        <time>2023-05-16T11:39:37.414Z</time>
      </trkpt>
      <trkpt lat="44.8802" lon="5.67651">
        <ele>561</ele>
        <time>2023-05-16T11:39:43.311Z</time>
      </trkpt>
      <trkpt lat="44.8802" lon="5.67655">
        <ele>559.7</ele>
        <time>2023-05-16T11:39:44.218Z</time>
      </trkpt>
      <trkpt lat="44.88038" lon="5.6766">
        <ele>554.7</ele>
        <time>2023-05-16T11:39:50.091Z</time>
      </trkpt>
      <trkpt lat="44.88054" lon="5.67655">
        <ele>553.1</ele>
        <time>2023-05-16T11:39:55.338Z</time>
      </trkpt>
      <trkpt lat="44.88061" lon="5.67658">
        <ele>550.8</ele>
        <time>2023-05-16T11:39:57.680Z</time>
      </trkpt>
      <trkpt lat="44.88078" lon="5.67685">
        <ele>535.8</ele>
        <time>2023-05-16T11:40:05.874Z</time>
      </trkpt>
      <trkpt lat="44.88084" lon="5.67689">
        <ele>533</ele>
        <time>2023-05-16T11:40:07.998Z</time>
      </trkpt>
      <trkpt lat="44.88102" lon="5.67682">
        <ele>535</ele>
        <time>2023-05-16T11:40:17.720Z</time>
      </trkpt>
      <trkpt lat="44.88115" lon="5.67688">
        <ele>531</ele>
        <time>2023-05-16T11:40:22.098Z</time>
      </trkpt>
      <trkpt lat="44.88129" lon="5.67686">
        <ele>530.9</ele>
        <time>2023-05-16T11:40:27.136Z</time>
      </trkpt>
      <trkpt lat="44.88146" lon="5.67675">
        <ele>534.8</ele>
        <time>2023-05-16T11:40:41.362Z</time>
      </trkpt>
      <trkpt lat="44.88176" lon="5.67684">
        <ele>528</ele>
        <time>2023-05-16T11:40:51.181Z</time>
      </trkpt>
      <trkpt lat="44.88195" lon="5.67678">
        <ele>528.8</ele>
        <time>2023-05-16T11:40:59.292Z</time>
      </trkpt>
      <trkpt lat="44.88259" lon="5.6768">
        <ele>521.4</ele>
        <time>2023-05-16T11:41:19.786Z</time>
      </trkpt>
      <trkpt lat="44.88294" lon="5.67657">
        <ele>523.7</ele>
        <time>2023-05-16T11:41:36.875Z</time>
      </trkpt>
      <trkpt lat="44.883" lon="5.67657">
        <ele>522.9</ele>
        <time>2023-05-16T11:41:38.795Z</time>
      </trkpt>
      <trkpt lat="44.88308" lon="5.67648">
        <ele>523.2</ele>
        <time>2023-05-16T11:41:42.899Z</time>
      </trkpt>
      <trkpt lat="44.88319" lon="5.6765">
        <ele>521.4</ele>
        <time>2023-05-16T11:41:46.450Z</time>
      </trkpt>
      <trkpt lat="44.88326" lon="5.67657">
        <ele>519.4</ele>
        <time>2023-05-16T11:41:49.196Z</time>
      </trkpt>
      <trkpt lat="44.88334" lon="5.67659">
        <ele>518</ele>
        <time>2023-05-16T11:41:51.797Z</time>
      </trkpt>
      <trkpt lat="44.88363" lon="5.67639">
        <ele>516.7</ele>
        <time>2023-05-16T11:42:02.262Z</time>
      </trkpt>
      <trkpt lat="44.88368" lon="5.67639">
        <ele>516</ele>
        <time>2023-05-16T11:42:03.862Z</time>
      </trkpt>
      <trkpt lat="44.88413" lon="5.67612">
        <ele>516.2</ele>
        <time>2023-05-16T11:42:21.981Z</time>
      </trkpt>
      <trkpt lat="44.88446" lon="5.67606">
        <ele>511.3</ele>
        <time>2023-05-16T11:42:32.633Z</time>
      </trkpt>
      <trkpt lat="44.88451" lon="5.67609">
        <ele>509.5</ele>
        <time>2023-05-16T11:42:34.372Z</time>
      </trkpt>
      <trkpt lat="44.8851" lon="5.67602">
        <ele>500.3</ele>
        <time>2023-05-16T11:42:53.328Z</time>
      </trkpt>
      <trkpt lat="44.88552" lon="5.6757">
        <ele>505.2</ele>
        <time>2023-05-16T11:43:17.794Z</time>
      </trkpt>
      <trkpt lat="44.8857" lon="5.67565">
        <ele>505</ele>
        <time>2023-05-16T11:43:24.286Z</time>
      </trkpt>
      <trkpt lat="44.88588" lon="5.67555">
        <ele>505.5</ele>
        <time>2023-05-16T11:43:31.960Z</time>
      </trkpt>
      <trkpt lat="44.88602" lon="5.6756">
        <ele>502.3</ele>
        <time>2023-05-16T11:43:36.583Z</time>
      </trkpt>
      <trkpt lat="44.88621" lon="5.67552">
        <ele>501.5</ele>
        <time>2023-05-16T11:43:43.010Z</time>
      </trkpt>
      <trkpt lat="44.88637" lon="5.67551">
        <ele>499.5</ele>
        <time>2023-05-16T11:43:48.137Z</time>
      </trkpt>
      <trkpt lat="44.88645" lon="5.67545">
        <ele>500</ele>
        <time>2023-05-16T11:43:52.089Z</time>
      </trkpt>
      <trkpt lat="44.88657" lon="5.67551">
        <ele>496.7</ele>
        <time>2023-05-16T11:43:56.165Z</time>
      </trkpt>
      <trkpt lat="44.88666" lon="5.67542">
        <ele>498</ele>
        <time>2023-05-16T11:44:02.131Z</time>
      </trkpt>
      <trkpt lat="44.88675" lon="5.67542">
        <ele>497.6</ele>
        <time>2023-05-16T11:44:05.013Z</time>
      </trkpt>
      <trkpt lat="44.88676" lon="5.67539">
        <ele>498.4</ele>
        <time>2023-05-16T11:44:08.088Z</time>
      </trkpt>
      <trkpt lat="44.88687" lon="5.67541">
        <ele>497.3</ele>
        <time>2023-05-16T11:44:11.639Z</time>
      </trkpt>
      <trkpt lat="44.887" lon="5.67534">
        <ele>498.7</ele>
        <time>2023-05-16T11:44:18.720Z</time>
      </trkpt>
      <trkpt lat="44.88709" lon="5.67534">
        <ele>498.3</ele>
        <time>2023-05-16T11:44:21.603Z</time>
      </trkpt>
      <trkpt lat="44.8871" lon="5.67537">
        <ele>497.4</ele>
        <time>2023-05-16T11:44:22.355Z</time>
      </trkpt>
      <trkpt lat="44.88739" lon="5.67546">
        <ele>493.8</ele>
        <time>2023-05-16T11:44:31.861Z</time>
      </trkpt>
      <trkpt lat="44.88741" lon="5.67543">
        <ele>494.5</ele>
        <time>2023-05-16T11:44:34.378Z</time>
      </trkpt>
      <trkpt lat="44.88757" lon="5.67545">
        <ele>493.2</ele>
        <time>2023-05-16T11:44:39.520Z</time>
      </trkpt>
      <trkpt lat="44.88758" lon="5.67533">
        <ele>496.1</ele>
        <time>2023-05-16T11:44:50.642Z</time>
      </trkpt>
      <trkpt lat="44.8875" lon="5.6754">
        <ele>494.9</ele>
        <time>2023-05-16T11:44:53.656Z</time>
      </trkpt>
      <trkpt lat="44.88752" lon="5.67543">
        <ele>494</ele>
        <time>2023-05-16T11:44:54.590Z</time>
      </trkpt>
      <trkpt lat="44.88751" lon="5.67541">
        <ele>494.6</ele>
        <time>2023-05-16T11:44:56.911Z</time>
      </trkpt>
      <trkpt lat="44.88753" lon="5.67542">
        <ele>494.2</ele>
        <time>2023-05-16T11:44:57.590Z</time>
      </trkpt>
      <trkpt lat="44.88759" lon="5.67529">
        <ele>497</ele>
        <time>2023-05-16T11:45:07.662Z</time>
      </trkpt>
      <trkpt lat="44.88768" lon="5.67526">
        <ele>497.1</ele>
        <time>2023-05-16T11:45:11.161Z</time>
      </trkpt>
      <trkpt lat="44.8879" lon="5.6749">
        <ele>503.9</ele>
        <time>2023-05-16T11:45:36.120Z</time>
      </trkpt>
      <trkpt lat="44.88799" lon="5.67488">
        <ele>503.6</ele>
        <time>2023-05-16T11:45:39.139Z</time>
      </trkpt>
      <trkpt lat="44.88827" lon="5.67469">
        <ele>505.9</ele>
        <time>2023-05-16T11:45:53.571Z</time>
      </trkpt>
      <trkpt lat="44.88864" lon="5.6747">
        <ele>503</ele>
        <time>2023-05-16T11:46:05.419Z</time>
      </trkpt>
      <trkpt lat="44.88919" lon="5.67437">
        <ele>507</ele>
        <time>2023-05-16T11:46:32.527Z</time>
      </trkpt>
      <trkpt lat="44.88936" lon="5.67439">
        <ele>505.7</ele>
        <time>2023-05-16T11:46:37.988Z</time>
      </trkpt>
      <trkpt lat="44.88939" lon="5.67457">
        <ele>501.4</ele>
        <time>2023-05-16T11:46:42.182Z</time>
      </trkpt>
      <trkpt lat="44.8898" lon="5.67469">
        <ele>497.1</ele>
        <time>2023-05-16T11:46:55.588Z</time>
      </trkpt>
      <trkpt lat="44.89036" lon="5.67468">
        <ele>498</ele>
        <time>2023-05-16T11:47:17.129Z</time>
      </trkpt>
      <trkpt lat="44.89049" lon="5.67464">
        <ele>499.4</ele>
        <time>2023-05-16T11:47:24.011Z</time>
      </trkpt>
      <trkpt lat="44.89067" lon="5.67477">
        <ele>497.3</ele>
        <time>2023-05-16T11:47:30.484Z</time>
      </trkpt>
      <trkpt lat="44.89079" lon="5.67477">
        <ele>497.8</ele>
        <time>2023-05-16T11:47:35.492Z</time>
      </trkpt>
      <trkpt lat="44.89091" lon="5.67484">
        <ele>496.9</ele>
        <time>2023-05-16T11:47:39.649Z</time>
      </trkpt>
      <trkpt lat="44.89103" lon="5.67497">
        <ele>494.8</ele>
        <time>2023-05-16T11:47:44.492Z</time>
      </trkpt>
      <trkpt lat="44.89121" lon="5.67508">
        <ele>493.7</ele>
        <time>2023-05-16T11:47:50.771Z</time>
      </trkpt>
      <trkpt lat="44.89141" lon="5.67507">
        <ele>495.1</ele>
        <time>2023-05-16T11:47:59.942Z</time>
      </trkpt>
      <trkpt lat="44.89161" lon="5.67518">
        <ele>494</ele>
        <time>2023-05-16T11:48:06.813Z</time>
      </trkpt>
      <trkpt lat="44.89185" lon="5.67519">
        <ele>493.8</ele>
        <time>2023-05-16T11:48:15.377Z</time>
      </trkpt>
      <trkpt lat="44.89189" lon="5.67522">
        <ele>493.2</ele>
        <time>2023-05-16T11:48:16.827Z</time>
      </trkpt>
      <trkpt lat="44.89241" lon="5.67528">
        <ele>491.4</ele>
        <time>2023-05-16T11:48:34.032Z</time>
      </trkpt>
      <trkpt lat="44.89254" lon="5.67535">
        <ele>490.1</ele>
        <time>2023-05-16T11:48:38.486Z</time>
      </trkpt>
      <trkpt lat="44.89271" lon="5.67538">
        <ele>489.2</ele>
        <time>2023-05-16T11:48:43.971Z</time>
      </trkpt>
      <trkpt lat="44.89329" lon="5.67532">
        <ele>489.3</ele>
        <time>2023-05-16T11:49:05.362Z</time>
      </trkpt>
      <trkpt lat="44.89336" lon="5.67528">
        <ele>489.9</ele>
        <time>2023-05-16T11:49:08.936Z</time>
      </trkpt>
      <trkpt lat="44.89338" lon="5.67518">
        <ele>491.6</ele>
        <time>2023-05-16T11:49:15.059Z</time>
      </trkpt>
      <trkpt lat="44.89449" lon="5.67496">
        <ele>490.9</ele>
        <time>2023-05-16T11:49:55.292Z</time>
      </trkpt>
      <trkpt lat="44.89506" lon="5.67471">
        <ele>494.5</ele>
        <time>2023-05-16T11:50:21.776Z</time>
      </trkpt>
      <trkpt lat="44.89564" lon="5.67453">
        <ele>494.1</ele>
        <time>2023-05-16T11:50:43.060Z</time>
      </trkpt>
      <trkpt lat="44.89582" lon="5.67441">
        <ele>495.1</ele>
        <time>2023-05-16T11:50:51.603Z</time>
      </trkpt>
      <trkpt lat="44.89617" lon="5.67383">
        <ele>504.9</ele>
        <time>2023-05-16T11:51:28.565Z</time>
      </trkpt>
      <trkpt lat="44.89627" lon="5.67376">
        <ele>505.7</ele>
        <time>2023-05-16T11:51:33.710Z</time>
      </trkpt>
      <trkpt lat="44.89658" lon="5.67377">
        <ele>503.7</ele>
        <time>2023-05-16T11:51:43.637Z</time>
      </trkpt>
      <trkpt lat="44.89664" lon="5.67382">
        <ele>502.4</ele>
        <time>2023-05-16T11:51:45.867Z</time>
      </trkpt>
      <trkpt lat="44.89675" lon="5.67403">
        <ele>498.3</ele>
        <time>2023-05-16T11:51:51.790Z</time>
      </trkpt>
      <trkpt lat="44.89682" lon="5.67407">
        <ele>497.4</ele>
        <time>2023-05-16T11:51:54.208Z</time>
      </trkpt>
      <trkpt lat="44.89711" lon="5.67398">
        <ele>498.1</ele>
        <time>2023-05-16T11:52:05.902Z</time>
      </trkpt>
      <trkpt lat="44.8976" lon="5.67368">
        <ele>499.8</ele>
        <time>2023-05-16T11:52:27.498Z</time>
      </trkpt>
      <trkpt lat="44.89795" lon="5.67361">
        <ele>498.7</ele>
        <time>2023-05-16T11:52:39.272Z</time>
      </trkpt>
      <trkpt lat="44.89836" lon="5.67347">
        <ele>497.7</ele>
        <time>2023-05-16T11:52:53.635Z</time>
      </trkpt>
      <trkpt lat="44.89881" lon="5.67313">
        <ele>501.6</ele>
        <time>2023-05-16T11:53:17.537Z</time>
      </trkpt>
      <trkpt lat="44.90044" lon="5.67207">
        <ele>515.7</ele>
        <time>2023-05-16T11:54:42.197Z</time>
      </trkpt>
      <trkpt lat="44.90056" lon="5.67188">
        <ele>518.3</ele>
        <time>2023-05-16T11:54:52.926Z</time>
      </trkpt>
      <trkpt lat="44.90066" lon="5.67164">
        <ele>521.6</ele>
        <time>2023-05-16T11:55:05.719Z</time>
      </trkpt>
      <trkpt lat="44.90084" lon="5.67164">
        <ele>521.3</ele>
        <time>2023-05-16T11:55:11.979Z</time>
      </trkpt>
      <trkpt lat="44.9011" lon="5.67155">
        <ele>520.5</ele>
        <time>2023-05-16T11:55:20.928Z</time>
      </trkpt>
      <trkpt lat="44.9018" lon="5.67113">
        <ele>521.1</ele>
        <time>2023-05-16T11:55:49.444Z</time>
      </trkpt>
      <trkpt lat="44.90214" lon="5.67113">
        <ele>520.1</ele>
        <time>2023-05-16T11:56:00.826Z</time>
      </trkpt>
      <trkpt lat="44.90271" lon="5.67102">
        <ele>519.6</ele>
        <time>2023-05-16T11:56:21.323Z</time>
      </trkpt>
      <trkpt lat="44.90305" lon="5.67089">
        <ele>520.1</ele>
        <time>2023-05-16T11:56:34.792Z</time>
      </trkpt>
      <trkpt lat="44.90327" lon="5.67075">
        <ele>521.7</ele>
        <time>2023-05-16T11:56:45.715Z</time>
      </trkpt>
      <trkpt lat="44.90352" lon="5.67044">
        <ele>525.9</ele>
        <time>2023-05-16T11:57:04.259Z</time>
      </trkpt>
      <trkpt lat="44.90407" lon="5.67024">
        <ele>525.6</ele>
        <time>2023-05-16T11:57:24.705Z</time>
      </trkpt>
      <trkpt lat="44.90438" lon="5.67018">
        <ele>525.1</ele>
        <time>2023-05-16T11:57:35.610Z</time>
      </trkpt>
      <trkpt lat="44.9047" lon="5.67004">
        <ele>525.8</ele>
        <time>2023-05-16T11:57:48.693Z</time>
      </trkpt>
      <trkpt lat="44.90501" lon="5.66985">
        <ele>528</ele>
        <time>2023-05-16T11:58:03.928Z</time>
      </trkpt>
      <trkpt lat="44.90525" lon="5.66977">
        <ele>529.1</ele>
        <time>2023-05-16T11:58:14.319Z</time>
      </trkpt>
      <trkpt lat="44.90538" lon="5.66978">
        <ele>528.7</ele>
        <time>2023-05-16T11:58:18.660Z</time>
      </trkpt>
      <trkpt lat="44.90573" lon="5.66969">
        <ele>529.5</ele>
        <time>2023-05-16T11:58:32.624Z</time>
      </trkpt>
      <trkpt lat="44.90591" lon="5.6696">
        <ele>530.2</ele>
        <time>2023-05-16T11:58:40.465Z</time>
      </trkpt>
      <trkpt lat="44.90616" lon="5.66938">
        <ele>532.1</ele>
        <time>2023-05-16T11:58:53.719Z</time>
      </trkpt>
      <trkpt lat="44.90667" lon="5.66903">
        <ele>535.9</ele>
        <time>2023-05-16T11:59:19.448Z</time>
      </trkpt>
      <trkpt lat="44.90695" lon="5.66869">
        <ele>545.5</ele>
        <time>2023-05-16T11:59:54.020Z</time>
      </trkpt>
      <trkpt lat="44.90717" lon="5.66863">
        <ele>547.1</ele>
        <time>2023-05-16T12:00:04.338Z</time>
      </trkpt>
      <trkpt lat="44.9074" lon="5.6685">
        <ele>550.5</ele>
        <time>2023-05-16T12:00:18.708Z</time>
      </trkpt>
      <trkpt lat="44.90748" lon="5.66841">
        <ele>552.9</ele>
        <time>2023-05-16T12:00:27.344Z</time>
      </trkpt>
      <trkpt lat="44.90762" lon="5.66835">
        <ele>554.7</ele>
        <time>2023-05-16T12:00:35.405Z</time>
      </trkpt>
      <trkpt lat="44.90796" lon="5.66811">
        <ele>561.5</ele>
        <time>2023-05-16T12:01:01.170Z</time>
      </trkpt>
      <trkpt lat="44.90814" lon="5.66809">
        <ele>562.1</ele>
        <time>2023-05-16T12:01:08.504Z</time>
      </trkpt>
      <trkpt lat="44.90829" lon="5.66801">
        <ele>564.2</ele>
        <time>2023-05-16T12:01:17.595Z</time>
      </trkpt>
      <trkpt lat="44.90843" lon="5.66799">
        <ele>563.8</ele>
        <time>2023-05-16T12:01:22.319Z</time>
      </trkpt>
      <trkpt lat="44.90897" lon="5.66734">
        <ele>573.1</ele>
        <time>2023-05-16T12:02:02.564Z</time>
      </trkpt>
      <trkpt lat="44.90911" lon="5.66722">
        <ele>573.7</ele>
        <time>2023-05-16T12:02:09.289Z</time>
      </trkpt>
      <trkpt lat="44.91006" lon="5.66662">
        <ele>578.7</ele>
        <time>2023-05-16T12:02:53.636Z</time>
      </trkpt>
      <trkpt lat="44.91057" lon="5.66619">
        <ele>583.1</ele>
        <time>2023-05-16T12:03:21.235Z</time>
      </trkpt>
      <trkpt lat="44.91078" lon="5.66581">
        <ele>587</ele>
        <time>2023-05-16T12:03:39.462Z</time>
      </trkpt>
      <trkpt lat="44.91104" lon="5.66503">
        <ele>594.1</ele>
        <time>2023-05-16T12:04:12.301Z</time>
      </trkpt>
      <trkpt lat="44.91103" lon="5.66472">
        <ele>598.2</ele>
        <time>2023-05-16T12:04:27.643Z</time>
      </trkpt>
      <trkpt lat="44.91126" lon="5.66407">
        <ele>601.9</ele>
        <time>2023-05-16T12:04:51.377Z</time>
      </trkpt>
      <trkpt lat="44.91173" lon="5.66328">
        <ele>604.7</ele>
        <time>2023-05-16T12:05:21.545Z</time>
      </trkpt>
      <trkpt lat="44.91189" lon="5.6632">
        <ele>602.9</ele>
        <time>2023-05-16T12:05:26.980Z</time>
      </trkpt>
      <trkpt lat="44.912" lon="5.66321">
        <ele>600</ele>
        <time>2023-05-16T12:05:30.508Z</time>
      </trkpt>
      <trkpt lat="44.91242" lon="5.66282">
        <ele>600.9</ele>
        <time>2023-05-16T12:05:49.955Z</time>
      </trkpt>
      <trkpt lat="44.91256" lon="5.66263">
        <ele>602.5</ele>
        <time>2023-05-16T12:05:59.235Z</time>
      </trkpt>
      <trkpt lat="44.91277" lon="5.66243">
        <ele>600.5</ele>
        <time>2023-05-16T12:06:07.344Z</time>
      </trkpt>
      <trkpt lat="44.91283" lon="5.6623">
        <ele>601</ele>
        <time>2023-05-16T12:06:11.988Z</time>
      </trkpt>
      <trkpt lat="44.91293" lon="5.66219">
        <ele>599.2</ele>
        <time>2023-05-16T12:06:16.047Z</time>
      </trkpt>
      <trkpt lat="44.91319" lon="5.66176">
        <ele>594.2</ele>
        <time>2023-05-16T12:06:28.866Z</time>
      </trkpt>
      <trkpt lat="44.91323" lon="5.66155">
        <ele>593.6</ele>
        <time>2023-05-16T12:06:33.878Z</time>
      </trkpt>
      <trkpt lat="44.91323" lon="5.66138">
        <ele>593.9</ele>
        <time>2023-05-16T12:06:38.640Z</time>
      </trkpt>
      <trkpt lat="44.91314" lon="5.66088">
        <ele>600</ele>
        <time>2023-05-16T12:07:02.305Z</time>
      </trkpt>
      <trkpt lat="44.91295" lon="5.66029">
        <ele>607.6</ele>
        <time>2023-05-16T12:07:31.882Z</time>
      </trkpt>
      <trkpt lat="44.91254" lon="5.65941">
        <ele>610.9</ele>
        <time>2023-05-16T12:08:03.278Z</time>
      </trkpt>
      <trkpt lat="44.91218" lon="5.65879">
        <ele>619.1</ele>
        <time>2023-05-16T12:08:37.090Z</time>
      </trkpt>
      <trkpt lat="44.91209" lon="5.65837">
        <ele>615.4</ele>
        <time>2023-05-16T12:08:47.039Z</time>
      </trkpt>
      <trkpt lat="44.91221" lon="5.65792">
        <ele>612.5</ele>
        <time>2023-05-16T12:08:57.941Z</time>
      </trkpt>
      <trkpt lat="44.9127" lon="5.6574">
        <ele>607.6</ele>
        <time>2023-05-16T12:09:17.565Z</time>
        <extensions>
          <visugpx:TrkExtension xmlns:visugpx="https://www.visugpx.com/editgpx/">
            <visugpx:node>1</visugpx:node>
            </visugpx:TrkExtension>
        </extensions>
      </trkpt>
      <trkpt lat="44.9127" lon="5.65739">
        <ele>607.6</ele>
        <time>2023-05-16T12:09:17.824Z</time>
      </trkpt>
      <trkpt lat="44.913" lon="5.65709">
        <ele>610.8</ele>
        <time>2023-05-16T12:09:35.675Z</time>
      </trkpt>
      <trkpt lat="44.91306" lon="5.6572">
        <ele>610.2</ele>
        <time>2023-05-16T12:09:38.823Z</time>
      </trkpt>
      <trkpt lat="44.91313" lon="5.65724">
        <ele>609.8</ele>
        <time>2023-05-16T12:09:41.241Z</time>
      </trkpt>
      <trkpt lat="44.9133" lon="5.65728">
        <ele>609.6</ele>
        <time>2023-05-16T12:09:47.327Z</time>
      </trkpt>
      <trkpt lat="44.91335" lon="5.65729">
        <ele>609.6</ele>
        <time>2023-05-16T12:09:49.174Z</time>
      </trkpt>
      <trkpt lat="44.91376" lon="5.65737">
        <ele>610.2</ele>
        <time>2023-05-16T12:10:05.016Z</time>
      </trkpt>
      <trkpt lat="44.91431" lon="5.65749">
        <ele>611.6</ele>
        <time>2023-05-16T12:10:27.045Z</time>
      </trkpt>
      <trkpt lat="44.91447" lon="5.65753">
        <ele>612</ele>
        <time>2023-05-16T12:10:33.465Z</time>
      </trkpt>
      <trkpt lat="44.91458" lon="5.65759">
        <ele>612.3</ele>
        <time>2023-05-16T12:10:38.137Z</time>
      </trkpt>
      <trkpt lat="44.91479" lon="5.65781">
        <ele>612.1</ele>
        <time>2023-05-16T12:10:47.483Z</time>
      </trkpt>
      <trkpt lat="44.91488" lon="5.65786">
        <ele>612.2</ele>
        <time>2023-05-16T12:10:51.137Z</time>
      </trkpt>
      <trkpt lat="44.91519" lon="5.65788">
        <ele>614.5</ele>
        <time>2023-05-16T12:11:05.557Z</time>
      </trkpt>
      <trkpt lat="44.91529" lon="5.65789">
        <ele>615.3</ele>
        <time>2023-05-16T12:11:10.306Z</time>
      </trkpt>
      <trkpt lat="44.91533" lon="5.65785">
        <ele>615.9</ele>
        <time>2023-05-16T12:11:13.000Z</time>
      </trkpt>
      <trkpt lat="44.91547" lon="5.65772">
        <ele>617.8</ele>
        <time>2023-05-16T12:11:21.920Z</time>
      </trkpt>
      <trkpt lat="44.91576" lon="5.65741">
        <ele>622.1</ele>
        <time>2023-05-16T12:11:41.619Z</time>
      </trkpt>
      <trkpt lat="44.91582" lon="5.65739">
        <ele>622.7</ele>
        <time>2023-05-16T12:11:44.720Z</time>
      </trkpt>
      <trkpt lat="44.91605" lon="5.6575">
        <ele>623.6</ele>
        <time>2023-05-16T12:11:54.706Z</time>
      </trkpt>
      <trkpt lat="44.91653" lon="5.65784">
        <ele>625.3</ele>
        <time>2023-05-16T12:12:16.407Z</time>
      </trkpt>
      <trkpt lat="44.91669" lon="5.6579">
        <ele>626.7</ele>
        <time>2023-05-16T12:12:24.378Z</time>
      </trkpt>
      <trkpt lat="44.91687" lon="5.65792">
        <ele>628</ele>
        <time>2023-05-16T12:12:32.708Z</time>
      </trkpt>
      <trkpt lat="44.91706" lon="5.65791">
        <ele>629.8</ele>
        <time>2023-05-16T12:12:42.187Z</time>
      </trkpt>
      <trkpt lat="44.91727" lon="5.65786">
        <ele>632.3</ele>
        <time>2023-05-16T12:12:53.687Z</time>
      </trkpt>
      <trkpt lat="44.91779" lon="5.65761">
        <ele>638.1</ele>
        <time>2023-05-16T12:13:22.135Z</time>
      </trkpt>
      <trkpt lat="44.91838" lon="5.65738">
        <ele>643.6</ele>
        <time>2023-05-16T12:13:52.145Z</time>
      </trkpt>
      <trkpt lat="44.91897" lon="5.65698">
        <ele>648.5</ele>
        <time>2023-05-16T12:14:22.635Z</time>
      </trkpt>
      <trkpt lat="44.91905" lon="5.6569">
        <ele>649.3</ele>
        <time>2023-05-16T12:14:27.308Z</time>
      </trkpt>
      <trkpt lat="44.91909" lon="5.65682">
        <ele>649.9</ele>
        <time>2023-05-16T12:14:30.669Z</time>
      </trkpt>
      <trkpt lat="44.91911" lon="5.65668">
        <ele>650.5</ele>
        <time>2023-05-16T12:14:35.142Z</time>
      </trkpt>
      <trkpt lat="44.91924" lon="5.65668">
        <ele>651.5</ele>
        <time>2023-05-16T12:14:41.240Z</time>
      </trkpt>
      <trkpt lat="44.91947" lon="5.65664">
        <ele>653.4</ele>
        <time>2023-05-16T12:14:52.300Z</time>
      </trkpt>
      <trkpt lat="44.92001" lon="5.65645">
        <ele>659.9</ele>
        <time>2023-05-16T12:15:22.287Z</time>
      </trkpt>
      <trkpt lat="44.92021" lon="5.65636">
        <ele>661.6</ele>
        <time>2023-05-16T12:15:32.271Z</time>
      </trkpt>
      <trkpt lat="44.92032" lon="5.65628">
        <ele>662.5</ele>
        <time>2023-05-16T12:15:37.994Z</time>
      </trkpt>
      <trkpt lat="44.92036" lon="5.65622">
        <ele>662.7</ele>
        <time>2023-05-16T12:15:40.372Z</time>
      </trkpt>
      <trkpt lat="44.92063" lon="5.65566">
        <ele>666.1</ele>
        <time>2023-05-16T12:16:02.422Z</time>
      </trkpt>
      <trkpt lat="44.92073" lon="5.6555">
        <ele>666.9</ele>
        <time>2023-05-16T12:16:08.965Z</time>
      </trkpt>
      <trkpt lat="44.92162" lon="5.6544">
        <ele>674.5</ele>
        <time>2023-05-16T12:17:02.135Z</time>
      </trkpt>
      <trkpt lat="44.92183" lon="5.65422">
        <ele>676.2</ele>
        <time>2023-05-16T12:17:13.363Z</time>
      </trkpt>
      <trkpt lat="44.92195" lon="5.65416">
        <ele>676.2</ele>
        <time>2023-05-16T12:17:18.020Z</time>
      </trkpt>
      <trkpt lat="44.92251" lon="5.654">
        <ele>681.2</ele>
        <time>2023-05-16T12:17:45.809Z</time>
      </trkpt>
      <trkpt lat="44.92267" lon="5.65399">
        <ele>681.7</ele>
        <time>2023-05-16T12:17:52.272Z</time>
      </trkpt>
      <trkpt lat="44.92279" lon="5.65401">
        <ele>681.5</ele>
        <time>2023-05-16T12:17:56.476Z</time>
      </trkpt>
      <trkpt lat="44.92309" lon="5.65409">
        <ele>683.2</ele>
        <time>2023-05-16T12:18:09.816Z</time>
      </trkpt>
      <trkpt lat="44.92386" lon="5.65435">
        <ele>688.5</ele>
        <time>2023-05-16T12:18:45.729Z</time>
      </trkpt>
      <trkpt lat="44.92421" lon="5.65449">
        <ele>691</ele>
        <time>2023-05-16T12:19:02.328Z</time>
      </trkpt>
      <trkpt lat="44.92447" lon="5.65456">
        <ele>693.4</ele>
        <time>2023-05-16T12:19:15.343Z</time>
      </trkpt>
      <trkpt lat="44.92469" lon="5.65458">
        <ele>694.4</ele>
        <time>2023-05-16T12:19:24.655Z</time>
      </trkpt>
      <trkpt lat="44.92549" lon="5.65442">
        <ele>700.9</ele>
        <time>2023-05-16T12:20:03.015Z</time>
      </trkpt>
      <trkpt lat="44.92563" lon="5.6544">
        <ele>701.9</ele>
        <time>2023-05-16T12:20:09.487Z</time>
      </trkpt>
      <trkpt lat="44.9261" lon="5.65451">
        <ele>701.5</ele>
        <time>2023-05-16T12:20:26.476Z</time>
      </trkpt>
      <trkpt lat="44.92655" lon="5.65453">
        <ele>702.8</ele>
        <time>2023-05-16T12:20:44.509Z</time>
      </trkpt>
      <trkpt lat="44.92672" lon="5.65452">
        <ele>704</ele>
        <time>2023-05-16T12:20:52.321Z</time>
        <extensions>
          <visugpx:TrkExtension xmlns:visugpx="https://www.visugpx.com/editgpx/">
            <visugpx:node>2</visugpx:node>
            </visugpx:TrkExtension>
        </extensions>
      </trkpt>
      <trkpt lat="44.92702" lon="5.6545">
        <ele>707.2</ele>
        <time>2023-05-16T12:21:07.927Z</time>
      </trkpt>
      <trkpt lat="44.92718" lon="5.65453">
        <ele>708.1</ele>
        <time>2023-05-16T12:21:14.981Z</time>
      </trkpt>
      <trkpt lat="44.92746" lon="5.65463">
        <ele>707.7</ele>
        <time>2023-05-16T12:21:25.111Z</time>
      </trkpt>
      <trkpt lat="44.92754" lon="5.65461">
        <ele>708.5</ele>
        <time>2023-05-16T12:21:29.215Z</time>
      </trkpt>
      <trkpt lat="44.92765" lon="5.65457">
        <ele>709.4</ele>
        <time>2023-05-16T12:21:34.586Z</time>
      </trkpt>
      <trkpt lat="44.92782" lon="5.65446">
        <ele>711.7</ele>
        <time>2023-05-16T12:21:44.887Z</time>
      </trkpt>
      <trkpt lat="44.92804" lon="5.65423">
        <ele>713.7</ele>
        <time>2023-05-16T12:21:57.561Z</time>
      </trkpt>
      <trkpt lat="44.9283" lon="5.6539">
        <ele>714.7</ele>
        <time>2023-05-16T12:22:11.551Z</time>
      </trkpt>
      <trkpt lat="44.92853" lon="5.65349">
        <ele>717.6</ele>
        <time>2023-05-16T12:22:29.006Z</time>
      </trkpt>
      <trkpt lat="44.92887" lon="5.65282">
        <ele>721.7</ele>
        <time>2023-05-16T12:22:55.775Z</time>
      </trkpt>
      <trkpt lat="44.92901" lon="5.65247">
        <ele>724.3</ele>
        <time>2023-05-16T12:23:09.802Z</time>
      </trkpt>
      <trkpt lat="44.9294" lon="5.65177">
        <ele>727.6</ele>
        <time>2023-05-16T12:23:37.055Z</time>
      </trkpt>
      <trkpt lat="44.92967" lon="5.65145">
        <ele>727.9</ele>
        <time>2023-05-16T12:23:50.295Z</time>
      </trkpt>
      <trkpt lat="44.92989" lon="5.65119">
        <ele>729.8</ele>
        <time>2023-05-16T12:24:03.276Z</time>
      </trkpt>
      <trkpt lat="44.93032" lon="5.65081">
        <ele>730.8</ele>
        <time>2023-05-16T12:24:23.011Z</time>
      </trkpt>
      <trkpt lat="44.93051" lon="5.65064">
        <ele>732.1</ele>
        <time>2023-05-16T12:24:32.907Z</time>
      </trkpt>
      <trkpt lat="44.93079" lon="5.65037">
        <ele>735.7</ele>
        <time>2023-05-16T12:24:50.502Z</time>
      </trkpt>
      <trkpt lat="44.93109" lon="5.6502">
        <ele>738</ele>
        <time>2023-05-16T12:25:05.373Z</time>
      </trkpt>
      <trkpt lat="44.93124" lon="5.65016">
        <ele>738</ele>
        <time>2023-05-16T12:25:10.958Z</time>
      </trkpt>
      <trkpt lat="44.93152" lon="5.65018">
        <ele>734.5</ele>
        <time>2023-05-16T12:25:19.934Z</time>
      </trkpt>
      <trkpt lat="44.93167" lon="5.65015">
        <ele>734</ele>
        <time>2023-05-16T12:25:24.952Z</time>
      </trkpt>
      <trkpt lat="44.93214" lon="5.64991">
        <ele>741.6</ele>
        <time>2023-05-16T12:25:55.568Z</time>
      </trkpt>
      <trkpt lat="44.93244" lon="5.64985">
        <ele>743.4</ele>
        <time>2023-05-16T12:26:08.971Z</time>
      </trkpt>
      <trkpt lat="44.93288" lon="5.64974">
        <ele>746.4</ele>
        <time>2023-05-16T12:26:29.253Z</time>
      </trkpt>
      <trkpt lat="44.93321" lon="5.64957">
        <ele>752.2</ele>
        <time>2023-05-16T12:26:51.849Z</time>
      </trkpt>
      <trkpt lat="44.93338" lon="5.64953">
        <ele>754</ele>
        <time>2023-05-16T12:27:00.738Z</time>
      </trkpt>
      <trkpt lat="44.93392" lon="5.64965">
        <ele>757.6</ele>
        <time>2023-05-16T12:27:25.445Z</time>
      </trkpt>
      <trkpt lat="44.93419" lon="5.64981">
        <ele>758.5</ele>
        <time>2023-05-16T12:27:37.242Z</time>
      </trkpt>
      <trkpt lat="44.93443" lon="5.65007">
        <ele>757.7</ele>
        <time>2023-05-16T12:27:47.457Z</time>
      </trkpt>
      <trkpt lat="44.93473" lon="5.65047">
        <ele>756</ele>
        <time>2023-05-16T12:28:00.795Z</time>
      </trkpt>
      <trkpt lat="44.93479" lon="5.65056">
        <ele>755.4</ele>
        <time>2023-05-16T12:28:03.596Z</time>
      </trkpt>
      <trkpt lat="44.93492" lon="5.65074">
        <ele>754.3</ele>
        <time>2023-05-16T12:28:09.424Z</time>
        <extensions>
          <visugpx:TrkExtension xmlns:visugpx="https://www.visugpx.com/editgpx/">
            <visugpx:node>3</visugpx:node>
            </visugpx:TrkExtension>
        </extensions>
      </trkpt>
      <trkpt lat="44.93492" lon="5.65073">
        <ele>754.4</ele>
        <time>2023-05-16T12:28:09.841Z</time>
      </trkpt>
      <trkpt lat="44.93526" lon="5.65119">
        <ele>752.1</ele>
        <time>2023-05-16T12:28:24.913Z</time>
      </trkpt>
      <trkpt lat="44.93551" lon="5.65164">
        <ele>748.2</ele>
        <time>2023-05-16T12:28:37.877Z</time>
      </trkpt>
      <trkpt lat="44.93569" lon="5.65186">
        <ele>746.9</ele>
        <time>2023-05-16T12:28:45.497Z</time>
      </trkpt>
      <trkpt lat="44.93569" lon="5.65186">
        <ele>746.9</ele>
        <time>2023-05-16T12:28:45.497Z</time>
        <extensions>
          <visugpx:TrkExtension xmlns:visugpx="https://www.visugpx.com/editgpx/">
            <visugpx:node>4</visugpx:node>
            </visugpx:TrkExtension>
        </extensions>
      </trkpt>
      <trkpt lat="44.93569" lon="5.65186">
        <ele>746.9</ele>
        <time>2023-05-16T12:28:45.497Z</time>
      </trkpt>
      <trkpt lat="44.93569" lon="5.65186">
        <ele>746.9</ele>
        <time>2023-05-16T12:28:45.497Z</time>
      </trkpt>
      <trkpt lat="44.93589" lon="5.65202">
        <ele>747.1</ele>
        <time>2023-05-16T12:28:54.137Z</time>
      </trkpt>
      <trkpt lat="44.93592" lon="5.6521">
        <ele>746.8</ele>
        <time>2023-05-16T12:28:56.188Z</time>
      </trkpt>
      <trkpt lat="44.93606" lon="5.65218">
        <ele>747.8</ele>
        <time>2023-05-16T12:29:03.022Z</time>
      </trkpt>
      <trkpt lat="44.93613" lon="5.65225">
        <ele>748.2</ele>
        <time>2023-05-16T12:29:06.660Z</time>
      </trkpt>
      <trkpt lat="44.93614" lon="5.65237">
        <ele>748.3</ele>
        <time>2023-05-16T12:29:09.905Z</time>
      </trkpt>
      <trkpt lat="44.93595" lon="5.65262">
        <ele>746.5</ele>
        <time>2023-05-16T12:29:18.218Z</time>
      </trkpt>
      <trkpt lat="44.93625" lon="5.65308">
        <ele>749.5</ele>
        <time>2023-05-16T12:29:38.357Z</time>
      </trkpt>
      <trkpt lat="44.93642" lon="5.65371">
        <ele>750.9</ele>
        <time>2023-05-16T12:29:57.502Z</time>
      </trkpt>
      <trkpt lat="44.93642" lon="5.65429">
        <ele>753.6</ele>
        <time>2023-05-16T12:30:16.052Z</time>
      </trkpt>
      <trkpt lat="44.93674" lon="5.65473">
        <ele>755.2</ele>
        <time>2023-05-16T12:30:34.342Z</time>
      </trkpt>
      <trkpt lat="44.93677" lon="5.65491">
        <ele>754.7</ele>
        <time>2023-05-16T12:30:38.612Z</time>
      </trkpt>
      <trkpt lat="44.93688" lon="5.65519">
        <ele>754.8</ele>
        <time>2023-05-16T12:30:47.020Z</time>
        <extensions>
          <visugpx:TrkExtension xmlns:visugpx="https://www.visugpx.com/editgpx/">
            <visugpx:node>5</visugpx:node>
            </visugpx:TrkExtension>
        </extensions>
      </trkpt>
      <trkpt lat="44.93688" lon="5.65519">
        <ele>754.8</ele>
        <time>2023-05-16T12:30:47.020Z</time>
      </trkpt>
      <trkpt lat="44.93742" lon="5.65651">
        <ele>753.7</ele>
        <time>2023-05-16T12:31:25.295Z</time>
      </trkpt>
      <trkpt lat="44.93761" lon="5.65685">
        <ele>752.7</ele>
        <time>2023-05-16T12:31:35.463Z</time>
      </trkpt>
      <trkpt lat="44.93781" lon="5.6575">
        <ele>748.9</ele>
        <time>2023-05-16T12:31:51.525Z</time>
      </trkpt>
      <trkpt lat="44.93826" lon="5.6584">
        <ele>746.5</ele>
        <time>2023-05-16T12:32:17.530Z</time>
      </trkpt>
      <trkpt lat="44.93831" lon="5.65862">
        <ele>746.8</ele>
        <time>2023-05-16T12:32:23.866Z</time>
      </trkpt>
      <trkpt lat="44.93835" lon="5.65899">
        <ele>747.1</ele>
        <time>2023-05-16T12:32:33.907Z</time>
      </trkpt>
      <trkpt lat="44.93841" lon="5.65926">
        <ele>748.4</ele>
        <time>2023-05-16T12:32:42.932Z</time>
      </trkpt>
      <trkpt lat="44.93853" lon="5.65963">
        <ele>749.9</ele>
        <time>2023-05-16T12:32:55.371Z</time>
      </trkpt>
      <trkpt lat="44.93874" lon="5.66">
        <ele>750.5</ele>
        <time>2023-05-16T12:33:08.356Z</time>
      </trkpt>
      <trkpt lat="44.939" lon="5.66072">
        <ele>751.2</ele>
        <time>2023-05-16T12:33:30.100Z</time>
      </trkpt>
      <trkpt lat="44.9391" lon="5.66125">
        <ele>752.8</ele>
        <time>2023-05-16T12:33:46.281Z</time>
      </trkpt>
      <trkpt lat="44.93916" lon="5.6613">
        <ele>753</ele>
        <time>2023-05-16T12:33:49.069Z</time>
      </trkpt>
      <trkpt lat="44.93937" lon="5.66138">
        <ele>754.4</ele>
        <time>2023-05-16T12:33:58.851Z</time>
      </trkpt>
      <trkpt lat="44.93952" lon="5.66129">
        <ele>755</ele>
        <time>2023-05-16T12:34:05.547Z</time>
      </trkpt>
      <trkpt lat="44.93993" lon="5.6612">
        <ele>757.5</ele>
        <time>2023-05-16T12:34:23.953Z</time>
      </trkpt>
      <trkpt lat="44.94036" lon="5.6613">
        <ele>759.8</ele>
        <time>2023-05-16T12:34:42.814Z</time>
      </trkpt>
      <trkpt lat="44.94058" lon="5.66138">
        <ele>761.2</ele>
        <time>2023-05-16T12:34:52.937Z</time>
        <extensions>
          <visugpx:TrkExtension xmlns:visugpx="https://www.visugpx.com/editgpx/">
            <visugpx:node>6</visugpx:node>
            </visugpx:TrkExtension>
        </extensions>
      </trkpt>
      <trkpt lat="44.94058" lon="5.66138">
        <ele>761.2</ele>
        <time>2023-05-16T12:34:52.937Z</time>
      </trkpt>
      <trkpt lat="44.94075" lon="5.66145">
        <ele>762.4</ele>
        <time>2023-05-16T12:35:00.992Z</time>
      </trkpt>
      <trkpt lat="44.941" lon="5.6615">
        <ele>764.6</ele>
        <time>2023-05-16T12:35:13.256Z</time>
      </trkpt>
      <trkpt lat="44.94132" lon="5.66154">
        <ele>767.4</ele>
        <time>2023-05-16T12:35:28.862Z</time>
      </trkpt>
      <trkpt lat="44.94148" lon="5.66162">
        <ele>768.4</ele>
        <time>2023-05-16T12:35:36.358Z</time>
      </trkpt>
      <trkpt lat="44.94165" lon="5.66164">
        <ele>769</ele>
        <time>2023-05-16T12:35:43.330Z</time>
      </trkpt>
      <trkpt lat="44.94183" lon="5.66155">
        <ele>770.6</ele>
        <time>2023-05-16T12:35:52.500Z</time>
      </trkpt>
      <trkpt lat="44.942" lon="5.66143">
        <ele>772.1</ele>
        <time>2023-05-16T12:36:01.476Z</time>
      </trkpt>
      <trkpt lat="44.94247" lon="5.66085">
        <ele>775.8</ele>
        <time>2023-05-16T12:36:29.071Z</time>
      </trkpt>
      <trkpt lat="44.9427" lon="5.66049">
        <ele>777.9</ele>
        <time>2023-05-16T12:36:44.345Z</time>
      </trkpt>
      <trkpt lat="44.94286" lon="5.66019">
        <ele>779.9</ele>
        <time>2023-05-16T12:36:56.746Z</time>
      </trkpt>
      <trkpt lat="44.94321" lon="5.65964">
        <ele>783.8</ele>
        <time>2023-05-16T12:37:21.104Z</time>
      </trkpt>
      <trkpt lat="44.94391" lon="5.65881">
        <ele>790.1</ele>
        <time>2023-05-16T12:38:02.836Z</time>
      </trkpt>
      <trkpt lat="44.94409" lon="5.6586">
        <ele>791.4</ele>
        <time>2023-05-16T12:38:13.036Z</time>
        <extensions>
          <visugpx:TrkExtension xmlns:visugpx="https://www.visugpx.com/editgpx/">
            <visugpx:node>7</visugpx:node>
            </visugpx:TrkExtension>
        </extensions>
      </trkpt>
      <trkpt lat="44.94409" lon="5.6586">
        <ele>791.4</ele>
        <time>2023-05-16T12:38:13.036Z</time>
      </trkpt>
      <trkpt lat="44.9442" lon="5.65847">
        <ele>792.2</ele>
        <time>2023-05-16T12:38:19.304Z</time>
      </trkpt>
      <trkpt lat="44.94444" lon="5.65813">
        <ele>794</ele>
        <time>2023-05-16T12:38:34.022Z</time>
      </trkpt>
      <trkpt lat="44.94454" lon="5.6579">
        <ele>794.1</ele>
        <time>2023-05-16T12:38:41.126Z</time>
      </trkpt>
      <trkpt lat="44.94465" lon="5.65743">
        <ele>794.7</ele>
        <time>2023-05-16T12:38:54.648Z</time>
      </trkpt>
      <trkpt lat="44.94476" lon="5.65724">
        <ele>796.2</ele>
        <time>2023-05-16T12:39:03.064Z</time>
      </trkpt>
      <trkpt lat="44.94505" lon="5.65705">
        <ele>798.5</ele>
        <time>2023-05-16T12:39:17.810Z</time>
      </trkpt>
      <trkpt lat="44.9453" lon="5.65697">
        <ele>801.1</ele>
        <time>2023-05-16T12:39:30.893Z</time>
      </trkpt>
      <trkpt lat="44.94533" lon="5.65696">
        <ele>801.3</ele>
        <time>2023-05-16T12:39:32.282Z</time>
      </trkpt>
      <trkpt lat="44.94536" lon="5.6571">
        <ele>801</ele>
        <time>2023-05-16T12:39:35.752Z</time>
        <extensions>
          <visugpx:TrkExtension xmlns:visugpx="https://www.visugpx.com/editgpx/">
            <visugpx:node>8</visugpx:node>
            </visugpx:TrkExtension>
        </extensions>
      </trkpt>
      <trkpt lat="44.94548" lon="5.65759">
        <ele>801.5</ele>
        <time>2023-05-16T12:39:49.760Z</time>
      </trkpt>
      <trkpt lat="44.94563" lon="5.65824">
        <ele>803.3</ele>
        <time>2023-05-16T12:40:09.666Z</time>
      </trkpt>
      <trkpt lat="44.94576" lon="5.65888">
        <ele>804.2</ele>
        <time>2023-05-16T12:40:27.966Z</time>
      </trkpt>
      <trkpt lat="44.9457" lon="5.65901">
        <ele>803.6</ele>
        <time>2023-05-16T12:40:31.482Z</time>
      </trkpt>
      <trkpt lat="44.94563" lon="5.65925">
        <ele>803</ele>
        <time>2023-05-16T12:40:37.574Z</time>
      </trkpt>
      <trkpt lat="44.94556" lon="5.65963">
        <ele>802.4</ele>
        <time>2023-05-16T12:40:47.097Z</time>
      </trkpt>
      <trkpt lat="44.94563" lon="5.65998">
        <ele>802.6</ele>
        <time>2023-05-16T12:40:56.745Z</time>
      </trkpt>
      <trkpt lat="44.94563" lon="5.65998">
        <ele>802.5</ele>
        <time>2023-05-16T12:40:56.745Z</time>
        <extensions>
          <visugpx:TrkExtension xmlns:visugpx="https://www.visugpx.com/editgpx/">
            <visugpx:node>9</visugpx:node>
            </visugpx:TrkExtension>
        </extensions>
      </trkpt>
      <trkpt lat="44.94563" lon="5.66001">
        <ele>802.5</ele>
        <time>2023-05-16T12:40:57.522Z</time>
      </trkpt>
      <trkpt lat="44.94605" lon="5.66115">
        <ele>802.4</ele>
        <time>2023-05-16T12:41:30.691Z</time>
      </trkpt>
      <trkpt lat="44.94617" lon="5.66154">
        <ele>802.5</ele>
        <time>2023-05-16T12:41:41.817Z</time>
      </trkpt>
      <trkpt lat="44.94691" lon="5.6649">
        <ele>800.7</ele>
        <time>2023-05-16T12:43:10.947Z</time>
      </trkpt>
      <trkpt lat="44.94713" lon="5.66572">
        <ele>800.4</ele>
        <time>2023-05-16T12:43:33.322Z</time>
      </trkpt>
      <trkpt lat="44.94725" lon="5.66607">
        <ele>800.3</ele>
        <time>2023-05-16T12:43:43.281Z</time>
      </trkpt>
      <trkpt lat="44.94735" lon="5.66628">
        <ele>800</ele>
        <time>2023-05-16T12:43:49.509Z</time>
      </trkpt>
      <trkpt lat="44.9476" lon="5.66667">
        <ele>798.7</ele>
        <time>2023-05-16T12:44:01.775Z</time>
      </trkpt>
      <trkpt lat="44.94777" lon="5.66704">
        <ele>794.6</ele>
        <time>2023-05-16T12:44:11.770Z</time>
      </trkpt>
      <trkpt lat="44.94812" lon="5.66773">
        <ele>789</ele>
        <time>2023-05-16T12:44:31.005Z</time>
      </trkpt>
      <trkpt lat="44.94823" lon="5.66789">
        <ele>787.1</ele>
        <time>2023-05-16T12:44:36.060Z</time>
      </trkpt>
      <trkpt lat="44.94854" lon="5.66811">
        <ele>785.9</ele>
        <time>2023-05-16T12:44:47.496Z</time>
      </trkpt>
      <trkpt lat="44.94925" lon="5.66851">
        <ele>782.1</ele>
        <time>2023-05-16T12:45:11.967Z</time>
      </trkpt>
      <trkpt lat="44.94952" lon="5.66871">
        <ele>781.7</ele>
        <time>2023-05-16T12:45:22.683Z</time>
      </trkpt>
      <trkpt lat="44.9496" lon="5.66882">
        <ele>781.5</ele>
        <time>2023-05-16T12:45:26.550Z</time>
      </trkpt>
      <trkpt lat="44.94974" lon="5.6691">
        <ele>779.6</ele>
        <time>2023-05-16T12:45:34.318Z</time>
      </trkpt>
      <trkpt lat="44.94983" lon="5.66924">
        <ele>779</ele>
        <time>2023-05-16T12:45:38.603Z</time>
      </trkpt>
      <trkpt lat="44.95004" lon="5.66949">
        <ele>779.2</ele>
        <time>2023-05-16T12:45:48.879Z</time>
      </trkpt>
      <trkpt lat="44.95014" lon="5.66965">
        <ele>778.7</ele>
        <time>2023-05-16T12:45:53.882Z</time>
      </trkpt>
      <trkpt lat="44.95031" lon="5.67002">
        <ele>776.1</ele>
        <time>2023-05-16T12:46:03.877Z</time>
      </trkpt>
      <trkpt lat="44.95058" lon="5.67043">
        <ele>774.2</ele>
        <time>2023-05-16T12:46:16.566Z</time>
      </trkpt>
      <trkpt lat="44.95081" lon="5.67093">
        <ele>772.4</ele>
        <time>2023-05-16T12:46:30.154Z</time>
      </trkpt>
      <trkpt lat="44.95099" lon="5.67124">
        <ele>772</ele>
        <time>2023-05-16T12:46:40.100Z</time>
      </trkpt>
      <trkpt lat="44.95119" lon="5.6715">
        <ele>771.7</ele>
        <time>2023-05-16T12:46:49.713Z</time>
      </trkpt>
      <trkpt lat="44.95141" lon="5.6717">
        <ele>771.5</ele>
        <time>2023-05-16T12:46:59.063Z</time>
      </trkpt>
      <trkpt lat="44.95161" lon="5.67192">
        <ele>771.1</ele>
        <time>2023-05-16T12:47:07.901Z</time>
      </trkpt>
      <trkpt lat="44.95211" lon="5.67266">
        <ele>768.8</ele>
        <time>2023-05-16T12:47:31.971Z</time>
      </trkpt>
      <trkpt lat="44.95251" lon="5.67316">
        <ele>767.7</ele>
        <time>2023-05-16T12:47:50.325Z</time>
      </trkpt>
      <trkpt lat="44.95261" lon="5.67336">
        <ele>766.4</ele>
        <time>2023-05-16T12:47:55.873Z</time>
      </trkpt>
      <trkpt lat="44.95271" lon="5.67349">
        <ele>765.8</ele>
        <time>2023-05-16T12:48:00.229Z</time>
      </trkpt>
      <trkpt lat="44.95292" lon="5.67369">
        <ele>765</ele>
        <time>2023-05-16T12:48:08.652Z</time>
      </trkpt>
      <trkpt lat="44.95307" lon="5.67379">
        <ele>764.8</ele>
        <time>2023-05-16T12:48:14.501Z</time>
      </trkpt>
      <trkpt lat="44.95315" lon="5.67381">
        <ele>764.8</ele>
        <time>2023-05-16T12:48:17.473Z</time>
      </trkpt>
      <trkpt lat="44.95325" lon="5.67379">
        <ele>765.5</ele>
        <time>2023-05-16T12:48:22.091Z</time>
      </trkpt>
      <trkpt lat="44.95329" lon="5.6737">
        <ele>767.2</ele>
        <time>2023-05-16T12:48:28.225Z</time>
      </trkpt>
      <trkpt lat="44.95346" lon="5.67344">
        <ele>771.3</ele>
        <time>2023-05-16T12:48:44.251Z</time>
      </trkpt>
      <trkpt lat="44.95353" lon="5.67328">
        <ele>774.3</ele>
        <time>2023-05-16T12:48:55.078Z</time>
      </trkpt>
      <trkpt lat="44.95384" lon="5.67273">
        <ele>782</ele>
        <time>2023-05-16T12:49:25.866Z</time>
      </trkpt>
      <trkpt lat="44.95404" lon="5.67245">
        <ele>785.8</ele>
        <time>2023-05-16T12:49:42.062Z</time>
      </trkpt>
      <trkpt lat="44.95461" lon="5.67146">
        <ele>798</ele>
        <time>2023-05-16T12:50:34.039Z</time>
      </trkpt>
      <trkpt lat="44.95529" lon="5.67062">
        <ele>806.9</ele>
        <time>2023-05-16T12:51:19.676Z</time>
      </trkpt>
      <trkpt lat="44.95557" lon="5.67032">
        <ele>809.4</ele>
        <time>2023-05-16T12:51:35.841Z</time>
      </trkpt>
      <trkpt lat="44.95568" lon="5.67007">
        <ele>812.7</ele>
        <time>2023-05-16T12:51:48.908Z</time>
      </trkpt>
      <trkpt lat="44.95577" lon="5.66958">
        <ele>816.1</ele>
        <time>2023-05-16T12:52:06.783Z</time>
      </trkpt>
      <trkpt lat="44.95591" lon="5.66872">
        <ele>814.6</ele>
        <time>2023-05-16T12:52:28.026Z</time>
      </trkpt>
      <trkpt lat="44.95638" lon="5.66561">
        <ele>810.8</ele>
        <time>2023-05-16T12:53:46.236Z</time>
      </trkpt>
      <trkpt lat="44.95639" lon="5.66561">
        <ele>810.8</ele>
        <time>2023-05-16T12:53:46.602Z</time>
        <extensions>
          <visugpx:TrkExtension xmlns:visugpx="https://www.visugpx.com/editgpx/">
            <visugpx:node>10</visugpx:node>
            </visugpx:TrkExtension>
        </extensions>
      </trkpt>
      <trkpt lat="44.95671" lon="5.66337">
        <ele>809</ele>
        <time>2023-05-16T12:54:43.790Z</time>
      </trkpt>
      <trkpt lat="44.95702" lon="5.66158">
        <ele>809.5</ele>
        <time>2023-05-16T12:55:32.071Z</time>
      </trkpt>
      <trkpt lat="44.95723" lon="5.6603">
        <ele>810</ele>
        <time>2023-05-16T12:56:06.660Z</time>
      </trkpt>
      <trkpt lat="44.95724" lon="5.66014">
        <ele>809.9</ele>
        <time>2023-05-16T12:56:10.709Z</time>
      </trkpt>
      <trkpt lat="44.95723" lon="5.65969">
        <ele>811.1</ele>
        <time>2023-05-16T12:56:23.835Z</time>
      </trkpt>
      <trkpt lat="44.95733" lon="5.65947">
        <ele>811.1</ele>
        <time>2023-05-16T12:56:30.605Z</time>
      </trkpt>
      <trkpt lat="44.95757" lon="5.65909">
        <ele>810.6</ele>
        <time>2023-05-16T12:56:43.245Z</time>
      </trkpt>
      <trkpt lat="44.95782" lon="5.65881">
        <ele>810</ele>
        <time>2023-05-16T12:56:54.268Z</time>
      </trkpt>
      <trkpt lat="44.9579" lon="5.65871">
        <ele>810</ele>
        <time>2023-05-16T12:56:58.176Z</time>
      </trkpt>
      <trkpt lat="44.95819" lon="5.65832">
        <ele>811</ele>
        <time>2023-05-16T12:57:14.013Z</time>
      </trkpt>
      <trkpt lat="44.95852" lon="5.65787">
        <ele>811.7</ele>
        <time>2023-05-16T12:57:31.607Z</time>
      </trkpt>
      <trkpt lat="44.95899" lon="5.6572">
        <ele>811.7</ele>
        <time>2023-05-16T12:57:56.033Z</time>
      </trkpt>
      <trkpt lat="44.95913" lon="5.65699">
        <ele>812</ele>
        <time>2023-05-16T12:58:03.851Z</time>
      </trkpt>
      <trkpt lat="44.9592" lon="5.6569">
        <ele>811.9</ele>
        <time>2023-05-16T12:58:07.204Z</time>
      </trkpt>
      <trkpt lat="44.95929" lon="5.65676">
        <ele>812.1</ele>
        <time>2023-05-16T12:58:12.334Z</time>
      </trkpt>
      <trkpt lat="44.95933" lon="5.6567">
        <ele>812.2</ele>
        <time>2023-05-16T12:58:14.585Z</time>
      </trkpt>
      <trkpt lat="44.95949" lon="5.6566">
        <ele>812.3</ele>
        <time>2023-05-16T12:58:21.100Z</time>
      </trkpt>
      <trkpt lat="44.9596" lon="5.65661">
        <ele>811.8</ele>
        <time>2023-05-16T12:58:24.629Z</time>
      </trkpt>
      <trkpt lat="44.95971" lon="5.65666">
        <ele>811.1</ele>
        <time>2023-05-16T12:58:28.328Z</time>
      </trkpt>
      <trkpt lat="44.95985" lon="5.65669">
        <ele>810.4</ele>
        <time>2023-05-16T12:58:32.861Z</time>
      </trkpt>
      <trkpt lat="44.96036" lon="5.65666">
        <ele>807.7</ele>
        <time>2023-05-16T12:58:49.203Z</time>
      </trkpt>
      <trkpt lat="44.96064" lon="5.65659">
        <ele>806.8</ele>
        <time>2023-05-16T12:58:58.659Z</time>
      </trkpt>
      <trkpt lat="44.96111" lon="5.65637">
        <ele>806</ele>
        <time>2023-05-16T12:59:15.904Z</time>
      </trkpt>
      <trkpt lat="44.96178" lon="5.65616">
        <ele>806.6</ele>
        <time>2023-05-16T12:59:41.702Z</time>
      </trkpt>
      <trkpt lat="44.96184" lon="5.6561">
        <ele>806.6</ele>
        <time>2023-05-16T12:59:44.391Z</time>
      </trkpt>
      <trkpt lat="44.96187" lon="5.65606">
        <ele>806.5</ele>
        <time>2023-05-16T12:59:45.794Z</time>
      </trkpt>
      <trkpt lat="44.96196" lon="5.65603">
        <ele>806.8</ele>
        <time>2023-05-16T12:59:49.540Z</time>
      </trkpt>
      <trkpt lat="44.96224" lon="5.65578">
        <ele>807.8</ele>
        <time>2023-05-16T13:00:02.862Z</time>
      </trkpt>
      <trkpt lat="44.96265" lon="5.65552">
        <ele>810</ele>
        <time>2023-05-16T13:00:22.068Z</time>
      </trkpt>
      <trkpt lat="44.96303" lon="5.65536">
        <ele>813</ele>
        <time>2023-05-16T13:00:40.590Z</time>
      </trkpt>
      <trkpt lat="44.96368" lon="5.65525">
        <ele>817.1</ele>
        <time>2023-05-16T13:01:09.860Z</time>
      </trkpt>
      <trkpt lat="44.96461" lon="5.65532">
        <ele>819.2</ele>
        <time>2023-05-16T13:01:46.421Z</time>
      </trkpt>
      <trkpt lat="44.96502" lon="5.65538">
        <ele>819.3</ele>
        <time>2023-05-16T13:02:01.616Z</time>
      </trkpt>
      <trkpt lat="44.96565" lon="5.65549">
        <ele>817.4</ele>
        <time>2023-05-16T13:02:22.833Z</time>
      </trkpt>
      <trkpt lat="44.96592" lon="5.65553">
        <ele>816.6</ele>
        <time>2023-05-16T13:02:31.919Z</time>
      </trkpt>
      <trkpt lat="44.96662" lon="5.6556">
        <ele>813.3</ele>
        <time>2023-05-16T13:02:54.386Z</time>
      </trkpt>
      <trkpt lat="44.96759" lon="5.65544">
        <ele>813</ele>
        <time>2023-05-16T13:03:29.782Z</time>
      </trkpt>
      <trkpt lat="44.96854" lon="5.65549">
        <ele>814.7</ele>
        <time>2023-05-16T13:04:06.556Z</time>
      </trkpt>
      <trkpt lat="44.969" lon="5.65553">
        <ele>815</ele>
        <time>2023-05-16T13:04:23.761Z</time>
      </trkpt>
      <trkpt lat="44.96946" lon="5.65557">
        <ele>814.9</ele>
        <time>2023-05-16T13:04:40.511Z</time>
      </trkpt>
      <trkpt lat="44.97016" lon="5.65569">
        <ele>814.3</ele>
        <time>2023-05-16T13:05:05.647Z</time>
      </trkpt>
      <trkpt lat="44.97039" lon="5.65563">
        <ele>814.3</ele>
        <time>2023-05-16T13:05:14.205Z</time>
      </trkpt>
      <trkpt lat="44.9706" lon="5.65553">
        <ele>814.3</ele>
        <time>2023-05-16T13:05:22.313Z</time>
      </trkpt>
      <trkpt lat="44.97122" lon="5.65506">
        <ele>816.4</ele>
        <time>2023-05-16T13:05:50.580Z</time>
      </trkpt>
      <trkpt lat="44.97138" lon="5.655">
        <ele>817</ele>
        <time>2023-05-16T13:05:57.369Z</time>
      </trkpt>
      <trkpt lat="44.97151" lon="5.65502">
        <ele>817.4</ele>
        <time>2023-05-16T13:06:02.636Z</time>
      </trkpt>
      <trkpt lat="44.97233" lon="5.65562">
        <ele>821</ele>
        <time>2023-05-16T13:06:40.840Z</time>
      </trkpt>
      <trkpt lat="44.97248" lon="5.65576">
        <ele>821</ele>
        <time>2023-05-16T13:06:47.417Z</time>
      </trkpt>
      <trkpt lat="44.97296" lon="5.65607">
        <ele>817.2</ele>
        <time>2023-05-16T13:07:04.312Z</time>
      </trkpt>
      <trkpt lat="44.97376" lon="5.65675">
        <ele>805.8</ele>
        <time>2023-05-16T13:07:34.198Z</time>
      </trkpt>
      <trkpt lat="44.97394" lon="5.65693">
        <ele>802.6</ele>
        <time>2023-05-16T13:07:41.257Z</time>
      </trkpt>
      <trkpt lat="44.97394" lon="5.65693">
        <ele>802.6</ele>
        <time>2023-05-16T13:07:41.257Z</time>
        <extensions>
          <visugpx:TrkExtension xmlns:visugpx="https://www.visugpx.com/editgpx/">
            <visugpx:node>11</visugpx:node>
            </visugpx:TrkExtension>
        </extensions>
      </trkpt>
      <trkpt lat="44.97404" lon="5.65703">
        <ele>801.1</ele>
        <time>2023-05-16T13:07:45.178Z</time>
      </trkpt>
      <trkpt lat="44.97431" lon="5.65722">
        <ele>797.5</ele>
        <time>2023-05-16T13:07:54.834Z</time>
      </trkpt>
      <trkpt lat="44.97455" lon="5.6575">
        <ele>793.9</ele>
        <time>2023-05-16T13:08:04.797Z</time>
      </trkpt>
      <trkpt lat="44.97469" lon="5.65762">
        <ele>791.9</ele>
        <time>2023-05-16T13:08:10.038Z</time>
      </trkpt>
      <trkpt lat="44.97555" lon="5.65806">
        <ele>784</ele>
        <time>2023-05-16T13:08:39.319Z</time>
      </trkpt>
      <trkpt lat="44.9758" lon="5.6581">
        <ele>782.2</ele>
        <time>2023-05-16T13:08:47.374Z</time>
      </trkpt>
      <trkpt lat="44.97608" lon="5.6581">
        <ele>781.1</ele>
        <time>2023-05-16T13:08:56.478Z</time>
      </trkpt>
      <trkpt lat="44.97623" lon="5.65812">
        <ele>780.6</ele>
        <time>2023-05-16T13:09:01.466Z</time>
      </trkpt>
      <trkpt lat="44.97638" lon="5.65805">
        <ele>780.1</ele>
        <time>2023-05-16T13:09:06.718Z</time>
      </trkpt>
      <trkpt lat="44.9765" lon="5.65803">
        <ele>780.1</ele>
        <time>2023-05-16T13:09:11.139Z</time>
      </trkpt>
      <trkpt lat="44.97661" lon="5.65803">
        <ele>780.1</ele>
        <time>2023-05-16T13:09:15.164Z</time>
      </trkpt>
      <trkpt lat="44.97671" lon="5.65806">
        <ele>779.8</ele>
        <time>2023-05-16T13:09:18.587Z</time>
      </trkpt>
      <trkpt lat="44.97692" lon="5.65842">
        <ele>777.5</ele>
        <time>2023-05-16T13:09:29.154Z</time>
      </trkpt>
      <trkpt lat="44.97704" lon="5.65861">
        <ele>775.7</ele>
        <time>2023-05-16T13:09:34.923Z</time>
      </trkpt>
      <trkpt lat="44.97753" lon="5.65908">
        <ele>770.5</ele>
        <time>2023-05-16T13:09:53.880Z</time>
      </trkpt>
      <trkpt lat="44.97844" lon="5.66012">
        <ele>759.8</ele>
        <time>2023-05-16T13:10:31.343Z</time>
      </trkpt>
      <trkpt lat="44.97853" lon="5.66019">
        <ele>758.9</ele>
        <time>2023-05-16T13:10:34.632Z</time>
      </trkpt>
      <trkpt lat="44.97861" lon="5.66024">
        <ele>758.3</ele>
        <time>2023-05-16T13:10:37.432Z</time>
      </trkpt>
      <trkpt lat="44.97883" lon="5.66051">
        <ele>754.8</ele>
        <time>2023-05-16T13:10:46.759Z</time>
      </trkpt>
      <trkpt lat="44.97902" lon="5.66063">
        <ele>753</ele>
        <time>2023-05-16T13:10:53.422Z</time>
      </trkpt>
      <trkpt lat="44.9791" lon="5.66071">
        <ele>752.1</ele>
        <time>2023-05-16T13:10:56.559Z</time>
      </trkpt>
      <trkpt lat="44.97935" lon="5.66106">
        <ele>748.3</ele>
        <time>2023-05-16T13:11:07.823Z</time>
      </trkpt>
      <trkpt lat="44.97947" lon="5.66119">
        <ele>747.3</ele>
        <time>2023-05-16T13:11:12.663Z</time>
      </trkpt>
      <trkpt lat="44.97975" lon="5.66139">
        <ele>744.8</ele>
        <time>2023-05-16T13:11:22.707Z</time>
      </trkpt>
      <trkpt lat="44.98017" lon="5.66163">
        <ele>740.9</ele>
        <time>2023-05-16T13:11:37.210Z</time>
      </trkpt>
      <trkpt lat="44.9808" lon="5.66206">
        <ele>734.8</ele>
        <time>2023-05-16T13:11:59.607Z</time>
      </trkpt>
      <trkpt lat="44.98123" lon="5.66234">
        <ele>731</ele>
        <time>2023-05-16T13:12:14.763Z</time>
      </trkpt>
      <trkpt lat="44.98145" lon="5.66251">
        <ele>728.7</ele>
        <time>2023-05-16T13:12:22.790Z</time>
      </trkpt>
      <trkpt lat="44.98151" lon="5.66259">
        <ele>728.2</ele>
        <time>2023-05-16T13:12:25.430Z</time>
      </trkpt>
      <trkpt lat="44.98161" lon="5.66279">
        <ele>727.1</ele>
        <time>2023-05-16T13:12:30.976Z</time>
      </trkpt>
      <trkpt lat="44.98179" lon="5.66304">
        <ele>724.7</ele>
        <time>2023-05-16T13:12:39.055Z</time>
      </trkpt>
      <trkpt lat="44.98179" lon="5.66305">
        <ele>724.6</ele>
        <time>2023-05-16T13:12:39.281Z</time>
        <extensions>
          <visugpx:TrkExtension xmlns:visugpx="https://www.visugpx.com/editgpx/">
            <visugpx:node>12</visugpx:node>
            </visugpx:TrkExtension>
        </extensions>
      </trkpt>
      <trkpt lat="44.98256" lon="5.66417">
        <ele>717.1</ele>
        <time>2023-05-16T13:13:14.650Z</time>
      </trkpt>
      <trkpt lat="44.9828" lon="5.66494">
        <ele>713.3</ele>
        <time>2023-05-16T13:13:33.704Z</time>
      </trkpt>
      <trkpt lat="44.98301" lon="5.66527">
        <ele>712</ele>
        <time>2023-05-16T13:13:43.850Z</time>
      </trkpt>
      <trkpt lat="44.98365" lon="5.66591">
        <ele>708.2</ele>
        <time>2023-05-16T13:14:08.947Z</time>
      </trkpt>
      <trkpt lat="44.98429" lon="5.66634">
        <ele>704.5</ele>
        <time>2023-05-16T13:14:31.632Z</time>
      </trkpt>
      <trkpt lat="44.98451" lon="5.66659">
        <ele>701.6</ele>
        <time>2023-05-16T13:14:40.668Z</time>
      </trkpt>
      <trkpt lat="44.98488" lon="5.66714">
        <ele>695.8</ele>
        <time>2023-05-16T13:14:57.856Z</time>
      </trkpt>
      <trkpt lat="44.98491" lon="5.66724">
        <ele>695</ele>
        <time>2023-05-16T13:15:00.316Z</time>
      </trkpt>
      <trkpt lat="44.98496" lon="5.66811">
        <ele>691</ele>
        <time>2023-05-16T13:15:20.081Z</time>
      </trkpt>
      <trkpt lat="44.98503" lon="5.66834">
        <ele>689.8</ele>
        <time>2023-05-16T13:15:25.751Z</time>
      </trkpt>
      <trkpt lat="44.98522" lon="5.66857">
        <ele>687.6</ele>
        <time>2023-05-16T13:15:33.759Z</time>
      </trkpt>
      <trkpt lat="44.98545" lon="5.66872">
        <ele>685.7</ele>
        <time>2023-05-16T13:15:41.868Z</time>
      </trkpt>
      <trkpt lat="44.9856" lon="5.66889">
        <ele>684.2</ele>
        <time>2023-05-16T13:15:48.022Z</time>
      </trkpt>
      <trkpt lat="44.98571" lon="5.66929">
        <ele>681.6</ele>
        <time>2023-05-16T13:15:57.740Z</time>
      </trkpt>
      <trkpt lat="44.98575" lon="5.66968">
        <ele>678.7</ele>
        <time>2023-05-16T13:16:06.664Z</time>
      </trkpt>
      <trkpt lat="44.98581" lon="5.6699">
        <ele>677.5</ele>
        <time>2023-05-16T13:16:12.003Z</time>
      </trkpt>
      <trkpt lat="44.98609" lon="5.67041">
        <ele>674.2</ele>
        <time>2023-05-16T13:16:26.622Z</time>
      </trkpt>
      <trkpt lat="44.98631" lon="5.67067">
        <ele>673.6</ele>
        <time>2023-05-16T13:16:36.466Z</time>
      </trkpt>
      <trkpt lat="44.98681" lon="5.67112">
        <ele>673.3</ele>
        <time>2023-05-16T13:16:57.818Z</time>
      </trkpt>
      <trkpt lat="44.98692" lon="5.67118">
        <ele>672.7</ele>
        <time>2023-05-16T13:17:01.593Z</time>
      </trkpt>
      <trkpt lat="44.98727" lon="5.67125">
        <ele>671.3</ele>
        <time>2023-05-16T13:17:13.076Z</time>
      </trkpt>
      <trkpt lat="44.98748" lon="5.67136">
        <ele>670.7</ele>
        <time>2023-05-16T13:17:20.631Z</time>
      </trkpt>
      <trkpt lat="44.98771" lon="5.6716">
        <ele>670.1</ele>
        <time>2023-05-16T13:17:30.444Z</time>
      </trkpt>
      <trkpt lat="44.988" lon="5.67204">
        <ele>665.4</ele>
        <time>2023-05-16T13:17:44.062Z</time>
      </trkpt>
      <trkpt lat="44.9882" lon="5.67228">
        <ele>663.4</ele>
        <time>2023-05-16T13:17:52.460Z</time>
      </trkpt>
      <trkpt lat="44.98833" lon="5.67251">
        <ele>661.9</ele>
        <time>2023-05-16T13:17:59.127Z</time>
      </trkpt>
      <trkpt lat="44.98863" lon="5.6732">
        <ele>654.3</ele>
        <time>2023-05-16T13:18:17.466Z</time>
      </trkpt>
      <trkpt lat="44.98879" lon="5.67339">
        <ele>652.6</ele>
        <time>2023-05-16T13:18:24.155Z</time>
      </trkpt>
      <trkpt lat="44.9889" lon="5.67364">
        <ele>649.2</ele>
        <time>2023-05-16T13:18:30.822Z</time>
      </trkpt>
      <trkpt lat="44.98903" lon="5.6737">
        <ele>650.1</ele>
        <time>2023-05-16T13:18:37.002Z</time>
      </trkpt>
      <trkpt lat="44.98975" lon="5.67385">
        <ele>649.9</ele>
        <time>2023-05-16T13:19:03.406Z</time>
      </trkpt>
      <trkpt lat="44.99018" lon="5.67404">
        <ele>648.7</ele>
        <time>2023-05-16T13:19:18.612Z</time>
      </trkpt>
      <trkpt lat="44.99044" lon="5.67406">
        <ele>647.2</ele>
        <time>2023-05-16T13:19:26.948Z</time>
      </trkpt>
      <trkpt lat="44.99092" lon="5.67402">
        <ele>644.2</ele>
        <time>2023-05-16T13:19:42.342Z</time>
      </trkpt>
      <trkpt lat="44.99113" lon="5.67416">
        <ele>643.2</ele>
        <time>2023-05-16T13:19:49.807Z</time>
      </trkpt>
      <trkpt lat="44.99151" lon="5.67463">
        <ele>639.9</ele>
        <time>2023-05-16T13:20:05.970Z</time>
      </trkpt>
      <trkpt lat="44.99174" lon="5.67498">
        <ele>637.5</ele>
        <time>2023-05-16T13:20:16.788Z</time>
      </trkpt>
      <trkpt lat="44.992" lon="5.67528">
        <ele>636.4</ele>
        <time>2023-05-16T13:20:27.910Z</time>
      </trkpt>
      <trkpt lat="44.99229" lon="5.6755">
        <ele>635.2</ele>
        <time>2023-05-16T13:20:38.700Z</time>
      </trkpt>
      <trkpt lat="44.99368" lon="5.67601">
        <ele>630.6</ele>
        <time>2023-05-16T13:21:26.400Z</time>
      </trkpt>
      <trkpt lat="44.99413" lon="5.67624">
        <ele>629.6</ele>
        <time>2023-05-16T13:21:42.830Z</time>
      </trkpt>
      <trkpt lat="44.99435" lon="5.67623">
        <ele>628.2</ele>
        <time>2023-05-16T13:21:49.877Z</time>
      </trkpt>
      <trkpt lat="44.99467" lon="5.6761">
        <ele>626.4</ele>
        <time>2023-05-16T13:22:00.536Z</time>
      </trkpt>
      <trkpt lat="44.99492" lon="5.67584">
        <ele>626.3</ele>
        <time>2023-05-16T13:22:11.779Z</time>
      </trkpt>
      <trkpt lat="44.99515" lon="5.67542">
        <ele>621.9</ele>
        <time>2023-05-16T13:22:23.805Z</time>
      </trkpt>
      <trkpt lat="44.99543" lon="5.675">
        <ele>616.4</ele>
        <time>2023-05-16T13:22:36.873Z</time>
      </trkpt>
      <trkpt lat="44.99554" lon="5.67474">
        <ele>613.6</ele>
        <time>2023-05-16T13:22:43.732Z</time>
      </trkpt>
      <trkpt lat="44.99612" lon="5.67519">
        <ele>609.8</ele>
        <time>2023-05-16T13:23:04.912Z</time>
      </trkpt>
      <trkpt lat="44.99658" lon="5.67574">
        <ele>607.6</ele>
        <time>2023-05-16T13:23:24.658Z</time>
      </trkpt>
      <trkpt lat="44.99697" lon="5.67607">
        <ele>603.6</ele>
        <time>2023-05-16T13:23:39.208Z</time>
      </trkpt>
      <trkpt lat="44.9975" lon="5.67678">
        <ele>600.6</ele>
        <time>2023-05-16T13:24:02.820Z</time>
      </trkpt>
      <trkpt lat="44.99765" lon="5.67742">
        <ele>594.4</ele>
        <time>2023-05-16T13:24:18.084Z</time>
      </trkpt>
      <trkpt lat="44.99758" lon="5.67778">
        <ele>592.5</ele>
        <time>2023-05-16T13:24:26.537Z</time>
      </trkpt>
      <trkpt lat="44.99747" lon="5.67787">
        <ele>593</ele>
        <time>2023-05-16T13:24:31.801Z</time>
      </trkpt>
      <trkpt lat="44.99687" lon="5.678">
        <ele>589.1</ele>
        <time>2023-05-16T13:24:51.234Z</time>
      </trkpt>
      <trkpt lat="44.99584" lon="5.67804">
        <ele>581.2</ele>
        <time>2023-05-16T13:25:24.222Z</time>
      </trkpt>
      <trkpt lat="44.99537" lon="5.67859">
        <ele>571</ele>
        <time>2023-05-16T13:25:43.753Z</time>
      </trkpt>
      <trkpt lat="44.9953" lon="5.67862">
        <ele>570.7</ele>
        <time>2023-05-16T13:25:46.119Z</time>
      </trkpt>
      <trkpt lat="44.99481" lon="5.67911">
        <ele>563.9</ele>
        <time>2023-05-16T13:26:05.333Z</time>
      </trkpt>
      <trkpt lat="44.99429" lon="5.6801">
        <ele>555.5</ele>
        <time>2023-05-16T13:26:33.252Z</time>
      </trkpt>
      <trkpt lat="44.9942" lon="5.68021">
        <ele>554.8</ele>
        <time>2023-05-16T13:26:37.061Z</time>
      </trkpt>
      <trkpt lat="44.994" lon="5.68036">
        <ele>552.4</ele>
        <time>2023-05-16T13:26:44.309Z</time>
      </trkpt>
      <trkpt lat="44.99271" lon="5.68095">
        <ele>537.9</ele>
        <time>2023-05-16T13:27:27.714Z</time>
      </trkpt>
      <trkpt lat="44.99241" lon="5.68112">
        <ele>533.7</ele>
        <time>2023-05-16T13:27:38.061Z</time>
      </trkpt>
      <trkpt lat="44.99236" lon="5.68121">
        <ele>531.9</ele>
        <time>2023-05-16T13:27:40.653Z</time>
      </trkpt>
      <trkpt lat="44.99242" lon="5.6813">
        <ele>530.7</ele>
        <time>2023-05-16T13:27:43.453Z</time>
      </trkpt>
      <trkpt lat="44.99282" lon="5.68151">
        <ele>527.6</ele>
        <time>2023-05-16T13:27:57.113Z</time>
      </trkpt>
      <trkpt lat="44.99315" lon="5.68179">
        <ele>522.4</ele>
        <time>2023-05-16T13:28:09.434Z</time>
      </trkpt>
      <trkpt lat="44.99299" lon="5.68175">
        <ele>523.2</ele>
        <time>2023-05-16T13:28:16.385Z</time>
      </trkpt>
      <trkpt lat="44.99269" lon="5.68176">
        <ele>523.3</ele>
        <time>2023-05-16T13:28:27.478Z</time>
      </trkpt>
      <trkpt lat="44.99275" lon="5.68188">
        <ele>521.4</ele>
        <time>2023-05-16T13:28:30.805Z</time>
      </trkpt>
      <trkpt lat="44.9928" lon="5.68225">
        <ele>515.8</ele>
        <time>2023-05-16T13:28:39.334Z</time>
      </trkpt>
      <trkpt lat="44.99295" lon="5.68244">
        <ele>512.9</ele>
        <time>2023-05-16T13:28:45.781Z</time>
      </trkpt>
      <trkpt lat="44.99321" lon="5.6826">
        <ele>509.5</ele>
        <time>2023-05-16T13:28:54.859Z</time>
      </trkpt>
      <trkpt lat="44.99337" lon="5.68277">
        <ele>505.8</ele>
        <time>2023-05-16T13:29:01.266Z</time>
      </trkpt>
      <trkpt lat="44.99363" lon="5.68296">
        <ele>503.6</ele>
        <time>2023-05-16T13:29:10.636Z</time>
      </trkpt>
      <trkpt lat="44.99374" lon="5.6831">
        <ele>502.1</ele>
        <time>2023-05-16T13:29:15.374Z</time>
      </trkpt>
      <trkpt lat="44.9938" lon="5.68325">
        <ele>500.2</ele>
        <time>2023-05-16T13:29:19.275Z</time>
      </trkpt>
      <trkpt lat="44.99401" lon="5.68353">
        <ele>497.4</ele>
        <time>2023-05-16T13:29:28.516Z</time>
      </trkpt>
      <trkpt lat="44.99397" lon="5.68379">
        <ele>491.3</ele>
        <time>2023-05-16T13:29:34.540Z</time>
      </trkpt>
      <trkpt lat="44.99403" lon="5.68393">
        <ele>488.9</ele>
        <time>2023-05-16T13:29:38.246Z</time>
      </trkpt>
      <trkpt lat="44.99413" lon="5.684">
        <ele>488.4</ele>
        <time>2023-05-16T13:29:41.819Z</time>
      </trkpt>
      <trkpt lat="44.99419" lon="5.68411">
        <ele>486</ele>
        <time>2023-05-16T13:29:44.964Z</time>
      </trkpt>
      <trkpt lat="44.99417" lon="5.68418">
        <ele>484.6</ele>
        <time>2023-05-16T13:29:46.673Z</time>
      </trkpt>
      <trkpt lat="44.99411" lon="5.68423">
        <ele>482.8</ele>
        <time>2023-05-16T13:29:48.903Z</time>
      </trkpt>
      <trkpt lat="44.99403" lon="5.6844">
        <ele>477.6</ele>
        <time>2023-05-16T13:29:53.526Z</time>
      </trkpt>
      <trkpt lat="44.99393" lon="5.68447">
        <ele>474.8</ele>
        <time>2023-05-16T13:29:57.098Z</time>
      </trkpt>
      <trkpt lat="44.99385" lon="5.68467">
        <ele>468.9</ele>
        <time>2023-05-16T13:30:02.300Z</time>
      </trkpt>
      <trkpt lat="44.99386" lon="5.68474">
        <ele>467.2</ele>
        <time>2023-05-16T13:30:03.917Z</time>
      </trkpt>
      <trkpt lat="44.9942" lon="5.68483">
        <ele>467.2</ele>
        <time>2023-05-16T13:30:16.573Z</time>
      </trkpt>
      <trkpt lat="44.99436" lon="5.68498">
        <ele>461.9</ele>
        <time>2023-05-16T13:30:22.719Z</time>
      </trkpt>
      <trkpt lat="44.99454" lon="5.68522">
        <ele>455.2</ele>
        <time>2023-05-16T13:30:30.640Z</time>
      </trkpt>
      <trkpt lat="44.99464" lon="5.68518">
        <ele>455.5</ele>
        <time>2023-05-16T13:30:34.802Z</time>
      </trkpt>
      <trkpt lat="44.99477" lon="5.68522">
        <ele>454</ele>
        <time>2023-05-16T13:30:39.061Z</time>
      </trkpt>
      <trkpt lat="44.99524" lon="5.68558">
        <ele>441.4</ele>
        <time>2023-05-16T13:30:56.174Z</time>
      </trkpt>
      <trkpt lat="44.99554" lon="5.6855">
        <ele>434.7</ele>
        <time>2023-05-16T13:31:05.948Z</time>
      </trkpt>
      <trkpt lat="44.99566" lon="5.68504">
        <ele>437.3</ele>
        <time>2023-05-16T13:31:22.107Z</time>
      </trkpt>
      <trkpt lat="44.99623" lon="5.68429">
        <ele>448.6</ele>
        <time>2023-05-16T13:32:08.595Z</time>
      </trkpt>
      <trkpt lat="44.99632" lon="5.68407">
        <ele>453.7</ele>
        <time>2023-05-16T13:32:27.164Z</time>
      </trkpt>
      <trkpt lat="44.99634" lon="5.68414">
        <ele>452.1</ele>
        <time>2023-05-16T13:32:28.873Z</time>
      </trkpt>
      <trkpt lat="44.99631" lon="5.68418">
        <ele>451.3</ele>
        <time>2023-05-16T13:32:30.193Z</time>
      </trkpt>
      <trkpt lat="44.99638" lon="5.68407">
        <ele>453.4</ele>
        <time>2023-05-16T13:32:37.911Z</time>
      </trkpt>
      <trkpt lat="44.99652" lon="5.68403">
        <ele>453.6</ele>
        <time>2023-05-16T13:32:43.369Z</time>
      </trkpt>
      <trkpt lat="44.99665" lon="5.68387">
        <ele>456.5</ele>
        <time>2023-05-16T13:32:54.588Z</time>
      </trkpt>
      <trkpt lat="44.99673" lon="5.68386">
        <ele>457.3</ele>
        <time>2023-05-16T13:32:58.661Z</time>
      </trkpt>
      <trkpt lat="44.99697" lon="5.68402">
        <ele>456.2</ele>
        <time>2023-05-16T13:33:07.234Z</time>
      </trkpt>
      <trkpt lat="44.99712" lon="5.68406">
        <ele>456.8</ele>
        <time>2023-05-16T13:33:13.556Z</time>
      </trkpt>
      <trkpt lat="44.99712" lon="5.68403">
        <ele>457.5</ele>
        <time>2023-05-16T13:33:16.214Z</time>
      </trkpt>
      <trkpt lat="44.99742" lon="5.68405">
        <ele>460</ele>
        <time>2023-05-16T13:33:30.609Z</time>
      </trkpt>
      <trkpt lat="44.99763" lon="5.68414">
        <ele>461</ele>
        <time>2023-05-16T13:33:39.884Z</time>
      </trkpt>
      <trkpt lat="44.99781" lon="5.6844">
        <ele>457.7</ele>
        <time>2023-05-16T13:33:48.122Z</time>
      </trkpt>
      <trkpt lat="44.99785" lon="5.68462">
        <ele>452.8</ele>
        <time>2023-05-16T13:33:53.264Z</time>
      </trkpt>
      <trkpt lat="44.99791" lon="5.68464">
        <ele>453.2</ele>
        <time>2023-05-16T13:33:56.041Z</time>
      </trkpt>
      <trkpt lat="44.99809" lon="5.68447">
        <ele>460.4</ele>
        <time>2023-05-16T13:34:23.460Z</time>
      </trkpt>
      <trkpt lat="44.99851" lon="5.68434">
        <ele>469.4</ele>
        <time>2023-05-16T13:34:56.266Z</time>
      </trkpt>
      <trkpt lat="44.9986" lon="5.68427">
        <ele>471.9</ele>
        <time>2023-05-16T13:35:05.252Z</time>
      </trkpt>
      <trkpt lat="44.99896" lon="5.68431">
        <ele>473.5</ele>
        <time>2023-05-16T13:35:20.453Z</time>
      </trkpt>
      <trkpt lat="44.99922" lon="5.68443">
        <ele>473.4</ele>
        <time>2023-05-16T13:35:30.348Z</time>
      </trkpt>
      <trkpt lat="44.99971" lon="5.68499">
        <ele>469.7</ele>
        <time>2023-05-16T13:35:50.518Z</time>
      </trkpt>
      <trkpt lat="44.99978" lon="5.68487">
        <ele>473.1</ele>
        <time>2023-05-16T13:36:03.150Z</time>
      </trkpt>
      <trkpt lat="44.99999" lon="5.6847">
        <ele>479.6</ele>
        <time>2023-05-16T13:36:26.628Z</time>
      </trkpt>
      <trkpt lat="45.00046" lon="5.68462">
        <ele>482.4</ele>
        <time>2023-05-16T13:36:47.551Z</time>
      </trkpt>
      <trkpt lat="45.0008" lon="5.6847">
        <ele>481.4</ele>
        <time>2023-05-16T13:36:59.103Z</time>
      </trkpt>
      <trkpt lat="45.00106" lon="5.68487">
        <ele>478.3</ele>
        <time>2023-05-16T13:37:08.274Z</time>
      </trkpt>
      <trkpt lat="45.00117" lon="5.68498">
        <ele>476.2</ele>
        <time>2023-05-16T13:37:12.587Z</time>
      </trkpt>
      <trkpt lat="45.00136" lon="5.68529">
        <ele>471.7</ele>
        <time>2023-05-16T13:37:21.874Z</time>
      </trkpt>
      <trkpt lat="45.00136" lon="5.68549">
        <ele>468.5</ele>
        <time>2023-05-16T13:37:26.401Z</time>
      </trkpt>
      <trkpt lat="45.00131" lon="5.68568">
        <ele>465.1</ele>
        <time>2023-05-16T13:37:30.990Z</time>
      </trkpt>
      <trkpt lat="45.00137" lon="5.68606">
        <ele>460.8</ele>
        <time>2023-05-16T13:37:39.804Z</time>
      </trkpt>
      <trkpt lat="45.00152" lon="5.68662">
        <ele>458.2</ele>
        <time>2023-05-16T13:37:53.360Z</time>
      </trkpt>
      <trkpt lat="45.00154" lon="5.68681">
        <ele>455.2</ele>
        <time>2023-05-16T13:37:57.709Z</time>
      </trkpt>
      <trkpt lat="45.00167" lon="5.68673">
        <ele>459.5</ele>
        <time>2023-05-16T13:38:13.601Z</time>
      </trkpt>
      <trkpt lat="45.00176" lon="5.68658">
        <ele>458.8</ele>
        <time>2023-05-16T13:38:18.054Z</time>
      </trkpt>
      <trkpt lat="45.00172" lon="5.68638">
        <ele>461.1</ele>
        <time>2023-05-16T13:38:27.207Z</time>
      </trkpt>
      <trkpt lat="45.00159" lon="5.68605">
        <ele>463.7</ele>
        <time>2023-05-16T13:38:40.647Z</time>
      </trkpt>
      <trkpt lat="45.00154" lon="5.68567">
        <ele>467.1</ele>
        <time>2023-05-16T13:38:55.780Z</time>
      </trkpt>
      <trkpt lat="45.00154" lon="5.68547">
        <ele>470</ele>
        <time>2023-05-16T13:39:06.391Z</time>
      </trkpt>
      <trkpt lat="45.00168" lon="5.68543">
        <ele>471</ele>
        <time>2023-05-16T13:39:12.937Z</time>
      </trkpt>
      <trkpt lat="45.00172" lon="5.68561">
        <ele>467.5</ele>
        <time>2023-05-16T13:39:17.208Z</time>
      </trkpt>
      <trkpt lat="45.00211" lon="5.68579">
        <ele>453.1</ele>
        <time>2023-05-16T13:39:30.342Z</time>
      </trkpt>
      <trkpt lat="45.00222" lon="5.68591">
        <ele>448.4</ele>
        <time>2023-05-16T13:39:34.789Z</time>
      </trkpt>
      <trkpt lat="45.00235" lon="5.68591">
        <ele>444.4</ele>
        <time>2023-05-16T13:39:38.951Z</time>
      </trkpt>
      <trkpt lat="45.00248" lon="5.68601">
        <ele>440</ele>
        <time>2023-05-16T13:39:43.689Z</time>
      </trkpt>
      <trkpt lat="45.00261" lon="5.68605">
        <ele>437.8</ele>
        <time>2023-05-16T13:39:47.948Z</time>
      </trkpt>
      <trkpt lat="45.00271" lon="5.68618">
        <ele>435.2</ele>
        <time>2023-05-16T13:39:52.297Z</time>
      </trkpt>
      <trkpt lat="45.00309" lon="5.68642">
        <ele>424.2</ele>
        <time>2023-05-16T13:40:05.620Z</time>
      </trkpt>
      <trkpt lat="45.00343" lon="5.68673">
        <ele>406.7</ele>
        <time>2023-05-16T13:40:18.571Z</time>
      </trkpt>
      <trkpt lat="45.00353" lon="5.68686">
        <ele>400.2</ele>
        <time>2023-05-16T13:40:22.920Z</time>
      </trkpt>
      <trkpt lat="45.00352" lon="5.68706">
        <ele>396.3</ele>
        <time>2023-05-16T13:40:27.458Z</time>
      </trkpt>
      <trkpt lat="45.00355" lon="5.68725">
        <ele>391.4</ele>
        <time>2023-05-16T13:40:31.865Z</time>
      </trkpt>
      <trkpt lat="45.0036" lon="5.68737">
        <ele>387.5</ele>
        <time>2023-05-16T13:40:35.018Z</time>
      </trkpt>
      <trkpt lat="45.00392" lon="5.68707">
        <ele>382.8</ele>
        <time>2023-05-16T13:40:47.309Z</time>
      </trkpt>
      <trkpt lat="45.00415" lon="5.68676">
        <ele>378.6</ele>
        <time>2023-05-16T13:40:57.481Z</time>
      </trkpt>
      <trkpt lat="45.00431" lon="5.68646">
        <ele>380</ele>
        <time>2023-05-16T13:41:08.977Z</time>
      </trkpt>
      <trkpt lat="45.00441" lon="5.6864">
        <ele>377.4</ele>
        <time>2023-05-16T13:41:12.454Z</time>
      </trkpt>
      <trkpt lat="45.00454" lon="5.68646">
        <ele>370.8</ele>
        <time>2023-05-16T13:41:16.832Z</time>
      </trkpt>
      <trkpt lat="45.00457" lon="5.68655">
        <ele>368</ele>
        <time>2023-05-16T13:41:19.085Z</time>
      </trkpt>
      <trkpt lat="45.00478" lon="5.6868">
        <ele>359.9</ele>
        <time>2023-05-16T13:41:27.872Z</time>
      </trkpt>
      <trkpt lat="45.00477" lon="5.68683">
        <ele>360.4</ele>
        <time>2023-05-16T13:41:29.689Z</time>
      </trkpt>
      <trkpt lat="45.00482" lon="5.68693">
        <ele>359.7</ele>
        <time>2023-05-16T13:41:32.462Z</time>
      </trkpt>
      <trkpt lat="45.00521" lon="5.68738">
        <ele>357.8</ele>
        <time>2023-05-16T13:41:48.901Z</time>
      </trkpt>
      <trkpt lat="45.00602" lon="5.68814">
        <ele>358.7</ele>
        <time>2023-05-16T13:42:25.500Z</time>
      </trkpt>
      <trkpt lat="45.00694" lon="5.6888">
        <ele>360.6</ele>
        <time>2023-05-16T13:43:05.472Z</time>
      </trkpt>
      <trkpt lat="45.00711" lon="5.68901">
        <ele>361.7</ele>
        <time>2023-05-16T13:43:15.112Z</time>
      </trkpt>
      <trkpt lat="45.00717" lon="5.68916">
        <ele>363.9</ele>
        <time>2023-05-16T13:43:23.424Z</time>
      </trkpt>
      <trkpt lat="45.00713" lon="5.68933">
        <ele>367.8</ele>
        <time>2023-05-16T13:43:37.897Z</time>
      </trkpt>
      <trkpt lat="45.00696" lon="5.68954">
        <ele>370.8</ele>
        <time>2023-05-16T13:43:50.784Z</time>
      </trkpt>
      <trkpt lat="45.00691" lon="5.68953">
        <ele>370.3</ele>
        <time>2023-05-16T13:43:52.401Z</time>
      </trkpt>
      <trkpt lat="45.00682" lon="5.6896">
        <ele>370.2</ele>
        <time>2023-05-16T13:43:56.049Z</time>
      </trkpt>
      <trkpt lat="45.00668" lon="5.68986">
        <ele>369.8</ele>
        <time>2023-05-16T13:44:04.069Z</time>
      </trkpt>
      <trkpt lat="45.00659" lon="5.69025">
        <ele>370.1</ele>
        <time>2023-05-16T13:44:15.027Z</time>
      </trkpt>
      <trkpt lat="45.00665" lon="5.69058">
        <ele>371.3</ele>
        <time>2023-05-16T13:44:25.353Z</time>
      </trkpt>
      <trkpt lat="45.00677" lon="5.69095">
        <ele>377</ele>
        <time>2023-05-16T13:44:46.361Z</time>
      </trkpt>
      <trkpt lat="45.00679" lon="5.69127">
        <ele>378.6</ele>
        <time>2023-05-16T13:44:56.786Z</time>
      </trkpt>
      <trkpt lat="45.00688" lon="5.69151">
        <ele>382.5</ele>
        <time>2023-05-16T13:45:11.084Z</time>
      </trkpt>
      <trkpt lat="45.00698" lon="5.69166">
        <ele>386.3</ele>
        <time>2023-05-16T13:45:24.772Z</time>
      </trkpt>
      <trkpt lat="45.0074" lon="5.69204">
        <ele>398.6</ele>
        <time>2023-05-16T13:46:08.980Z</time>
      </trkpt>
      <trkpt lat="45.00752" lon="5.69224">
        <ele>400.9</ele>
        <time>2023-05-16T13:46:19.235Z</time>
      </trkpt>
      <trkpt lat="45.00761" lon="5.6926">
        <ele>402.1</ele>
        <time>2023-05-16T13:46:30.605Z</time>
      </trkpt>
      <trkpt lat="45.00757" lon="5.693">
        <ele>400.2</ele>
        <time>2023-05-16T13:46:39.749Z</time>
      </trkpt>
      <trkpt lat="45.00758" lon="5.69338">
        <ele>400.1</ele>
        <time>2023-05-16T13:46:49.474Z</time>
      </trkpt>
      <trkpt lat="45.00767" lon="5.69365">
        <ele>402.1</ele>
        <time>2023-05-16T13:46:59.999Z</time>
      </trkpt>
      <trkpt lat="45.00802" lon="5.69417">
        <ele>411.6</ele>
        <time>2023-05-16T13:47:35.516Z</time>
      </trkpt>
      <trkpt lat="45.00812" lon="5.69438">
        <ele>415.2</ele>
        <time>2023-05-16T13:47:48.741Z</time>
      </trkpt>
      <trkpt lat="45.00816" lon="5.69457">
        <ele>416.7</ele>
        <time>2023-05-16T13:47:56.036Z</time>
      </trkpt>
      <trkpt lat="45.00815" lon="5.69474">
        <ele>416.9</ele>
        <time>2023-05-16T13:48:00.682Z</time>
      </trkpt>
      <trkpt lat="45.00802" lon="5.69529">
        <ele>418.3</ele>
        <time>2023-05-16T13:48:17.384Z</time>
      </trkpt>
      <trkpt lat="45.00801" lon="5.6955">
        <ele>420.5</ele>
        <time>2023-05-16T13:48:26.359Z</time>
      </trkpt>
      <trkpt lat="45.00816" lon="5.69631">
        <ele>424.2</ele>
        <time>2023-05-16T13:48:52.817Z</time>
        <extensions>
          <visugpx:TrkExtension xmlns:visugpx="https://www.visugpx.com/editgpx/">
            <visugpx:node>13</visugpx:node>
            </visugpx:TrkExtension>
        </extensions>
      </trkpt>
      <trkpt lat="45.00822" lon="5.69665">
        <ele>435.6</ele>
        <time>2023-05-16T13:49:40.408Z</time>
      </trkpt>
      <trkpt lat="45.00822" lon="5.69685">
        <ele>438.1</ele>
        <time>2023-05-16T13:49:49.917Z</time>
      </trkpt>
      <trkpt lat="45.00818" lon="5.69701">
        <ele>440.2</ele>
        <time>2023-05-16T13:49:57.930Z</time>
      </trkpt>
      <trkpt lat="45.00812" lon="5.69711">
        <ele>441.9</ele>
        <time>2023-05-16T13:50:04.323Z</time>
      </trkpt>
      <trkpt lat="45.00793" lon="5.6972">
        <ele>444.5</ele>
        <time>2023-05-16T13:50:15.634Z</time>
      </trkpt>
      <trkpt lat="45.00774" lon="5.6972">
        <ele>445.8</ele>
        <time>2023-05-16T13:50:24.296Z</time>
      </trkpt>
      <trkpt lat="45.00764" lon="5.69716">
        <ele>445.6</ele>
        <time>2023-05-16T13:50:27.882Z</time>
      </trkpt>
      <trkpt lat="45.00757" lon="5.69708">
        <ele>444.1</ele>
        <time>2023-05-16T13:50:30.763Z</time>
      </trkpt>
      <trkpt lat="45.00735" lon="5.69663">
        <ele>437.2</ele>
        <time>2023-05-16T13:50:43.147Z</time>
      </trkpt>
      <trkpt lat="45.00699" lon="5.6961">
        <ele>435.9</ele>
        <time>2023-05-16T13:51:00.771Z</time>
      </trkpt>
      <trkpt lat="45.00685" lon="5.69604">
        <ele>438.4</ele>
        <time>2023-05-16T13:51:10.389Z</time>
      </trkpt>
      <trkpt lat="45.00664" lon="5.69605">
        <ele>442.8</ele>
        <time>2023-05-16T13:51:26.426Z</time>
      </trkpt>
      <trkpt lat="45.00643" lon="5.69617">
        <ele>440.2</ele>
        <time>2023-05-16T13:51:33.678Z</time>
      </trkpt>
      <trkpt lat="45.00634" lon="5.69633">
        <ele>441.2</ele>
        <time>2023-05-16T13:51:40.284Z</time>
      </trkpt>
      <trkpt lat="45.00612" lon="5.69742">
        <ele>453.4</ele>
        <time>2023-05-16T13:52:29.409Z</time>
      </trkpt>
      <trkpt lat="45.00614" lon="5.69812">
        <ele>464.3</ele>
        <time>2023-05-16T13:53:08.850Z</time>
      </trkpt>
      <trkpt lat="45.00605" lon="5.69842">
        <ele>467.8</ele>
        <time>2023-05-16T13:53:22.956Z</time>
      </trkpt>
      <trkpt lat="45.00593" lon="5.69862">
        <ele>470.5</ele>
        <time>2023-05-16T13:53:34.048Z</time>
      </trkpt>
      <trkpt lat="45.00576" lon="5.69868">
        <ele>470.6</ele>
        <time>2023-05-16T13:53:40.573Z</time>
      </trkpt>
      <trkpt lat="45.00561" lon="5.69867">
        <ele>470</ele>
        <time>2023-05-16T13:53:45.446Z</time>
      </trkpt>
      <trkpt lat="45.00531" lon="5.69857">
        <ele>466.6</ele>
        <time>2023-05-16T13:53:55.314Z</time>
      </trkpt>
      <trkpt lat="45.00518" lon="5.69858">
        <ele>466.6</ele>
        <time>2023-05-16T13:54:00.077Z</time>
      </trkpt>
      <trkpt lat="45.005" lon="5.69872">
        <ele>470.1</ele>
        <time>2023-05-16T13:54:13.557Z</time>
      </trkpt>
      <trkpt lat="45.00474" lon="5.69909">
        <ele>486.2</ele>
        <time>2023-05-16T13:55:22.780Z</time>
      </trkpt>
      <trkpt lat="45.00472" lon="5.69916">
        <ele>488.5</ele>
        <time>2023-05-16T13:55:32.621Z</time>
      </trkpt>
      <trkpt lat="45.00476" lon="5.69928">
        <ele>490.9</ele>
        <time>2023-05-16T13:55:41.255Z</time>
      </trkpt>
      <trkpt lat="45.00479" lon="5.69929">
        <ele>490.6</ele>
        <time>2023-05-16T13:55:42.242Z</time>
      </trkpt>
      <trkpt lat="45.00486" lon="5.69922">
        <ele>487.4</ele>
        <time>2023-05-16T13:55:44.987Z</time>
      </trkpt>
      <trkpt lat="45.005" lon="5.69888">
        <ele>474.7</ele>
        <time>2023-05-16T13:55:53.893Z</time>
      </trkpt>
      <trkpt lat="45.00506" lon="5.69883">
        <ele>473.4</ele>
        <time>2023-05-16T13:55:56.123Z</time>
      </trkpt>
      <trkpt lat="45.00516" lon="5.69882">
        <ele>473.3</ele>
        <time>2023-05-16T13:55:59.680Z</time>
      </trkpt>
      <trkpt lat="45.00577" lon="5.6992">
        <ele>484.2</ele>
        <time>2023-05-16T13:56:42.301Z</time>
      </trkpt>
      <trkpt lat="45.00598" lon="5.69929">
        <ele>488</ele>
        <time>2023-05-16T13:56:56.853Z</time>
      </trkpt>
      <trkpt lat="45.00606" lon="5.69929">
        <ele>488.3</ele>
        <time>2023-05-16T13:57:00.147Z</time>
      </trkpt>
      <trkpt lat="45.00629" lon="5.69916">
        <ele>485.1</ele>
        <time>2023-05-16T13:57:08.077Z</time>
      </trkpt>
      <trkpt lat="45.00654" lon="5.69895">
        <ele>483.4</ele>
        <time>2023-05-16T13:57:17.386Z</time>
      </trkpt>
      <trkpt lat="45.00707" lon="5.69872">
        <ele>482.4</ele>
        <time>2023-05-16T13:57:36.586Z</time>
      </trkpt>
      <trkpt lat="45.00718" lon="5.69872">
        <ele>482.7</ele>
        <time>2023-05-16T13:57:40.970Z</time>
      </trkpt>
      <trkpt lat="45.00776" lon="5.69903">
        <ele>488.7</ele>
        <time>2023-05-16T13:58:12.106Z</time>
      </trkpt>
      <trkpt lat="45.00788" lon="5.69915">
        <ele>490.8</ele>
        <time>2023-05-16T13:58:20.809Z</time>
      </trkpt>
      <trkpt lat="45.00808" lon="5.69944">
        <ele>497.7</ele>
        <time>2023-05-16T13:58:45.614Z</time>
      </trkpt>
      <trkpt lat="45.00869" lon="5.69974">
        <ele>505.7</ele>
        <time>2023-05-16T13:59:21.304Z</time>
      </trkpt>
      <trkpt lat="45.00904" lon="5.69969">
        <ele>505.2</ele>
        <time>2023-05-16T13:59:33.629Z</time>
      </trkpt>
      <trkpt lat="45.00947" lon="5.69927">
        <ele>503.1</ele>
        <time>2023-05-16T13:59:50.575Z</time>
      </trkpt>
      <trkpt lat="45.00963" lon="5.69927">
        <ele>505.8</ele>
        <time>2023-05-16T14:00:01.010Z</time>
      </trkpt>
      <trkpt lat="45.0098" lon="5.69952">
        <ele>510</ele>
        <time>2023-05-16T14:00:17.156Z</time>
      </trkpt>
      <trkpt lat="45.00975" lon="5.69979">
        <ele>511.1</ele>
        <time>2023-05-16T14:00:25.780Z</time>
        <extensions>
          <visugpx:TrkExtension xmlns:visugpx="https://www.visugpx.com/editgpx/">
            <visugpx:node>14</visugpx:node>
            </visugpx:TrkExtension>
        </extensions>
      </trkpt>
    </trkseg>
  </trk>
</gpx>